Wetterdaten: Sonntag, 13.08.2023
Datum Zeit Temp. I. Temp. A. Feuchte I. Feuchte A. Luftdruck Regen Wind Richtung Richtung Sonnenschein Solar Taupunkt Windchill Windböen
13.08.2023 00:00 22,9 °C 20,8 °C 63 % 84 % 1016,7 hPa 0,0 l/m² 2,5 km/h (1 Bft) S-SW 211 ° 0 min 0 W/m² 18,0 °C 20,8 °C 4,8 km/h (1 Bft)
13.08.2023 00:02 22,9 °C 20,8 °C 63 % 84 % 1016,8 hPa 0,0 l/m² 3,2 km/h (1 Bft) S-SW 211 ° 0 min 0 W/m² 18,0 °C 20,8 °C 4,8 km/h (1 Bft)
13.08.2023 00:04 22,9 °C 20,7 °C 63 % 85 % 1016,8 hPa 0,0 l/m² 2,1 km/h (1 Bft) S-SW 211 ° 0 min 0 W/m² 18,1 °C 20,7 °C 3,2 km/h (1 Bft)
13.08.2023 00:06 22,9 °C 20,7 °C 63 % 85 % 1016,8 hPa 0,0 l/m² 3,0 km/h (1 Bft) S-SW 211 ° 0 min 0 W/m² 18,1 °C 20,7 °C 4,8 km/h (1 Bft)
13.08.2023 00:08 22,8 °C 20,7 °C 63 % 85 % 1016,9 hPa 0,0 l/m² 3,8 km/h (1 Bft) S-SW 211 ° 0 min 0 W/m² 18,1 °C 20,7 °C 4,8 km/h (1 Bft)
13.08.2023 00:10 22,9 °C 20,6 °C 63 % 86 % 1016,8 hPa 0,0 l/m² 3,6 km/h (1 Bft) S-SW 211 ° 0 min 0 W/m² 18,2 °C 20,6 °C 4,8 km/h (1 Bft)
13.08.2023 00:11 22,9 °C 20,6 °C 63 % 86 % 1016,9 hPa 0,0 l/m² 3,2 km/h (1 Bft) S-SW 211 ° 0 min 0 W/m² 18,2 °C 20,6 °C 4,8 km/h (1 Bft)
13.08.2023 00:12 22,9 °C 20,6 °C 63 % 86 % 1016,9 hPa 0,0 l/m² 2,3 km/h (1 Bft) S-SW 211 ° 0 min 0 W/m² 18,2 °C 20,6 °C 4,8 km/h (1 Bft)
13.08.2023 00:13 22,9 °C 20,6 °C 63 % 86 % 1016,9 hPa 0,0 l/m² 0,8 km/h (0 Bft) S-SW 211 ° 0 min 0 W/m² 18,2 °C 20,6 °C 3,2 km/h (1 Bft)
13.08.2023 00:15 22,9 °C 20,6 °C 63 % 86 % 1016,9 hPa 0,0 l/m² 1,0 km/h (0 Bft) S-SW 211 ° 0 min 0 W/m² 18,2 °C 20,6 °C 4,8 km/h (1 Bft)
13.08.2023 00:17 22,9 °C 20,6 °C 63 % 86 % 1016,8 hPa 0,0 l/m² 0,2 km/h (0 Bft) S-SW 211 ° 0 min 0 W/m² 18,2 °C 20,6 °C 1,6 km/h (1 Bft)
13.08.2023 00:19 22,9 °C 20,5 °C 63 % 86 % 1016,9 hPa 0,0 l/m² 1,3 km/h (1 Bft) S-SW 211 ° 0 min 0 W/m² 18,1 °C 20,5 °C 3,2 km/h (1 Bft)
13.08.2023 00:21 22,9 °C 20,5 °C 63 % 86 % 1016,8 hPa 0,0 l/m² 1,0 km/h (0 Bft) S-SW 211 ° 0 min 0 W/m² 18,1 °C 20,5 °C 3,2 km/h (1 Bft)
13.08.2023 00:23 22,9 °C 20,4 °C 63 % 87 % 1016,9 hPa 0,0 l/m² 0,1 km/h (0 Bft) S-SW 211 ° 0 min 0 W/m² 18,2 °C 20,4 °C 1,6 km/h (1 Bft)
13.08.2023 00:25 22,9 °C 20,5 °C 63 % 87 % 1016,9 hPa 0,0 l/m² 0,0 km/h (0 Bft) S-SW 211 ° 0 min 0 W/m² 18,3 °C 20,5 °C 0,0 km/h (0 Bft)
13.08.2023 00:27 22,9 °C 20,4 °C 63 % 87 % 1017,0 hPa 0,0 l/m² 0,1 km/h (0 Bft) S-SW 211 ° 0 min 0 W/m² 18,2 °C 20,4 °C 1,6 km/h (1 Bft)
13.08.2023 00:29 22,8 °C 20,4 °C 63 % 87 % 1017,0 hPa 0,0 l/m² 0,1 km/h (0 Bft) S-SW 211 ° 0 min 0 W/m² 18,2 °C 20,4 °C 1,6 km/h (1 Bft)
13.08.2023 00:31 22,9 °C 20,4 °C 63 % 87 % 1017,0 hPa 0,0 l/m² 0,2 km/h (0 Bft) S-SW 211 ° 0 min 0 W/m² 18,2 °C 20,4 °C 1,6 km/h (1 Bft)
13.08.2023 00:33 22,8 °C 20,3 °C 63 % 87 % 1016,9 hPa 0,0 l/m² 0,0 km/h (0 Bft) S-SW 211 ° 0 min 0 W/m² 18,1 °C 20,3 °C 0,0 km/h (0 Bft)
13.08.2023 00:34 22,9 °C 20,4 °C 63 % 87 % 1016,9 hPa 0,0 l/m² 0,0 km/h (0 Bft) S-SW 211 ° 0 min 0 W/m² 18,2 °C 20,4 °C 0,0 km/h (0 Bft)
13.08.2023 00:35 22,9 °C 20,4 °C 63 % 87 % 1016,9 hPa 0,0 l/m² 0,0 km/h (0 Bft) S-SW 211 ° 0 min 0 W/m² 18,2 °C 20,4 °C 0,0 km/h (0 Bft)
13.08.2023 00:37 22,8 °C 20,3 °C 63 % 87 % 1016,9 hPa 0,0 l/m² 0,0 km/h (0 Bft) S-SW 211 ° 0 min 0 W/m² 18,1 °C 20,3 °C 0,0 km/h (0 Bft)
13.08.2023 00:39 22,8 °C 20,3 °C 63 % 87 % 1017,0 hPa 0,0 l/m² 0,1 km/h (0 Bft) S-SW 211 ° 0 min 0 W/m² 18,1 °C 20,3 °C 1,6 km/h (1 Bft)
13.08.2023 00:41 22,8 °C 20,4 °C 63 % 87 % 1017,0 hPa 0,0 l/m² 0,1 km/h (0 Bft) S-SW 211 ° 0 min 0 W/m² 18,2 °C 20,4 °C 1,6 km/h (1 Bft)
13.08.2023 00:42 22,8 °C 20,3 °C 63 % 87 % 1017,0 hPa 0,0 l/m² 0,1 km/h (0 Bft) S-SW 211 ° 0 min 0 W/m² 18,1 °C 20,3 °C 1,6 km/h (1 Bft)
13.08.2023 00:43 22,9 °C 20,3 °C 63 % 87 % 1017,0 hPa 0,0 l/m² 0,4 km/h (0 Bft) S-SW 211 ° 0 min 0 W/m² 18,1 °C 20,3 °C 1,6 km/h (1 Bft)
13.08.2023 00:46 22,9 °C 20,3 °C 63 % 87 % 1017,0 hPa 0,0 l/m² 2,2 km/h (1 Bft) S-SW 211 ° 0 min 0 W/m² 18,1 °C 20,3 °C 3,2 km/h (1 Bft)
13.08.2023 00:48 22,8 °C 20,2 °C 63 % 87 % 1017,0 hPa 0,0 l/m² 2,8 km/h (1 Bft) S-SW 211 ° 0 min 0 W/m² 18,0 °C 20,2 °C 4,8 km/h (1 Bft)
13.08.2023 00:50 22,9 °C 20,2 °C 63 % 87 % 1017,0 hPa 0,0 l/m² 1,5 km/h (1 Bft) S-SW 211 ° 0 min 0 W/m² 18,0 °C 20,2 °C 3,2 km/h (1 Bft)
13.08.2023 00:52 22,8 °C 20,2 °C 63 % 87 % 1017,0 hPa 0,0 l/m² 1,3 km/h (1 Bft) S-SW 211 ° 0 min 0 W/m² 18,0 °C 20,2 °C 3,2 km/h (1 Bft)
13.08.2023 00:53 22,8 °C 20,2 °C 63 % 87 % 1017,0 hPa 0,0 l/m² 0,0 km/h (0 Bft) S-SW 211 ° 0 min 0 W/m² 18,0 °C 20,2 °C 0,0 km/h (0 Bft)
13.08.2023 00:54 22,8 °C 20,2 °C 63 % 87 % 1017,0 hPa 0,0 l/m² 0,0 km/h (0 Bft) S-SW 211 ° 0 min 0 W/m² 18,0 °C 20,2 °C 0,0 km/h (0 Bft)
13.08.2023 00:56 22,8 °C 20,2 °C 63 % 87 % 1017,1 hPa 0,0 l/m² 0,0 km/h (0 Bft) S-SW 211 ° 0 min 0 W/m² 18,0 °C 20,2 °C 0,0 km/h (0 Bft)
13.08.2023 00:58 22,9 °C 20,1 °C 63 % 87 % 1017,0 hPa 0,0 l/m² 0,0 km/h (0 Bft) S-SW 211 ° 0 min 0 W/m² 17,9 °C 20,1 °C 0,0 km/h (0 Bft)
13.08.2023 01:00 22,8 °C 20,1 °C 63 % 88 % 1017,1 hPa 0,0 l/m² 0,0 km/h (0 Bft) S-SW 211 ° 0 min 0 W/m² 18,0 °C 20,1 °C 0,0 km/h (0 Bft)
13.08.2023 01:01 22,8 °C 20,1 °C 63 % 88 % 1017,0 hPa 0,0 l/m² 0,0 km/h (0 Bft) S-SW 211 ° 0 min 0 W/m² 18,0 °C 20,1 °C 0,0 km/h (0 Bft)
13.08.2023 01:02 22,8 °C 20,1 °C 63 % 88 % 1017,1 hPa 0,0 l/m² 0,0 km/h (0 Bft) S-SW 211 ° 0 min 0 W/m² 18,0 °C 20,1 °C 0,0 km/h (0 Bft)
13.08.2023 01:03 22,9 °C 20,1 °C 63 % 88 % 1017,1 hPa 0,0 l/m² 0,0 km/h (0 Bft) S-SW 211 ° 0 min 0 W/m² 18,0 °C 20,1 °C 0,0 km/h (0 Bft)
13.08.2023 01:04 22,9 °C 20,1 °C 63 % 88 % 1017,0 hPa 0,0 l/m² 0,0 km/h (0 Bft) S-SW 211 ° 0 min 0 W/m² 18,0 °C 20,1 °C 0,0 km/h (0 Bft)
13.08.2023 01:06 22,9 °C 20,0 °C 63 % 87 % 1017,0 hPa 0,0 l/m² 0,0 km/h (0 Bft) S-SW 211 ° 0 min 0 W/m² 17,8 °C 20,0 °C 0,0 km/h (0 Bft)
13.08.2023 01:08 22,9 °C 19,9 °C 63 % 87 % 1017,1 hPa 0,0 l/m² 0,0 km/h (0 Bft) S-SW 211 ° 0 min 0 W/m² 17,7 °C 19,9 °C 0,0 km/h (0 Bft)
13.08.2023 01:10 22,8 °C 19,9 °C 63 % 87 % 1017,1 hPa 0,0 l/m² 0,0 km/h (0 Bft) S-SW 211 ° 0 min 0 W/m² 17,7 °C 19,9 °C 0,0 km/h (0 Bft)
13.08.2023 01:12 22,8 °C 19,9 °C 63 % 87 % 1017,1 hPa 0,0 l/m² 0,0 km/h (0 Bft) S-SW 211 ° 0 min 0 W/m² 17,7 °C 19,9 °C 0,0 km/h (0 Bft)
13.08.2023 01:13 22,8 °C 19,9 °C 63 % 87 % 1017,1 hPa 0,0 l/m² 0,0 km/h (0 Bft) S-SW 211 ° 0 min 0 W/m² 17,7 °C 19,9 °C 0,0 km/h (0 Bft)
13.08.2023 01:14 22,8 °C 19,8 °C 63 % 87 % 1017,2 hPa 0,0 l/m² 0,0 km/h (0 Bft) S-SW 211 ° 0 min 0 W/m² 17,6 °C 19,8 °C 0,0 km/h (0 Bft)
13.08.2023 01:16 22,8 °C 19,8 °C 63 % 87 % 1017,1 hPa 0,0 l/m² 0,0 km/h (0 Bft) S-SW 211 ° 0 min 0 W/m² 17,6 °C 19,8 °C 0,0 km/h (0 Bft)
13.08.2023 01:18 22,8 °C 19,8 °C 63 % 87 % 1017,3 hPa 0,0 l/m² 0,0 km/h (0 Bft) S-SW 211 ° 0 min 0 W/m² 17,6 °C 19,8 °C 0,0 km/h (0 Bft)
13.08.2023 01:20 22,8 °C 19,7 °C 63 % 87 % 1017,3 hPa 0,0 l/m² 0,0 km/h (0 Bft) S-SW 211 ° 0 min 0 W/m² 17,5 °C 19,7 °C 0,0 km/h (0 Bft)
13.08.2023 01:22 22,8 °C 19,7 °C 63 % 87 % 1017,2 hPa 0,0 l/m² 0,0 km/h (0 Bft) S-SW 211 ° 0 min 0 W/m² 17,5 °C 19,7 °C 1,6 km/h (1 Bft)
13.08.2023 01:23 22,8 °C 19,7 °C 63 % 87 % 1017,2 hPa 0,0 l/m² 0,0 km/h (0 Bft) S-SW 211 ° 0 min 0 W/m² 17,5 °C 19,7 °C 0,0 km/h (0 Bft)
13.08.2023 01:24 22,8 °C 19,7 °C 63 % 87 % 1017,3 hPa 0,0 l/m² 0,0 km/h (0 Bft) S-SW 211 ° 0 min 0 W/m² 17,5 °C 19,7 °C 0,0 km/h (0 Bft)
13.08.2023 01:26 22,8 °C 19,7 °C 63 % 87 % 1017,3 hPa 0,0 l/m² 0,0 km/h (0 Bft) S-SW 211 ° 0 min 0 W/m² 17,5 °C 19,7 °C 0,0 km/h (0 Bft)
13.08.2023 01:28 22,8 °C 19,6 °C 63 % 87 % 1017,3 hPa 0,0 l/m² 0,0 km/h (0 Bft) S-SW 211 ° 0 min 0 W/m² 17,4 °C 19,6 °C 0,0 km/h (0 Bft)
13.08.2023 01:30 22,8 °C 19,6 °C 63 % 87 % 1017,3 hPa 0,0 l/m² 0,0 km/h (0 Bft) S-SW 211 ° 0 min 0 W/m² 17,4 °C 19,6 °C 0,0 km/h (0 Bft)
13.08.2023 01:32 22,8 °C 19,6 °C 63 % 88 % 1017,4 hPa 0,0 l/m² 0,0 km/h (0 Bft) S-SW 211 ° 0 min 0 W/m² 17,6 °C 19,6 °C 0,0 km/h (0 Bft)
13.08.2023 01:33 22,8 °C 19,6 °C 63 % 87 % 1017,3 hPa 0,0 l/m² 0,0 km/h (0 Bft) S-SW 211 ° 0 min 0 W/m² 17,4 °C 19,6 °C 0,0 km/h (0 Bft)
13.08.2023 01:34 22,8 °C 19,6 °C 63 % 88 % 1017,3 hPa 0,0 l/m² 0,0 km/h (0 Bft) S-SW 211 ° 0 min 0 W/m² 17,6 °C 19,6 °C 0,0 km/h (0 Bft)
13.08.2023 01:36 22,8 °C 19,6 °C 63 % 88 % 1017,3 hPa 0,0 l/m² 0,0 km/h (0 Bft) S-SW 211 ° 0 min 0 W/m² 17,6 °C 19,6 °C 0,0 km/h (0 Bft)
13.08.2023 01:38 22,8 °C 19,6 °C 63 % 88 % 1017,4 hPa 0,0 l/m² 0,0 km/h (0 Bft) S-SW 211 ° 0 min 0 W/m² 17,6 °C 19,6 °C 0,0 km/h (0 Bft)
13.08.2023 01:40 22,8 °C 19,6 °C 63 % 88 % 1017,4 hPa 0,0 l/m² 0,1 km/h (0 Bft) S-SW 211 ° 0 min 0 W/m² 17,6 °C 19,6 °C 1,6 km/h (1 Bft)
13.08.2023 01:42 22,8 °C 19,6 °C 63 % 88 % 1017,4 hPa 0,0 l/m² 0,1 km/h (0 Bft) S-SW 211 ° 0 min 0 W/m² 17,6 °C 19,6 °C 1,6 km/h (1 Bft)
13.08.2023 01:43 22,8 °C 19,6 °C 63 % 88 % 1017,4 hPa 0,0 l/m² 0,0 km/h (0 Bft) S-SW 211 ° 0 min 0 W/m² 17,6 °C 19,6 °C 0,0 km/h (0 Bft)
13.08.2023 01:44 22,8 °C 19,5 °C 63 % 89 % 1017,4 hPa 0,0 l/m² 0,0 km/h (0 Bft) S-SW 211 ° 0 min 0 W/m² 17,6 °C 19,5 °C 0,0 km/h (0 Bft)
13.08.2023 01:46 22,8 °C 19,5 °C 63 % 89 % 1017,4 hPa 0,0 l/m² 0,0 km/h (0 Bft) S-SW 211 ° 0 min 0 W/m² 17,6 °C 19,5 °C 1,6 km/h (1 Bft)
13.08.2023 01:48 22,8 °C 19,5 °C 63 % 89 % 1017,4 hPa 0,0 l/m² 0,0 km/h (0 Bft) S-SW 211 ° 0 min 0 W/m² 17,6 °C 19,5 °C 0,0 km/h (0 Bft)
13.08.2023 01:50 22,8 °C 19,5 °C 63 % 89 % 1017,4 hPa 0,0 l/m² 0,0 km/h (0 Bft) S-SW 211 ° 0 min 0 W/m² 17,6 °C 19,5 °C 0,0 km/h (0 Bft)
13.08.2023 01:52 22,8 °C 19,5 °C 63 % 89 % 1017,4 hPa 0,0 l/m² 0,0 km/h (0 Bft) S-SW 211 ° 0 min 0 W/m² 17,6 °C 19,5 °C 0,0 km/h (0 Bft)
13.08.2023 01:53 22,8 °C 19,5 °C 63 % 89 % 1017,4 hPa 0,0 l/m² 0,0 km/h (0 Bft) S-SW 211 ° 0 min 0 W/m² 17,6 °C 19,5 °C 0,0 km/h (0 Bft)
13.08.2023 01:54 22,8 °C 19,5 °C 63 % 89 % 1017,4 hPa 0,0 l/m² 0,0 km/h (0 Bft) S-SW 211 ° 0 min 0 W/m² 17,6 °C 19,5 °C 0,0 km/h (0 Bft)
13.08.2023 01:56 22,8 °C 19,5 °C 63 % 89 % 1017,4 hPa 0,0 l/m² 0,0 km/h (0 Bft) S-SW 211 ° 0 min 0 W/m² 17,6 °C 19,5 °C 0,0 km/h (0 Bft)
13.08.2023 01:58 22,8 °C 19,5 °C 63 % 89 % 1017,4 hPa 0,0 l/m² 0,0 km/h (0 Bft) S-SW 211 ° 0 min 0 W/m² 17,6 °C 19,5 °C 0,0 km/h (0 Bft)
13.08.2023 02:00 22,8 °C 19,5 °C 63 % 89 % 1017,3 hPa 0,0 l/m² 0,0 km/h (0 Bft) S-SW 211 ° 0 min 0 W/m² 17,6 °C 19,5 °C 0,0 km/h (0 Bft)
13.08.2023 02:02 22,8 °C 19,5 °C 63 % 89 % 1017,3 hPa 0,0 l/m² 0,0 km/h (0 Bft) S-SW 211 ° 0 min 0 W/m² 17,6 °C 19,5 °C 0,0 km/h (0 Bft)
13.08.2023 02:03 22,8 °C 19,5 °C 63 % 89 % 1017,3 hPa 0,0 l/m² 0,0 km/h (0 Bft) S-SW 211 ° 0 min 0 W/m² 17,6 °C 19,5 °C 0,0 km/h (0 Bft)
13.08.2023 02:04 22,8 °C 19,5 °C 63 % 89 % 1017,3 hPa 0,0 l/m² 0,0 km/h (0 Bft) S-SW 211 ° 0 min 0 W/m² 17,6 °C 19,5 °C 0,0 km/h (0 Bft)
13.08.2023 02:06 22,8 °C 19,5 °C 63 % 89 % 1017,3 hPa 0,0 l/m² 0,0 km/h (0 Bft) S-SW 211 ° 0 min 0 W/m² 17,6 °C 19,5 °C 0,0 km/h (0 Bft)
13.08.2023 02:08 22,8 °C 19,5 °C 63 % 89 % 1017,4 hPa 0,0 l/m² 0,0 km/h (0 Bft) S-SW 211 ° 0 min 0 W/m² 17,6 °C 19,5 °C 0,0 km/h (0 Bft)
13.08.2023 02:10 22,8 °C 19,5 °C 63 % 89 % 1017,5 hPa 0,0 l/m² 0,0 km/h (0 Bft) S-SW 211 ° 0 min 0 W/m² 17,6 °C 19,5 °C 0,0 km/h (0 Bft)
13.08.2023 02:12 22,8 °C 19,5 °C 63 % 90 % 1017,4 hPa 0,0 l/m² 0,4 km/h (0 Bft) S-SW 211 ° 0 min 0 W/m² 17,8 °C 19,5 °C 3,2 km/h (1 Bft)
13.08.2023 02:13 22,8 °C 19,5 °C 63 % 90 % 1017,5 hPa 0,0 l/m² 2,2 km/h (1 Bft) S-SW 211 ° 0 min 0 W/m² 17,8 °C 19,5 °C 3,2 km/h (1 Bft)
13.08.2023 02:14 22,8 °C 19,5 °C 63 % 90 % 1017,5 hPa 0,0 l/m² 1,7 km/h (1 Bft) S-SW 211 ° 0 min 0 W/m² 17,8 °C 19,5 °C 3,2 km/h (1 Bft)
13.08.2023 02:16 22,8 °C 19,5 °C 63 % 90 % 1017,6 hPa 0,0 l/m² 3,2 km/h (1 Bft) S-SW 211 ° 0 min 0 W/m² 17,8 °C 19,5 °C 4,8 km/h (1 Bft)
13.08.2023 02:18 22,8 °C 19,5 °C 63 % 90 % 1017,5 hPa 0,0 l/m² 1,4 km/h (1 Bft) S-SW 211 ° 0 min 0 W/m² 17,8 °C 19,5 °C 3,2 km/h (1 Bft)
13.08.2023 02:20 22,8 °C 19,5 °C 63 % 90 % 1017,5 hPa 0,0 l/m² 0,1 km/h (0 Bft) S-SW 211 ° 0 min 0 W/m² 17,8 °C 19,5 °C 1,6 km/h (1 Bft)
13.08.2023 02:22 22,8 °C 19,4 °C 63 % 90 % 1017,4 hPa 0,0 l/m² 0,0 km/h (0 Bft) S-SW 211 ° 0 min 0 W/m² 17,7 °C 19,4 °C 0,0 km/h (0 Bft)
13.08.2023 02:23 22,8 °C 19,4 °C 63 % 90 % 1017,4 hPa 0,0 l/m² 0,1 km/h (0 Bft) S-SW 211 ° 0 min 0 W/m² 17,7 °C 19,4 °C 1,6 km/h (1 Bft)
13.08.2023 02:24 22,8 °C 19,4 °C 63 % 90 % 1017,5 hPa 0,0 l/m² 0,0 km/h (0 Bft) S-SW 211 ° 0 min 0 W/m² 17,7 °C 19,4 °C 0,0 km/h (0 Bft)
13.08.2023 02:26 22,8 °C 19,4 °C 63 % 90 % 1017,4 hPa 0,0 l/m² 0,2 km/h (0 Bft) S-SW 211 ° 0 min 0 W/m² 17,7 °C 19,4 °C 1,6 km/h (1 Bft)
13.08.2023 02:28 22,8 °C 19,4 °C 63 % 90 % 1017,5 hPa 0,0 l/m² 0,4 km/h (0 Bft) S-SW 211 ° 0 min 0 W/m² 17,7 °C 19,4 °C 3,2 km/h (1 Bft)
13.08.2023 02:30 22,8 °C 19,4 °C 63 % 90 % 1017,5 hPa 0,0 l/m² 0,8 km/h (0 Bft) SW 221 ° 0 min 0 W/m² 17,7 °C 19,4 °C 3,2 km/h (1 Bft)
13.08.2023 02:32 22,8 °C 19,4 °C 63 % 90 % 1017,5 hPa 0,0 l/m² 1,4 km/h (1 Bft) SW 226 ° 0 min 0 W/m² 17,7 °C 19,4 °C 3,2 km/h (1 Bft)
13.08.2023 02:33 22,8 °C 19,4 °C 63 % 90 % 1017,5 hPa 0,0 l/m² 0,3 km/h (0 Bft) SW 226 ° 0 min 0 W/m² 17,7 °C 19,4 °C 4,8 km/h (1 Bft)
13.08.2023 02:34 22,8 °C 19,4 °C 63 % 90 % 1017,5 hPa 0,0 l/m² 0,7 km/h (0 Bft) SW 226 ° 0 min 0 W/m² 17,7 °C 19,4 °C 3,2 km/h (1 Bft)
13.08.2023 02:36 22,8 °C 19,3 °C 63 % 90 % 1017,5 hPa 0,0 l/m² 1,4 km/h (1 Bft) W-NW 297 ° 0 min 0 W/m² 17,6 °C 19,3 °C 6,4 km/h (2 Bft)
13.08.2023 02:38 22,8 °C 19,3 °C 63 % 90 % 1017,5 hPa 0,0 l/m² 2,6 km/h (1 Bft) W-NW 294 ° 0 min 0 W/m² 17,6 °C 19,3 °C 6,4 km/h (2 Bft)
13.08.2023 02:40 22,8 °C 19,3 °C 63 % 90 % 1017,5 hPa 0,0 l/m² 3,2 km/h (1 Bft) NW 304 ° 0 min 0 W/m² 17,6 °C 19,3 °C 12,9 km/h (3 Bft)
13.08.2023 02:42 22,8 °C 19,3 °C 63 % 90 % 1017,5 hPa 0,0 l/m² 2,6 km/h (1 Bft) NW 304 ° 0 min 0 W/m² 17,6 °C 19,3 °C 6,4 km/h (2 Bft)
13.08.2023 02:43 22,8 °C 19,3 °C 63 % 90 % 1017,5 hPa 0,0 l/m² 1,1 km/h (1 Bft) NW 304 ° 0 min 0 W/m² 17,6 °C 19,3 °C 8,0 km/h (2 Bft)
13.08.2023 02:44 22,8 °C 19,3 °C 63 % 90 % 1017,5 hPa 0,0 l/m² 1,5 km/h (1 Bft) NW 305 ° 0 min 0 W/m² 17,6 °C 19,3 °C 4,8 km/h (1 Bft)
13.08.2023 02:46 22,8 °C 19,3 °C 63 % 90 % 1017,6 hPa 0,0 l/m² 0,9 km/h (0 Bft) NW 305 ° 0 min 0 W/m² 17,6 °C 19,3 °C 4,8 km/h (1 Bft)
13.08.2023 02:48 22,8 °C 19,3 °C 63 % 90 % 1017,6 hPa 0,0 l/m² 1,8 km/h (1 Bft) NW 304 ° 0 min 0 W/m² 17,6 °C 19,3 °C 4,8 km/h (1 Bft)
13.08.2023 02:50 22,8 °C 19,3 °C 63 % 90 % 1017,6 hPa 0,0 l/m² 0,7 km/h (0 Bft) NW 304 ° 0 min 0 W/m² 17,6 °C 19,3 °C 3,2 km/h (1 Bft)
13.08.2023 02:52 22,8 °C 19,3 °C 63 % 90 % 1017,6 hPa 0,0 l/m² 0,0 km/h (0 Bft) NW 304 ° 0 min 0 W/m² 17,6 °C 19,3 °C 0,0 km/h (0 Bft)
13.08.2023 02:53 22,8 °C 19,3 °C 63 % 90 % 1017,6 hPa 0,0 l/m² 0,0 km/h (0 Bft) NW 304 ° 0 min 0 W/m² 17,6 °C 19,3 °C 0,0 km/h (0 Bft)
13.08.2023 02:54 22,8 °C 19,3 °C 63 % 90 % 1017,7 hPa 0,0 l/m² 0,0 km/h (0 Bft) NW 304 ° 0 min 0 W/m² 17,6 °C 19,3 °C 0,0 km/h (0 Bft)
13.08.2023 02:56 22,8 °C 19,3 °C 63 % 90 % 1017,6 hPa 0,0 l/m² 0,0 km/h (0 Bft) NW 304 ° 0 min 0 W/m² 17,6 °C 19,3 °C 0,0 km/h (0 Bft)
13.08.2023 02:58 22,8 °C 19,3 °C 63 % 90 % 1017,7 hPa 0,0 l/m² 0,0 km/h (0 Bft) NW 304 ° 0 min 0 W/m² 17,6 °C 19,3 °C 0,0 km/h (0 Bft)
13.08.2023 03:00 22,8 °C 19,2 °C 63 % 90 % 1017,7 hPa 0,0 l/m² 0,0 km/h (0 Bft) NW 304 ° 0 min 0 W/m² 17,5 °C 19,2 °C 0,0 km/h (0 Bft)
13.08.2023 03:01 22,8 °C 19,2 °C 63 % 90 % 1017,7 hPa 0,0 l/m² 0,0 km/h (0 Bft) N 0 ° 0 min 0 W/m² 17,5 °C 19,2 °C 0,0 km/h (0 Bft)
13.08.2023 03:07 22,8 °C 19,2 °C 63 % 90 % 1017,7 hPa 0,0 l/m² 0,0 km/h (0 Bft) NW 304 ° 0 min 0 W/m² 17,5 °C 19,2 °C 0,0 km/h (0 Bft)
13.08.2023 03:08 22,8 °C 19,2 °C 63 % 90 % 1017,7 hPa 0,0 l/m² 0,0 km/h (0 Bft) NW 304 ° 0 min 0 W/m² 17,5 °C 19,2 °C 0,0 km/h (0 Bft)
13.08.2023 03:09 22,8 °C 19,2 °C 63 % 90 % 1017,7 hPa 0,0 l/m² 0,0 km/h (0 Bft) NW 304 ° 0 min 0 W/m² 17,5 °C 19,2 °C 0,0 km/h (0 Bft)
13.08.2023 03:10 22,8 °C 19,2 °C 63 % 90 % 1017,7 hPa 0,0 l/m² 0,0 km/h (0 Bft) NW 304 ° 0 min 0 W/m² 17,5 °C 19,2 °C 0,0 km/h (0 Bft)
13.08.2023 03:12 22,8 °C 19,2 °C 63 % 90 % 1017,7 hPa 0,0 l/m² 0,0 km/h (0 Bft) NW 304 ° 0 min 0 W/m² 17,5 °C 19,2 °C 0,0 km/h (0 Bft)
13.08.2023 03:13 22,8 °C 19,2 °C 63 % 90 % 1017,8 hPa 0,0 l/m² 0,0 km/h (0 Bft) NW 304 ° 0 min 0 W/m² 17,5 °C 19,2 °C 0,0 km/h (0 Bft)
13.08.2023 03:15 22,8 °C 19,2 °C 63 % 90 % 1017,8 hPa 0,0 l/m² 0,0 km/h (0 Bft) NW 304 ° 0 min 0 W/m² 17,5 °C 19,2 °C 0,0 km/h (0 Bft)
13.08.2023 03:17 22,8 °C 19,1 °C 63 % 90 % 1017,8 hPa 0,0 l/m² 0,0 km/h (0 Bft) NW 304 ° 0 min 0 W/m² 17,4 °C 19,1 °C 0,0 km/h (0 Bft)
13.08.2023 03:19 22,8 °C 19,1 °C 63 % 90 % 1017,7 hPa 0,0 l/m² 0,0 km/h (0 Bft) NW 304 ° 0 min 0 W/m² 17,4 °C 19,1 °C 0,0 km/h (0 Bft)
13.08.2023 03:20 22,8 °C 19,1 °C 63 % 90 % 1017,8 hPa 0,0 l/m² 0,0 km/h (0 Bft) NW 304 ° 0 min 0 W/m² 17,4 °C 19,1 °C 0,0 km/h (0 Bft)
13.08.2023 03:22 22,8 °C 19,1 °C 63 % 90 % 1017,8 hPa 0,0 l/m² 0,0 km/h (0 Bft) NW 304 ° 0 min 0 W/m² 17,4 °C 19,1 °C 0,0 km/h (0 Bft)
13.08.2023 03:23 22,8 °C 19,1 °C 63 % 90 % 1017,8 hPa 0,0 l/m² 0,0 km/h (0 Bft) NW 304 ° 0 min 0 W/m² 17,4 °C 19,1 °C 0,0 km/h (0 Bft)
13.08.2023 03:24 22,8 °C 19,1 °C 63 % 90 % 1017,8 hPa 0,0 l/m² 0,0 km/h (0 Bft) NW 304 ° 0 min 0 W/m² 17,4 °C 19,1 °C 0,0 km/h (0 Bft)
13.08.2023 03:25 22,8 °C 19,1 °C 63 % 90 % 1017,8 hPa 0,0 l/m² 0,0 km/h (0 Bft) NW 304 ° 0 min 0 W/m² 17,4 °C 19,1 °C 0,0 km/h (0 Bft)
13.08.2023 03:26 22,8 °C 19,1 °C 63 % 90 % 1017,9 hPa 0,0 l/m² 0,0 km/h (0 Bft) NW 304 ° 0 min 0 W/m² 17,4 °C 19,1 °C 0,0 km/h (0 Bft)
13.08.2023 03:28 22,8 °C 19,1 °C 63 % 90 % 1017,8 hPa 0,0 l/m² 0,0 km/h (0 Bft) NW 304 ° 0 min 0 W/m² 17,4 °C 19,1 °C 0,0 km/h (0 Bft)
13.08.2023 03:30 22,8 °C 19,1 °C 63 % 90 % 1017,9 hPa 0,0 l/m² 0,0 km/h (0 Bft) NW 304 ° 0 min 0 W/m² 17,4 °C 19,1 °C 0,0 km/h (0 Bft)
13.08.2023 03:31 22,8 °C 19,1 °C 63 % 90 % 1017,8 hPa 0,0 l/m² 0,0 km/h (0 Bft) NW 304 ° 0 min 0 W/m² 17,4 °C 19,1 °C 0,0 km/h (0 Bft)
13.08.2023 03:33 22,8 °C 19,0 °C 63 % 90 % 1017,8 hPa 0,0 l/m² 0,0 km/h (0 Bft) NW 304 ° 0 min 0 W/m² 17,3 °C 19,0 °C 0,0 km/h (0 Bft)
13.08.2023 03:34 22,8 °C 19,0 °C 63 % 90 % 1017,8 hPa 0,0 l/m² 0,0 km/h (0 Bft) NW 304 ° 0 min 0 W/m² 17,3 °C 19,0 °C 0,0 km/h (0 Bft)
13.08.2023 03:36 22,8 °C 18,9 °C 63 % 90 % 1017,7 hPa 0,0 l/m² 0,0 km/h (0 Bft) NW 304 ° 0 min 0 W/m² 17,2 °C 18,9 °C 0,0 km/h (0 Bft)
13.08.2023 03:38 22,8 °C 18,9 °C 63 % 90 % 1017,8 hPa 0,0 l/m² 0,0 km/h (0 Bft) NW 304 ° 0 min 0 W/m² 17,2 °C 18,9 °C 0,0 km/h (0 Bft)
13.08.2023 03:40 22,8 °C 18,9 °C 63 % 90 % 1017,8 hPa 0,0 l/m² 0,0 km/h (0 Bft) NW 304 ° 0 min 0 W/m² 17,2 °C 18,9 °C 0,0 km/h (0 Bft)
13.08.2023 03:41 22,8 °C 18,9 °C 63 % 90 % 1017,8 hPa 0,0 l/m² 0,0 km/h (0 Bft) NW 304 ° 0 min 0 W/m² 17,2 °C 18,9 °C 0,0 km/h (0 Bft)
13.08.2023 03:42 22,8 °C 18,9 °C 63 % 90 % 1017,9 hPa 0,0 l/m² 0,0 km/h (0 Bft) NW 304 ° 0 min 0 W/m² 17,2 °C 18,9 °C 0,0 km/h (0 Bft)
13.08.2023 03:44 22,8 °C 18,9 °C 63 % 90 % 1017,8 hPa 0,0 l/m² 0,0 km/h (0 Bft) NW 304 ° 0 min 0 W/m² 17,2 °C 18,9 °C 0,0 km/h (0 Bft)
13.08.2023 03:46 22,8 °C 18,8 °C 63 % 90 % 1017,8 hPa 0,0 l/m² 0,0 km/h (0 Bft) NW 304 ° 0 min 0 W/m² 17,1 °C 18,8 °C 0,0 km/h (0 Bft)
13.08.2023 03:47 22,8 °C 18,9 °C 63 % 90 % 1017,8 hPa 0,0 l/m² 0,0 km/h (0 Bft) NW 304 ° 0 min 0 W/m² 17,2 °C 18,9 °C 0,0 km/h (0 Bft)
13.08.2023 03:49 22,8 °C 18,8 °C 63 % 90 % 1017,8 hPa 0,0 l/m² 0,0 km/h (0 Bft) NW 304 ° 0 min 0 W/m² 17,1 °C 18,8 °C 0,0 km/h (0 Bft)
13.08.2023 03:50 22,8 °C 18,8 °C 63 % 90 % 1017,8 hPa 0,0 l/m² 0,0 km/h (0 Bft) NW 304 ° 0 min 0 W/m² 17,1 °C 18,8 °C 0,0 km/h (0 Bft)
13.08.2023 03:52 22,8 °C 18,8 °C 63 % 90 % 1017,8 hPa 0,0 l/m² 0,0 km/h (0 Bft) NW 304 ° 0 min 0 W/m² 17,1 °C 18,8 °C 0,0 km/h (0 Bft)
13.08.2023 03:53 22,8 °C 18,8 °C 63 % 90 % 1017,8 hPa 0,0 l/m² 0,0 km/h (0 Bft) NW 304 ° 0 min 0 W/m² 17,1 °C 18,8 °C 0,0 km/h (0 Bft)
13.08.2023 03:55 22,8 °C 18,8 °C 63 % 90 % 1017,7 hPa 0,0 l/m² 0,0 km/h (0 Bft) NW 304 ° 0 min 0 W/m² 17,1 °C 18,8 °C 0,0 km/h (0 Bft)
13.08.2023 03:57 22,8 °C 18,8 °C 63 % 90 % 1017,8 hPa 0,0 l/m² 0,0 km/h (0 Bft) NW 304 ° 0 min 0 W/m² 17,1 °C 18,8 °C 0,0 km/h (0 Bft)
13.08.2023 03:59 22,8 °C 18,7 °C 63 % 90 % 1017,8 hPa 0,0 l/m² 0,0 km/h (0 Bft) NW 304 ° 0 min 0 W/m² 17,0 °C 18,7 °C 0,0 km/h (0 Bft)
13.08.2023 04:00 22,8 °C 18,7 °C 63 % 90 % 1017,9 hPa 0,0 l/m² 0,0 km/h (0 Bft) NW 304 ° 0 min 0 W/m² 17,0 °C 18,7 °C 0,0 km/h (0 Bft)
13.08.2023 04:02 22,8 °C 18,7 °C 63 % 90 % 1017,9 hPa 0,0 l/m² 0,0 km/h (0 Bft) NW 304 ° 0 min 0 W/m² 17,0 °C 18,7 °C 0,0 km/h (0 Bft)
13.08.2023 04:03 22,8 °C 18,7 °C 63 % 90 % 1017,9 hPa 0,0 l/m² 0,0 km/h (0 Bft) NW 304 ° 0 min 0 W/m² 17,0 °C 18,7 °C 0,0 km/h (0 Bft)
13.08.2023 04:05 22,8 °C 18,6 °C 63 % 90 % 1017,9 hPa 0,0 l/m² 0,0 km/h (0 Bft) NW 304 ° 0 min 0 W/m² 16,9 °C 18,6 °C 0,0 km/h (0 Bft)
13.08.2023 04:07 22,8 °C 18,6 °C 63 % 90 % 1017,8 hPa 0,0 l/m² 0,0 km/h (0 Bft) NW 304 ° 0 min 0 W/m² 16,9 °C 18,6 °C 0,0 km/h (0 Bft)
13.08.2023 04:09 22,8 °C 18,5 °C 63 % 90 % 1017,8 hPa 0,0 l/m² 0,0 km/h (0 Bft) NW 304 ° 0 min 0 W/m² 16,8 °C 18,5 °C 0,0 km/h (0 Bft)
13.08.2023 04:10 22,8 °C 18,5 °C 63 % 90 % 1017,8 hPa 0,0 l/m² 0,0 km/h (0 Bft) NW 304 ° 0 min 0 W/m² 16,8 °C 18,5 °C 0,0 km/h (0 Bft)
13.08.2023 04:12 22,8 °C 18,4 °C 63 % 90 % 1017,9 hPa 0,0 l/m² 0,0 km/h (0 Bft) NW 304 ° 0 min 0 W/m² 16,7 °C 18,4 °C 0,0 km/h (0 Bft)
13.08.2023 04:13 22,8 °C 18,4 °C 63 % 90 % 1017,9 hPa 0,0 l/m² 0,0 km/h (0 Bft) NW 304 ° 0 min 0 W/m² 16,7 °C 18,4 °C 0,0 km/h (0 Bft)
13.08.2023 04:15 22,8 °C 18,4 °C 63 % 90 % 1017,9 hPa 0,0 l/m² 0,0 km/h (0 Bft) NW 304 ° 0 min 0 W/m² 16,7 °C 18,4 °C 0,0 km/h (0 Bft)
13.08.2023 04:17 22,8 °C 18,4 °C 63 % 90 % 1017,9 hPa 0,0 l/m² 0,0 km/h (0 Bft) NW 304 ° 0 min 0 W/m² 16,7 °C 18,4 °C 0,0 km/h (0 Bft)
13.08.2023 04:19 22,8 °C 18,3 °C 63 % 90 % 1017,9 hPa 0,0 l/m² 0,0 km/h (0 Bft) NW 304 ° 0 min 0 W/m² 16,6 °C 18,3 °C 0,0 km/h (0 Bft)
13.08.2023 04:21 22,8 °C 18,3 °C 63 % 90 % 1017,9 hPa 0,0 l/m² 0,0 km/h (0 Bft) NW 304 ° 0 min 0 W/m² 16,6 °C 18,3 °C 0,0 km/h (0 Bft)
13.08.2023 04:22 22,8 °C 18,2 °C 63 % 90 % 1017,9 hPa 0,0 l/m² 0,0 km/h (0 Bft) NW 304 ° 0 min 0 W/m² 16,5 °C 18,2 °C 0,0 km/h (0 Bft)
13.08.2023 04:23 22,7 °C 18,2 °C 63 % 90 % 1017,9 hPa 0,0 l/m² 0,0 km/h (0 Bft) NW 304 ° 0 min 0 W/m² 16,5 °C 18,2 °C 0,0 km/h (0 Bft)
13.08.2023 04:25 22,8 °C 18,2 °C 63 % 90 % 1017,9 hPa 0,0 l/m² 0,0 km/h (0 Bft) NW 304 ° 0 min 0 W/m² 16,5 °C 18,2 °C 0,0 km/h (0 Bft)
13.08.2023 04:27 22,8 °C 18,1 °C 63 % 90 % 1017,9 hPa 0,0 l/m² 0,0 km/h (0 Bft) NW 304 ° 0 min 0 W/m² 16,4 °C 18,1 °C 0,0 km/h (0 Bft)
13.08.2023 04:29 22,8 °C 18,1 °C 63 % 90 % 1017,9 hPa 0,0 l/m² 0,0 km/h (0 Bft) NW 304 ° 0 min 0 W/m² 16,4 °C 18,1 °C 0,0 km/h (0 Bft)
13.08.2023 04:31 22,7 °C 18,0 °C 63 % 90 % 1017,9 hPa 0,0 l/m² 0,0 km/h (0 Bft) NW 304 ° 0 min 0 W/m² 16,3 °C 18,0 °C 0,0 km/h (0 Bft)
13.08.2023 04:32 22,8 °C 18,0 °C 63 % 90 % 1017,9 hPa 0,0 l/m² 0,0 km/h (0 Bft) NW 304 ° 0 min 0 W/m² 16,3 °C 18,0 °C 0,0 km/h (0 Bft)
13.08.2023 04:33 22,8 °C 18,0 °C 63 % 90 % 1017,9 hPa 0,0 l/m² 0,0 km/h (0 Bft) NW 304 ° 0 min 0 W/m² 16,3 °C 18,0 °C 0,0 km/h (0 Bft)
13.08.2023 04:35 22,8 °C 17,9 °C 63 % 90 % 1017,9 hPa 0,0 l/m² 0,0 km/h (0 Bft) NW 304 ° 0 min 0 W/m² 16,2 °C 17,9 °C 0,0 km/h (0 Bft)
13.08.2023 04:37 22,8 °C 17,9 °C 63 % 90 % 1017,9 hPa 0,0 l/m² 0,0 km/h (0 Bft) NW 304 ° 0 min 0 W/m² 16,2 °C 17,9 °C 0,0 km/h (0 Bft)
13.08.2023 04:39 22,8 °C 17,9 °C 63 % 90 % 1017,9 hPa 0,0 l/m² 0,0 km/h (0 Bft) NW 304 ° 0 min 0 W/m² 16,2 °C 17,9 °C 0,0 km/h (0 Bft)
13.08.2023 04:41 22,8 °C 17,8 °C 63 % 90 % 1017,9 hPa 0,0 l/m² 0,0 km/h (0 Bft) NW 304 ° 0 min 0 W/m² 16,1 °C 17,8 °C 0,0 km/h (0 Bft)
13.08.2023 04:42 22,8 °C 17,8 °C 63 % 90 % 1017,9 hPa 0,0 l/m² 0,0 km/h (0 Bft) NW 304 ° 0 min 0 W/m² 16,1 °C 17,8 °C 0,0 km/h (0 Bft)
13.08.2023 04:43 22,8 °C 17,8 °C 63 % 90 % 1017,9 hPa 0,0 l/m² 0,0 km/h (0 Bft) NW 304 ° 0 min 0 W/m² 16,1 °C 17,8 °C 0,0 km/h (0 Bft)
13.08.2023 04:45 22,8 °C 17,7 °C 63 % 90 % 1017,9 hPa 0,0 l/m² 0,0 km/h (0 Bft) NW 304 ° 0 min 0 W/m² 16,0 °C 17,7 °C 0,0 km/h (0 Bft)
13.08.2023 04:47 22,8 °C 17,7 °C 63 % 90 % 1017,9 hPa 0,0 l/m² 0,0 km/h (0 Bft) NW 304 ° 0 min 0 W/m² 16,0 °C 17,7 °C 0,0 km/h (0 Bft)
13.08.2023 04:49 22,8 °C 17,7 °C 63 % 90 % 1017,9 hPa 0,0 l/m² 0,0 km/h (0 Bft) NW 304 ° 0 min 0 W/m² 16,0 °C 17,7 °C 0,0 km/h (0 Bft)
13.08.2023 04:51 22,7 °C 17,6 °C 63 % 90 % 1017,9 hPa 0,0 l/m² 0,0 km/h (0 Bft) NW 304 ° 0 min 0 W/m² 15,9 °C 17,6 °C 0,0 km/h (0 Bft)
13.08.2023 04:52 22,8 °C 17,6 °C 63 % 90 % 1017,9 hPa 0,0 l/m² 0,0 km/h (0 Bft) NW 304 ° 0 min 0 W/m² 15,9 °C 17,6 °C 0,0 km/h (0 Bft)
13.08.2023 04:53 22,8 °C 17,6 °C 63 % 90 % 1017,9 hPa 0,0 l/m² 0,0 km/h (0 Bft) NW 304 ° 0 min 0 W/m² 15,9 °C 17,6 °C 0,0 km/h (0 Bft)
13.08.2023 04:55 22,8 °C 17,6 °C 63 % 90 % 1017,9 hPa 0,0 l/m² 0,0 km/h (0 Bft) NW 304 ° 0 min 0 W/m² 15,9 °C 17,6 °C 0,0 km/h (0 Bft)
13.08.2023 04:57 22,8 °C 17,5 °C 63 % 90 % 1017,9 hPa 0,0 l/m² 0,0 km/h (0 Bft) NW 304 ° 0 min 0 W/m² 15,8 °C 17,5 °C 0,0 km/h (0 Bft)
13.08.2023 04:59 22,8 °C 17,4 °C 63 % 90 % 1017,9 hPa 0,0 l/m² 0,0 km/h (0 Bft) NW 304 ° 0 min 0 W/m² 15,7 °C 17,4 °C 0,0 km/h (0 Bft)
13.08.2023 05:01 22,7 °C 17,4 °C 63 % 90 % 1018,0 hPa 0,0 l/m² 0,0 km/h (0 Bft) NW 304 ° 0 min 0 W/m² 15,7 °C 17,4 °C 0,0 km/h (0 Bft)
13.08.2023 05:02 22,8 °C 17,4 °C 63 % 90 % 1018,0 hPa 0,0 l/m² 0,0 km/h (0 Bft) NW 304 ° 0 min 0 W/m² 15,7 °C 17,4 °C 0,0 km/h (0 Bft)
13.08.2023 05:03 22,8 °C 17,3 °C 63 % 90 % 1018,0 hPa 0,0 l/m² 0,0 km/h (0 Bft) NW 304 ° 0 min 0 W/m² 15,6 °C 17,3 °C 0,0 km/h (0 Bft)
13.08.2023 05:05 22,7 °C 17,3 °C 63 % 90 % 1018,0 hPa 0,0 l/m² 0,0 km/h (0 Bft) NW 304 ° 0 min 0 W/m² 15,6 °C 17,3 °C 0,0 km/h (0 Bft)
13.08.2023 05:07 22,7 °C 17,3 °C 63 % 90 % 1018,0 hPa 0,0 l/m² 0,0 km/h (0 Bft) NW 304 ° 0 min 0 W/m² 15,6 °C 17,3 °C 0,0 km/h (0 Bft)
13.08.2023 05:09 22,7 °C 17,2 °C 63 % 90 % 1018,2 hPa 0,0 l/m² 0,0 km/h (0 Bft) NW 304 ° 0 min 0 W/m² 15,5 °C 17,2 °C 1,6 km/h (1 Bft)
13.08.2023 05:11 22,8 °C 17,2 °C 63 % 90 % 1018,1 hPa 0,0 l/m² 0,4 km/h (0 Bft) NW 304 ° 0 min 0 W/m² 15,5 °C 17,2 °C 1,6 km/h (1 Bft)
13.08.2023 05:12 22,7 °C 17,2 °C 63 % 90 % 1018,1 hPa 0,0 l/m² 0,0 km/h (0 Bft) NW 304 ° 0 min 0 W/m² 15,5 °C 17,2 °C 0,0 km/h (0 Bft)
13.08.2023 05:13 22,8 °C 17,2 °C 63 % 90 % 1018,1 hPa 0,0 l/m² 0,0 km/h (0 Bft) NW 304 ° 0 min 0 W/m² 15,5 °C 17,2 °C 0,0 km/h (0 Bft)
13.08.2023 05:15 22,7 °C 17,1 °C 63 % 90 % 1018,2 hPa 0,0 l/m² 0,0 km/h (0 Bft) NW 304 ° 0 min 0 W/m² 15,4 °C 17,1 °C 0,0 km/h (0 Bft)
13.08.2023 05:17 22,7 °C 17,1 °C 63 % 90 % 1018,2 hPa 0,0 l/m² 0,0 km/h (0 Bft) NW 304 ° 0 min 0 W/m² 15,4 °C 17,1 °C 0,0 km/h (0 Bft)
13.08.2023 05:19 22,8 °C 17,1 °C 63 % 90 % 1018,1 hPa 0,0 l/m² 0,0 km/h (0 Bft) NW 304 ° 0 min 0 W/m² 15,4 °C 17,1 °C 0,0 km/h (0 Bft)
13.08.2023 05:21 22,7 °C 17,0 °C 63 % 90 % 1018,1 hPa 0,0 l/m² 0,0 km/h (0 Bft) NW 304 ° 0 min 0 W/m² 15,3 °C 17,0 °C 0,0 km/h (0 Bft)
13.08.2023 05:22 22,7 °C 16,9 °C 63 % 90 % 1018,1 hPa 0,0 l/m² 0,0 km/h (0 Bft) NW 304 ° 0 min 0 W/m² 15,2 °C 16,9 °C 0,0 km/h (0 Bft)
13.08.2023 05:23 22,7 °C 16,9 °C 63 % 90 % 1018,0 hPa 0,0 l/m² 0,0 km/h (0 Bft) NW 304 ° 0 min 0 W/m² 15,2 °C 16,9 °C 0,0 km/h (0 Bft)
13.08.2023 05:25 22,7 °C 16,8 °C 63 % 90 % 1018,0 hPa 0,0 l/m² 0,0 km/h (0 Bft) NW 304 ° 0 min 0 W/m² 15,1 °C 16,8 °C 0,0 km/h (0 Bft)
13.08.2023 05:27 22,7 °C 16,8 °C 63 % 90 % 1018,0 hPa 0,0 l/m² 0,0 km/h (0 Bft) NW 304 ° 0 min 0 W/m² 15,1 °C 16,8 °C 0,0 km/h (0 Bft)
13.08.2023 05:29 22,7 °C 16,8 °C 63 % 90 % 1017,9 hPa 0,0 l/m² 0,0 km/h (0 Bft) NW 304 ° 0 min 0 W/m² 15,1 °C 16,8 °C 0,0 km/h (0 Bft)
13.08.2023 05:31 22,7 °C 16,7 °C 63 % 90 % 1018,0 hPa 0,0 l/m² 0,0 km/h (0 Bft) NW 304 ° 0 min 0 W/m² 15,0 °C 16,7 °C 0,0 km/h (0 Bft)
13.08.2023 05:32 22,7 °C 16,7 °C 63 % 90 % 1017,9 hPa 0,0 l/m² 0,0 km/h (0 Bft) NW 304 ° 0 min 0 W/m² 15,0 °C 16,7 °C 0,0 km/h (0 Bft)
13.08.2023 05:33 22,8 °C 16,7 °C 63 % 90 % 1017,9 hPa 0,0 l/m² 0,0 km/h (0 Bft) NW 304 ° 0 min 0 W/m² 15,0 °C 16,7 °C 0,0 km/h (0 Bft)
13.08.2023 05:35 22,7 °C 16,7 °C 63 % 90 % 1018,0 hPa 0,0 l/m² 0,0 km/h (0 Bft) NW 304 ° 0 min 0 W/m² 15,0 °C 16,7 °C 0,0 km/h (0 Bft)
13.08.2023 05:37 22,7 °C 16,6 °C 63 % 90 % 1018,0 hPa 0,0 l/m² 0,0 km/h (0 Bft) NW 304 ° 0 min 0 W/m² 15,0 °C 16,6 °C 0,0 km/h (0 Bft)
13.08.2023 05:39 22,7 °C 16,6 °C 63 % 90 % 1018,0 hPa 0,0 l/m² 0,0 km/h (0 Bft) NW 304 ° 0 min 0 W/m² 15,0 °C 16,6 °C 0,0 km/h (0 Bft)
13.08.2023 05:41 22,7 °C 16,6 °C 63 % 90 % 1018,0 hPa 0,0 l/m² 0,0 km/h (0 Bft) NW 304 ° 0 min 0 W/m² 15,0 °C 16,6 °C 0,0 km/h (0 Bft)
13.08.2023 05:42 22,7 °C 16,6 °C 63 % 90 % 1018,1 hPa 0,0 l/m² 0,0 km/h (0 Bft) NW 304 ° 0 min 0 W/m² 15,0 °C 16,6 °C 0,0 km/h (0 Bft)
13.08.2023 05:43 22,7 °C 16,5 °C 63 % 90 % 1018,1 hPa 0,0 l/m² 0,0 km/h (0 Bft) NW 304 ° 0 min 0 W/m² 14,9 °C 16,5 °C 0,0 km/h (0 Bft)
13.08.2023 05:45 22,7 °C 16,5 °C 63 % 90 % 1018,1 hPa 0,0 l/m² 0,0 km/h (0 Bft) NW 304 ° 0 min 5 W/m² 14,9 °C 16,5 °C 0,0 km/h (0 Bft)
13.08.2023 05:47 22,7 °C 16,4 °C 63 % 90 % 1018,0 hPa 0,0 l/m² 0,0 km/h (0 Bft) NW 304 ° 0 min 5 W/m² 14,8 °C 16,4 °C 0,0 km/h (0 Bft)
13.08.2023 05:49 22,7 °C 16,4 °C 63 % 91 % 1018,1 hPa 0,0 l/m² 0,0 km/h (0 Bft) NW 304 ° 0 min 5 W/m² 14,9 °C 16,4 °C 0,0 km/h (0 Bft)
13.08.2023 05:51 22,7 °C 16,4 °C 63 % 91 % 1018,2 hPa 0,0 l/m² 0,0 km/h (0 Bft) NW 304 ° 0 min 0 W/m² 14,9 °C 16,4 °C 0,0 km/h (0 Bft)
13.08.2023 05:52 22,7 °C 16,3 °C 63 % 91 % 1018,2 hPa 0,0 l/m² 0,0 km/h (0 Bft) NW 304 ° 0 min 0 W/m² 14,8 °C 16,3 °C 0,0 km/h (0 Bft)
13.08.2023 05:53 22,7 °C 16,3 °C 63 % 91 % 1018,2 hPa 0,0 l/m² 0,0 km/h (0 Bft) NW 304 ° 0 min 5 W/m² 14,8 °C 16,3 °C 0,0 km/h (0 Bft)
13.08.2023 05:55 22,7 °C 16,3 °C 63 % 91 % 1018,3 hPa 0,0 l/m² 0,0 km/h (0 Bft) NW 304 ° 0 min 5 W/m² 14,8 °C 16,3 °C 0,0 km/h (0 Bft)
13.08.2023 05:57 22,7 °C 16,3 °C 63 % 91 % 1018,2 hPa 0,0 l/m² 0,0 km/h (0 Bft) NW 304 ° 0 min 5 W/m² 14,8 °C 16,3 °C 0,0 km/h (0 Bft)
13.08.2023 05:59 22,7 °C 16,3 °C 63 % 91 % 1018,2 hPa 0,0 l/m² 0,0 km/h (0 Bft) NW 304 ° 0 min 7 W/m² 14,8 °C 16,3 °C 0,0 km/h (0 Bft)
13.08.2023 06:01 22,7 °C 16,2 °C 63 % 90 % 1018,3 hPa 0,0 l/m² 0,0 km/h (0 Bft) NW 304 ° 0 min 7 W/m² 14,6 °C 16,2 °C 0,0 km/h (0 Bft)
13.08.2023 06:02 22,7 °C 16,2 °C 63 % 90 % 1018,4 hPa 0,0 l/m² 0,0 km/h (0 Bft) NW 304 ° 0 min 9 W/m² 14,6 °C 16,2 °C 0,0 km/h (0 Bft)
13.08.2023 06:03 22,7 °C 16,2 °C 63 % 91 % 1018,4 hPa 0,0 l/m² 0,0 km/h (0 Bft) NW 304 ° 0 min 9 W/m² 14,7 °C 16,2 °C 0,0 km/h (0 Bft)
13.08.2023 06:05 22,7 °C 16,2 °C 63 % 91 % 1018,4 hPa 0,0 l/m² 0,0 km/h (0 Bft) NW 304 ° 0 min 11 W/m² 14,7 °C 16,2 °C 0,0 km/h (0 Bft)
13.08.2023 06:07 22,7 °C 16,2 °C 63 % 91 % 1018,3 hPa 0,0 l/m² 0,0 km/h (0 Bft) NW 304 ° 0 min 11 W/m² 14,7 °C 16,2 °C 0,0 km/h (0 Bft)
13.08.2023 06:09 22,7 °C 16,2 °C 63 % 91 % 1018,3 hPa 0,0 l/m² 0,0 km/h (0 Bft) NW 304 ° 0 min 12 W/m² 14,7 °C 16,2 °C 0,0 km/h (0 Bft)
13.08.2023 06:11 22,7 °C 16,2 °C 63 % 91 % 1018,3 hPa 0,0 l/m² 0,0 km/h (0 Bft) NW 304 ° 0 min 14 W/m² 14,7 °C 16,2 °C 0,0 km/h (0 Bft)
13.08.2023 06:12 22,7 °C 16,2 °C 63 % 91 % 1018,2 hPa 0,0 l/m² 0,0 km/h (0 Bft) NW 304 ° 0 min 16 W/m² 14,7 °C 16,2 °C 0,0 km/h (0 Bft)
13.08.2023 06:13 22,7 °C 16,2 °C 63 % 91 % 1018,3 hPa 0,0 l/m² 0,0 km/h (0 Bft) NW 304 ° 0 min 16 W/m² 14,7 °C 16,2 °C 0,0 km/h (0 Bft)
13.08.2023 06:15 22,7 °C 16,2 °C 63 % 91 % 1018,3 hPa 0,0 l/m² 0,0 km/h (0 Bft) NW 304 ° 0 min 19 W/m² 14,7 °C 16,2 °C 0,0 km/h (0 Bft)
13.08.2023 06:17 22,7 °C 16,2 °C 63 % 92 % 1018,2 hPa 0,0 l/m² 0,0 km/h (0 Bft) NW 304 ° 0 min 21 W/m² 14,9 °C 16,2 °C 0,0 km/h (0 Bft)
13.08.2023 06:19 22,7 °C 16,2 °C 63 % 92 % 1018,2 hPa 0,0 l/m² 1,6 km/h (1 Bft) NW 304 ° 0 min 23 W/m² 14,9 °C 16,2 °C 3,2 km/h (1 Bft)
13.08.2023 06:21 22,7 °C 16,2 °C 63 % 92 % 1018,2 hPa 0,0 l/m² 0,6 km/h (0 Bft) NW 304 ° 0 min 25 W/m² 14,9 °C 16,2 °C 1,6 km/h (1 Bft)
13.08.2023 06:22 22,7 °C 16,1 °C 63 % 92 % 1018,3 hPa 0,0 l/m² 0,0 km/h (0 Bft) NW 304 ° 0 min 25 W/m² 14,8 °C 16,1 °C 0,0 km/h (0 Bft)
13.08.2023 06:23 22,7 °C 16,2 °C 63 % 92 % 1018,4 hPa 0,0 l/m² 0,0 km/h (0 Bft) NW 304 ° 0 min 26 W/m² 14,9 °C 16,2 °C 0,0 km/h (0 Bft)
13.08.2023 06:25 22,7 °C 16,2 °C 63 % 92 % 1018,3 hPa 0,0 l/m² 0,0 km/h (0 Bft) NW 304 ° 0 min 26 W/m² 14,9 °C 16,2 °C 0,0 km/h (0 Bft)
13.08.2023 06:27 22,7 °C 16,1 °C 63 % 92 % 1018,3 hPa 0,0 l/m² 0,0 km/h (0 Bft) NW 304 ° 0 min 25 W/m² 14,8 °C 16,1 °C 0,0 km/h (0 Bft)
13.08.2023 06:29 22,7 °C 16,1 °C 63 % 92 % 1018,3 hPa 0,0 l/m² 0,0 km/h (0 Bft) NW 304 ° 0 min 25 W/m² 14,8 °C 16,1 °C 0,0 km/h (0 Bft)
13.08.2023 06:31 22,7 °C 16,1 °C 63 % 92 % 1018,3 hPa 0,0 l/m² 0,0 km/h (0 Bft) NW 304 ° 0 min 23 W/m² 14,8 °C 16,1 °C 0,0 km/h (0 Bft)
13.08.2023 06:32 22,7 °C 16,1 °C 63 % 92 % 1018,2 hPa 0,0 l/m² 0,0 km/h (0 Bft) NW 304 ° 0 min 23 W/m² 14,8 °C 16,1 °C 0,0 km/h (0 Bft)
13.08.2023 06:33 22,7 °C 16,1 °C 63 % 92 % 1018,2 hPa 0,0 l/m² 0,0 km/h (0 Bft) NW 304 ° 0 min 23 W/m² 14,8 °C 16,1 °C 0,0 km/h (0 Bft)
13.08.2023 06:35 22,7 °C 16,1 °C 63 % 92 % 1018,3 hPa 0,0 l/m² 0,0 km/h (0 Bft) NW 304 ° 0 min 25 W/m² 14,8 °C 16,1 °C 0,0 km/h (0 Bft)
13.08.2023 06:37 22,7 °C 16,1 °C 63 % 92 % 1018,2 hPa 0,0 l/m² 0,0 km/h (0 Bft) NW 304 ° 0 min 28 W/m² 14,8 °C 16,1 °C 0,0 km/h (0 Bft)
13.08.2023 06:39 22,7 °C 16,1 °C 63 % 92 % 1018,2 hPa 0,0 l/m² 0,0 km/h (0 Bft) NW 304 ° 0 min 30 W/m² 14,8 °C 16,1 °C 0,0 km/h (0 Bft)
13.08.2023 06:41 22,7 °C 16,1 °C 63 % 92 % 1018,3 hPa 0,0 l/m² 0,0 km/h (0 Bft) NW 304 ° 0 min 32 W/m² 14,8 °C 16,1 °C 0,0 km/h (0 Bft)
13.08.2023 06:42 22,7 °C 16,1 °C 63 % 92 % 1018,3 hPa 0,0 l/m² 0,0 km/h (0 Bft) NW 304 ° 0 min 33 W/m² 14,8 °C 16,1 °C 0,0 km/h (0 Bft)
13.08.2023 06:43 22,7 °C 16,1 °C 63 % 92 % 1018,3 hPa 0,0 l/m² 0,0 km/h (0 Bft) NW 304 ° 0 min 35 W/m² 14,8 °C 16,1 °C 0,0 km/h (0 Bft)
13.08.2023 06:45 22,7 °C 16,1 °C 63 % 92 % 1018,3 hPa 0,0 l/m² 0,0 km/h (0 Bft) NW 304 ° 0 min 37 W/m² 14,8 °C 16,1 °C 0,0 km/h (0 Bft)
13.08.2023 06:47 22,7 °C 16,1 °C 63 % 92 % 1018,3 hPa 0,0 l/m² 0,0 km/h (0 Bft) NW 304 ° 0 min 39 W/m² 14,8 °C 16,1 °C 0,0 km/h (0 Bft)
13.08.2023 06:48 22,7 °C 16,1 °C 63 % 92 % 1018,3 hPa 0,0 l/m² 0,0 km/h (0 Bft) NW 304 ° 0 min 40 W/m² 14,8 °C 16,1 °C 0,0 km/h (0 Bft)
13.08.2023 06:50 22,7 °C 16,1 °C 63 % 92 % 1018,3 hPa 0,0 l/m² 0,0 km/h (0 Bft) NW 304 ° 0 min 42 W/m² 14,8 °C 16,1 °C 0,0 km/h (0 Bft)
13.08.2023 06:51 22,7 °C 16,1 °C 63 % 93 % 1018,3 hPa 0,0 l/m² 0,0 km/h (0 Bft) NW 304 ° 0 min 42 W/m² 15,0 °C 16,1 °C 0,0 km/h (0 Bft)
13.08.2023 06:52 22,7 °C 16,1 °C 63 % 93 % 1018,3 hPa 0,0 l/m² 0,0 km/h (0 Bft) NW 304 ° 0 min 42 W/m² 15,0 °C 16,1 °C 0,0 km/h (0 Bft)
13.08.2023 06:53 22,7 °C 16,1 °C 63 % 93 % 1018,3 hPa 0,0 l/m² 0,0 km/h (0 Bft) NW 304 ° 0 min 42 W/m² 15,0 °C 16,1 °C 0,0 km/h (0 Bft)
13.08.2023 06:55 22,7 °C 16,1 °C 63 % 93 % 1018,4 hPa 0,0 l/m² 0,0 km/h (0 Bft) NW 304 ° 0 min 42 W/m² 15,0 °C 16,1 °C 0,0 km/h (0 Bft)
13.08.2023 06:57 22,7 °C 16,1 °C 63 % 93 % 1018,4 hPa 0,0 l/m² 0,0 km/h (0 Bft) NW 304 ° 0 min 44 W/m² 15,0 °C 16,1 °C 0,0 km/h (0 Bft)
13.08.2023 06:59 22,7 °C 16,1 °C 63 % 93 % 1018,3 hPa 0,0 l/m² 0,0 km/h (0 Bft) NW 304 ° 0 min 46 W/m² 15,0 °C 16,1 °C 0,0 km/h (0 Bft)
13.08.2023 07:01 22,7 °C 16,1 °C 63 % 93 % 1018,3 hPa 0,0 l/m² 0,0 km/h (0 Bft) W-NW 298 ° 0 min 47 W/m² 15,0 °C 16,1 °C 0,0 km/h (0 Bft)
13.08.2023 07:02 22,7 °C 16,1 °C 63 % 93 % 1018,3 hPa 0,0 l/m² 0,0 km/h (0 Bft) W-NW 298 ° 0 min 47 W/m² 15,0 °C 16,1 °C 0,0 km/h (0 Bft)
13.08.2023 07:03 22,7 °C 16,1 °C 63 % 93 % 1018,3 hPa 0,0 l/m² 0,0 km/h (0 Bft) W-NW 298 ° 0 min 47 W/m² 15,0 °C 16,1 °C 0,0 km/h (0 Bft)
13.08.2023 07:05 22,7 °C 16,2 °C 63 % 93 % 1018,3 hPa 0,0 l/m² 0,0 km/h (0 Bft) W-NW 298 ° 0 min 47 W/m² 15,1 °C 16,2 °C 0,0 km/h (0 Bft)
13.08.2023 07:07 22,7 °C 16,2 °C 63 % 93 % 1018,4 hPa 0,0 l/m² 0,0 km/h (0 Bft) W-NW 298 ° 0 min 46 W/m² 15,1 °C 16,2 °C 0,0 km/h (0 Bft)
13.08.2023 07:09 22,7 °C 16,2 °C 63 % 93 % 1018,4 hPa 0,0 l/m² 0,0 km/h (0 Bft) W-NW 298 ° 0 min 46 W/m² 15,1 °C 16,2 °C 0,0 km/h (0 Bft)
13.08.2023 07:11 22,7 °C 16,2 °C 63 % 93 % 1018,4 hPa 0,0 l/m² 0,0 km/h (0 Bft) W-NW 298 ° 0 min 46 W/m² 15,1 °C 16,2 °C 0,0 km/h (0 Bft)
13.08.2023 07:12 22,7 °C 16,2 °C 63 % 93 % 1018,4 hPa 0,0 l/m² 0,0 km/h (0 Bft) W-NW 298 ° 0 min 47 W/m² 15,1 °C 16,2 °C 0,0 km/h (0 Bft)
13.08.2023 07:13 22,7 °C 16,3 °C 63 % 93 % 1018,4 hPa 0,0 l/m² 0,0 km/h (0 Bft) W-NW 298 ° 0 min 46 W/m² 15,2 °C 16,3 °C 0,0 km/h (0 Bft)
13.08.2023 07:15 22,7 °C 16,3 °C 63 % 93 % 1018,4 hPa 0,0 l/m² 0,0 km/h (0 Bft) W-NW 298 ° 0 min 44 W/m² 15,2 °C 16,3 °C 0,0 km/h (0 Bft)
13.08.2023 07:17 22,7 °C 16,3 °C 63 % 93 % 1018,3 hPa 0,0 l/m² 0,0 km/h (0 Bft) W-NW 298 ° 0 min 42 W/m² 15,2 °C 16,3 °C 0,0 km/h (0 Bft)
13.08.2023 07:19 22,7 °C 16,3 °C 63 % 93 % 1018,2 hPa 0,0 l/m² 0,0 km/h (0 Bft) W-NW 298 ° 0 min 44 W/m² 15,2 °C 16,3 °C 0,0 km/h (0 Bft)
13.08.2023 07:21 22,7 °C 16,3 °C 63 % 93 % 1018,3 hPa 0,0 l/m² 0,0 km/h (0 Bft) W-NW 298 ° 0 min 49 W/m² 15,2 °C 16,3 °C 0,0 km/h (0 Bft)
13.08.2023 07:22 22,7 °C 16,4 °C 63 % 93 % 1018,3 hPa 0,0 l/m² 0,0 km/h (0 Bft) W-NW 298 ° 1 min 53 W/m² 15,3 °C 16,4 °C 0,0 km/h (0 Bft)
13.08.2023 07:23 22,7 °C 16,4 °C 63 % 93 % 1018,3 hPa 0,0 l/m² 0,0 km/h (0 Bft) W-NW 298 ° 1 min 62 W/m² 15,3 °C 16,4 °C 0,0 km/h (0 Bft)
13.08.2023 07:25 22,7 °C 16,4 °C 63 % 93 % 1018,2 hPa 0,0 l/m² 0,0 km/h (0 Bft) W-NW 298 ° 2 min 100 W/m² 15,3 °C 16,4 °C 0,0 km/h (0 Bft)
13.08.2023 07:27 22,7 °C 16,5 °C 63 % 94 % 1018,4 hPa 0,0 l/m² 0,0 km/h (0 Bft) W-NW 298 ° 2 min 121 W/m² 15,5 °C 16,5 °C 0,0 km/h (0 Bft)
13.08.2023 07:29 22,7 °C 16,6 °C 63 % 94 % 1018,4 hPa 0,0 l/m² 0,0 km/h (0 Bft) W-NW 298 ° 2 min 77 W/m² 15,6 °C 16,6 °C 0,0 km/h (0 Bft)
13.08.2023 07:31 22,7 °C 16,7 °C 63 % 94 % 1018,3 hPa 0,0 l/m² 0,0 km/h (0 Bft) W-NW 298 ° 2 min 69 W/m² 15,7 °C 16,7 °C 0,0 km/h (0 Bft)
13.08.2023 07:32 22,7 °C 16,7 °C 63 % 94 % 1018,3 hPa 0,0 l/m² 0,0 km/h (0 Bft) W-NW 298 ° 1 min 72 W/m² 15,7 °C 16,7 °C 0,0 km/h (0 Bft)
13.08.2023 07:33 22,7 °C 16,7 °C 63 % 94 % 1018,3 hPa 0,0 l/m² 0,0 km/h (0 Bft) W-NW 298 ° 1 min 81 W/m² 15,7 °C 16,7 °C 0,0 km/h (0 Bft)
13.08.2023 07:35 22,7 °C 16,7 °C 63 % 94 % 1018,3 hPa 0,0 l/m² 0,3 km/h (0 Bft) W-NW 298 ° 2 min 109 W/m² 15,7 °C 16,7 °C 1,6 km/h (1 Bft)
13.08.2023 07:37 22,7 °C 16,8 °C 63 % 94 % 1018,3 hPa 0,0 l/m² 1,4 km/h (1 Bft) W-NW 298 ° 2 min 60 W/m² 15,8 °C 16,8 °C 3,2 km/h (1 Bft)
13.08.2023 07:39 22,7 °C 16,8 °C 63 % 94 % 1018,3 hPa 0,0 l/m² 1,0 km/h (0 Bft) W-NW 298 ° 2 min 109 W/m² 15,8 °C 16,8 °C 1,6 km/h (1 Bft)
13.08.2023 07:41 22,7 °C 16,8 °C 63 % 94 % 1018,3 hPa 0,0 l/m² 1,0 km/h (0 Bft) W-NW 299 ° 2 min 58 W/m² 15,8 °C 16,8 °C 3,2 km/h (1 Bft)
13.08.2023 07:42 22,7 °C 16,8 °C 63 % 94 % 1018,3 hPa 0,0 l/m² 0,6 km/h (0 Bft) W-NW 299 ° 1 min 79 W/m² 15,8 °C 16,8 °C 1,6 km/h (1 Bft)
13.08.2023 07:43 22,7 °C 16,8 °C 63 % 94 % 1018,3 hPa 0,0 l/m² 0,6 km/h (0 Bft) W-NW 299 ° 1 min 95 W/m² 15,8 °C 16,8 °C 3,2 km/h (1 Bft)
13.08.2023 07:44 22,7 °C 16,8 °C 63 % 94 % 1018,3 hPa 0,0 l/m² 1,5 km/h (1 Bft) W-NW 300 ° 1 min 72 W/m² 15,8 °C 16,8 °C 3,2 km/h (1 Bft)
13.08.2023 07:45 22,7 °C 16,8 °C 63 % 94 % 1018,3 hPa 0,0 l/m² 1,5 km/h (1 Bft) W-NW 300 ° 1 min 165 W/m² 15,8 °C 16,8 °C 3,2 km/h (1 Bft)
13.08.2023 07:47 22,7 °C 16,9 °C 63 % 94 % 1018,3 hPa 0,0 l/m² 3,0 km/h (1 Bft) W-NW 301 ° 2 min 98 W/m² 15,9 °C 16,9 °C 4,8 km/h (1 Bft)
13.08.2023 07:49 22,7 °C 16,9 °C 63 % 94 % 1018,3 hPa 0,0 l/m² 3,1 km/h (1 Bft) NW 305 ° 2 min 197 W/m² 15,9 °C 16,9 °C 6,4 km/h (2 Bft)
13.08.2023 07:51 22,7 °C 17,1 °C 63 % 94 % 1018,3 hPa 0,0 l/m² 3,1 km/h (1 Bft) NW 306 ° 2 min 130 W/m² 16,1 °C 17,1 °C 4,8 km/h (1 Bft)
13.08.2023 07:52 22,7 °C 17,1 °C 63 % 94 % 1018,3 hPa 0,0 l/m² 2,5 km/h (1 Bft) NW 307 ° 1 min 128 W/m² 16,1 °C 17,1 °C 4,8 km/h (1 Bft)
13.08.2023 07:53 22,7 °C 17,1 °C 63 % 94 % 1018,3 hPa 0,0 l/m² 2,7 km/h (1 Bft) NW 309 ° 1 min 214 W/m² 16,1 °C 17,1 °C 4,8 km/h (1 Bft)
13.08.2023 07:55 22,7 °C 17,2 °C 63 % 94 % 1018,3 hPa 0,0 l/m² 3,7 km/h (1 Bft) N-NW 342 ° 2 min 218 W/m² 16,2 °C 17,2 °C 4,8 km/h (1 Bft)
13.08.2023 07:57 22,7 °C 17,2 °C 63 % 94 % 1018,3 hPa 0,0 l/m² 2,4 km/h (1 Bft) N-NW 345 ° 2 min 218 W/m² 16,2 °C 17,2 °C 6,4 km/h (2 Bft)
13.08.2023 07:59 22,7 °C 17,3 °C 63 % 94 % 1018,3 hPa 0,0 l/m² 1,6 km/h (1 Bft) N-NW 346 ° 2 min 207 W/m² 16,3 °C 17,3 °C 4,8 km/h (1 Bft)
13.08.2023 08:01 22,7 °C 17,4 °C 63 % 94 % 1018,2 hPa 0,0 l/m² 2,5 km/h (1 Bft) N-NW 348 ° 2 min 167 W/m² 16,4 °C 17,4 °C 4,8 km/h (1 Bft)
13.08.2023 08:02 22,7 °C 17,5 °C 63 % 95 % 1018,3 hPa 0,0 l/m² 2,0 km/h (1 Bft) N-NW 348 ° 1 min 83 W/m² 16,7 °C 17,5 °C 3,2 km/h (1 Bft)
13.08.2023 08:03 22,7 °C 17,6 °C 63 % 95 % 1018,2 hPa 0,0 l/m² 1,6 km/h (1 Bft) N-NW 348 ° 1 min 86 W/m² 16,8 °C 17,6 °C 3,2 km/h (1 Bft)
13.08.2023 08:05 22,7 °C 17,6 °C 63 % 95 % 1018,3 hPa 0,0 l/m² 0,6 km/h (0 Bft) N-NW 348 ° 2 min 218 W/m² 16,8 °C 17,6 °C 3,2 km/h (1 Bft)
13.08.2023 08:07 22,7 °C 17,7 °C 63 % 94 % 1018,2 hPa 0,0 l/m² 0,8 km/h (0 Bft) N-NW 348 ° 2 min 211 W/m² 16,7 °C 17,7 °C 3,2 km/h (1 Bft)
13.08.2023 08:09 22,7 °C 17,8 °C 63 % 95 % 1018,3 hPa 0,0 l/m² 0,9 km/h (0 Bft) N-NW 348 ° 2 min 211 W/m² 17,0 °C 17,8 °C 3,2 km/h (1 Bft)
13.08.2023 08:11 22,7 °C 17,9 °C 63 % 95 % 1018,3 hPa 0,0 l/m² 0,7 km/h (0 Bft) N-NW 348 ° 2 min 251 W/m² 17,1 °C 17,9 °C 3,2 km/h (1 Bft)
13.08.2023 08:12 22,7 °C 18,0 °C 63 % 95 % 1018,4 hPa 0,0 l/m² 2,4 km/h (1 Bft) N-NW 348 ° 1 min 290 W/m² 17,2 °C 18,0 °C 4,8 km/h (1 Bft)
13.08.2023 08:13 22,7 °C 18,1 °C 63 % 95 % 1018,3 hPa 0,0 l/m² 1,0 km/h (0 Bft) N-NW 348 ° 1 min 285 W/m² 17,3 °C 18,1 °C 3,2 km/h (1 Bft)
13.08.2023 08:15 22,7 °C 18,2 °C 63 % 95 % 1018,3 hPa 0,0 l/m² 1,8 km/h (1 Bft) N-NW 348 ° 2 min 290 W/m² 17,4 °C 18,2 °C 4,8 km/h (1 Bft)
13.08.2023 08:17 22,7 °C 18,3 °C 63 % 95 % 1018,3 hPa 0,0 l/m² 0,9 km/h (0 Bft) N-NW 348 ° 2 min 274 W/m² 17,5 °C 18,3 °C 3,2 km/h (1 Bft)
13.08.2023 08:19 22,7 °C 18,5 °C 63 % 95 % 1018,3 hPa 0,0 l/m² 1,3 km/h (1 Bft) N-NW 348 ° 2 min 251 W/m² 17,7 °C 18,5 °C 3,2 km/h (1 Bft)
13.08.2023 08:21 22,7 °C 18,6 °C 63 % 95 % 1018,3 hPa 0,0 l/m² 0,6 km/h (0 Bft) N-NW 348 ° 2 min 230 W/m² 17,8 °C 18,6 °C 3,2 km/h (1 Bft)
13.08.2023 08:22 22,7 °C 18,7 °C 63 % 95 % 1018,3 hPa 0,0 l/m² 0,0 km/h (0 Bft) N-NW 348 ° 1 min 188 W/m² 17,9 °C 18,7 °C 0,0 km/h (0 Bft)
13.08.2023 08:23 22,7 °C 18,7 °C 63 % 95 % 1018,3 hPa 0,0 l/m² 0,1 km/h (0 Bft) N-NW 348 ° 1 min 148 W/m² 17,9 °C 18,7 °C 1,6 km/h (1 Bft)
13.08.2023 08:25 22,7 °C 18,8 °C 63 % 95 % 1018,2 hPa 0,0 l/m² 0,0 km/h (0 Bft) N-NW 348 ° 2 min 163 W/m² 18,0 °C 18,8 °C 0,0 km/h (0 Bft)
13.08.2023 08:27 22,7 °C 18,8 °C 63 % 94 % 1018,3 hPa 0,0 l/m² 0,0 km/h (0 Bft) N-NW 348 ° 2 min 142 W/m² 17,8 °C 18,8 °C 0,0 km/h (0 Bft)
13.08.2023 08:29 22,7 °C 18,9 °C 63 % 94 % 1018,3 hPa 0,0 l/m² 0,2 km/h (0 Bft) N-NW 348 ° 2 min 160 W/m² 17,9 °C 18,9 °C 1,6 km/h (1 Bft)
13.08.2023 08:31 22,7 °C 18,9 °C 63 % 94 % 1018,3 hPa 0,0 l/m² 0,0 km/h (0 Bft) N-NW 348 ° 2 min 155 W/m² 17,9 °C 18,9 °C 0,0 km/h (0 Bft)
13.08.2023 08:32 22,7 °C 19,0 °C 63 % 94 % 1018,4 hPa 0,0 l/m² 0,0 km/h (0 Bft) N-NW 348 ° 1 min 169 W/m² 18,0 °C 19,0 °C 0,0 km/h (0 Bft)
13.08.2023 08:33 22,7 °C 19,1 °C 63 % 94 % 1018,4 hPa 0,0 l/m² 0,0 km/h (0 Bft) N-NW 348 ° 1 min 229 W/m² 18,1 °C 19,1 °C 0,0 km/h (0 Bft)
13.08.2023 08:35 22,7 °C 19,1 °C 63 % 94 % 1018,4 hPa 0,0 l/m² 0,1 km/h (0 Bft) N-NW 348 ° 2 min 258 W/m² 18,1 °C 19,1 °C 1,6 km/h (1 Bft)
13.08.2023 08:37 22,7 °C 19,2 °C 63 % 94 % 1018,4 hPa 0,0 l/m² 0,0 km/h (0 Bft) N-NW 348 ° 2 min 283 W/m² 18,2 °C 19,2 °C 1,6 km/h (1 Bft)
13.08.2023 08:39 22,7 °C 19,3 °C 63 % 93 % 1018,4 hPa 0,0 l/m² 0,4 km/h (0 Bft) N-NW 348 ° 2 min 281 W/m² 18,1 °C 19,3 °C 1,6 km/h (1 Bft)
13.08.2023 08:41 22,7 °C 19,4 °C 63 % 93 % 1018,4 hPa 0,0 l/m² 1,7 km/h (1 Bft) N-NW 348 ° 2 min 237 W/m² 18,2 °C 19,4 °C 4,8 km/h (1 Bft)
13.08.2023 08:42 22,8 °C 19,4 °C 63 % 93 % 1018,5 hPa 0,0 l/m² 3,0 km/h (1 Bft) N-NW 348 ° 1 min 246 W/m² 18,2 °C 19,4 °C 4,8 km/h (1 Bft)
13.08.2023 08:43 22,8 °C 19,4 °C 63 % 93 % 1018,5 hPa 0,0 l/m² 2,7 km/h (1 Bft) N-NW 348 ° 1 min 229 W/m² 18,2 °C 19,4 °C 4,8 km/h (1 Bft)
13.08.2023 08:45 22,8 °C 19,6 °C 63 % 92 % 1018,4 hPa 0,0 l/m² 2,3 km/h (1 Bft) N-NW 348 ° 2 min 214 W/m² 18,3 °C 19,6 °C 4,8 km/h (1 Bft)
13.08.2023 08:47 22,8 °C 19,7 °C 63 % 92 % 1018,5 hPa 0,0 l/m² 2,0 km/h (1 Bft) N-NW 348 ° 2 min 169 W/m² 18,4 °C 19,7 °C 4,8 km/h (1 Bft)
13.08.2023 08:49 22,8 °C 19,8 °C 64 % 91 % 1018,4 hPa 0,0 l/m² 3,7 km/h (1 Bft) N-NW 348 ° 2 min 162 W/m² 18,3 °C 19,8 °C 6,4 km/h (2 Bft)
13.08.2023 08:50 22,8 °C 19,8 °C 64 % 91 % 1018,3 hPa 0,0 l/m² 0,8 km/h (0 Bft) N-NW 348 ° 1 min 162 W/m² 18,3 °C 19,8 °C 1,6 km/h (1 Bft)
13.08.2023 08:52 22,8 °C 19,8 °C 64 % 91 % 1018,4 hPa 0,0 l/m² 1,5 km/h (1 Bft) N-NW 348 ° 2 min 174 W/m² 18,3 °C 19,8 °C 3,2 km/h (1 Bft)
13.08.2023 08:53 22,8 °C 19,9 °C 64 % 91 % 1018,4 hPa 0,0 l/m² 2,1 km/h (1 Bft) N-NW 348 ° 1 min 179 W/m² 18,4 °C 19,9 °C 3,2 km/h (1 Bft)
13.08.2023 08:55 22,8 °C 20,0 °C 64 % 90 % 1018,5 hPa 0,0 l/m² 0,5 km/h (0 Bft) N-NW 348 ° 2 min 211 W/m² 18,3 °C 20,0 °C 3,2 km/h (1 Bft)
13.08.2023 08:57 22,8 °C 20,1 °C 64 % 89 % 1018,4 hPa 0,0 l/m² 1,9 km/h (1 Bft) N-NW 348 ° 2 min 204 W/m² 18,2 °C 20,1 °C 3,2 km/h (1 Bft)
13.08.2023 08:59 22,8 °C 20,1 °C 64 % 89 % 1018,4 hPa 0,0 l/m² 0,7 km/h (0 Bft) N-NW 348 ° 2 min 413 W/m² 18,2 °C 20,1 °C 3,2 km/h (1 Bft)
13.08.2023 09:00 22,8 °C 20,2 °C 64 % 89 % 1018,4 hPa 0,0 l/m² 0,0 km/h (0 Bft) N-NW 348 ° 1 min 403 W/m² 18,3 °C 20,2 °C 0,0 km/h (0 Bft)
13.08.2023 09:02 22,9 °C 20,3 °C 64 % 89 % 1018,4 hPa 0,0 l/m² 0,4 km/h (0 Bft) N-NW 348 ° 2 min 403 W/m² 18,4 °C 20,3 °C 1,6 km/h (1 Bft)
13.08.2023 09:03 22,9 °C 20,3 °C 64 % 88 % 1018,4 hPa 0,0 l/m² 0,1 km/h (0 Bft) N-NW 348 ° 1 min 387 W/m² 18,2 °C 20,3 °C 1,6 km/h (1 Bft)
13.08.2023 09:05 22,9 °C 20,4 °C 64 % 88 % 1018,3 hPa 0,0 l/m² 0,0 km/h (0 Bft) N-NW 348 ° 2 min 392 W/m² 18,3 °C 20,4 °C 0,0 km/h (0 Bft)
13.08.2023 09:07 22,9 °C 20,6 °C 64 % 87 % 1018,4 hPa 0,0 l/m² 1,9 km/h (1 Bft) N-NW 348 ° 2 min 410 W/m² 18,4 °C 20,6 °C 4,8 km/h (1 Bft)
13.08.2023 09:09 22,9 °C 20,7 °C 64 % 86 % 1018,3 hPa 0,0 l/m² 3,0 km/h (1 Bft) N-NW 348 ° 2 min 378 W/m² 18,3 °C 20,7 °C 4,8 km/h (1 Bft)
13.08.2023 09:10 22,9 °C 20,8 °C 64 % 85 % 1018,3 hPa 0,0 l/m² 2,1 km/h (1 Bft) N-NW 348 ° 1 min 360 W/m² 18,2 °C 20,8 °C 4,8 km/h (1 Bft)
13.08.2023 09:12 22,9 °C 20,9 °C 64 % 84 % 1018,4 hPa 0,0 l/m² 3,8 km/h (1 Bft) N-NW 348 ° 2 min 396 W/m² 18,1 °C 20,9 °C 6,4 km/h (2 Bft)
13.08.2023 09:14 22,9 °C 21,1 °C 64 % 83 % 1018,4 hPa 0,0 l/m² 1,7 km/h (1 Bft) N-NW 348 ° 2 min 380 W/m² 18,1 °C 21,1 °C 4,8 km/h (1 Bft)
13.08.2023 09:16 23,0 °C 21,2 °C 64 % 83 % 1018,4 hPa 0,0 l/m² 1,7 km/h (1 Bft) N-NW 348 ° 2 min 431 W/m² 18,2 °C 21,2 °C 4,8 km/h (1 Bft)
13.08.2023 09:18 23,0 °C 21,3 °C 64 % 81 % 1018,4 hPa 0,0 l/m² 1,5 km/h (1 Bft) N-NW 348 ° 2 min 418 W/m² 17,9 °C 21,3 °C 3,2 km/h (1 Bft)
13.08.2023 09:20 23,0 °C 21,5 °C 64 % 81 % 1018,4 hPa 0,0 l/m² 5,3 km/h (1 Bft) S 171 ° 2 min 401 W/m² 18,1 °C 21,5 °C 11,3 km/h (2 Bft)
13.08.2023 09:21 23,0 °C 21,6 °C 64 % 80 % 1018,4 hPa 0,0 l/m² 2,8 km/h (1 Bft) S 171 ° 1 min 387 W/m² 18,0 °C 21,6 °C 6,4 km/h (2 Bft)
13.08.2023 09:22 23,0 °C 21,7 °C 64 % 80 % 1018,4 hPa 0,0 l/m² 0,3 km/h (0 Bft) S 171 ° 1 min 383 W/m² 18,1 °C 21,7 °C 1,6 km/h (1 Bft)
13.08.2023 09:23 23,0 °C 21,7 °C 64 % 80 % 1018,4 hPa 0,0 l/m² 0,0 km/h (0 Bft) S 171 ° 1 min 338 W/m² 18,1 °C 21,7 °C 0,0 km/h (0 Bft)
13.08.2023 09:24 23,0 °C 21,8 °C 64 % 79 % 1018,5 hPa 0,0 l/m² 0,0 km/h (0 Bft) S 171 ° 1 min 378 W/m² 18,0 °C 21,8 °C 0,0 km/h (0 Bft)
13.08.2023 09:26 23,0 °C 21,8 °C 64 % 79 % 1018,5 hPa 0,0 l/m² 0,0 km/h (0 Bft) S 171 ° 2 min 406 W/m² 18,0 °C 21,8 °C 0,0 km/h (0 Bft)
13.08.2023 09:28 23,0 °C 21,9 °C 64 % 78 % 1018,4 hPa 0,0 l/m² 3,1 km/h (1 Bft) S 171 ° 2 min 388 W/m² 17,9 °C 21,9 °C 8,0 km/h (2 Bft)
13.08.2023 09:30 23,0 °C 22,1 °C 64 % 78 % 1018,5 hPa 0,0 l/m² 2,7 km/h (1 Bft) S 171 ° 2 min 487 W/m² 18,1 °C 22,1 °C 6,4 km/h (2 Bft)
13.08.2023 09:31 23,0 °C 22,2 °C 64 % 78 % 1018,4 hPa 0,0 l/m² 4,1 km/h (1 Bft) S 171 ° 1 min 517 W/m² 18,2 °C 22,2 °C 6,4 km/h (2 Bft)
13.08.2023 09:32 23,1 °C 22,2 °C 64 % 78 % 1018,4 hPa 0,0 l/m² 4,3 km/h (1 Bft) S 171 ° 1 min 527 W/m² 18,2 °C 22,2 °C 6,4 km/h (2 Bft)
13.08.2023 09:34 23,1 °C 22,3 °C 64 % 78 % 1018,5 hPa 0,0 l/m² 3,4 km/h (1 Bft) S 171 ° 2 min 510 W/m² 18,3 °C 22,3 °C 6,4 km/h (2 Bft)
13.08.2023 09:35 23,0 °C 22,4 °C 64 % 78 % 1018,5 hPa 0,0 l/m² 4,4 km/h (1 Bft) S-SO 150 ° 1 min 439 W/m² 18,4 °C 22,4 °C 6,4 km/h (2 Bft)
13.08.2023 09:37 23,1 °C 22,6 °C 64 % 77 % 1018,5 hPa 0,0 l/m² 3,6 km/h (1 Bft) S 180 ° 2 min 392 W/m² 18,4 °C 22,6 °C 9,7 km/h (2 Bft)
13.08.2023 09:39 23,1 °C 22,6 °C 64 % 77 % 1018,4 hPa 0,0 l/m² 5,2 km/h (1 Bft) S 175 ° 2 min 443 W/m² 18,4 °C 22,6 °C 9,7 km/h (2 Bft)
13.08.2023 09:40 23,1 °C 22,7 °C 64 % 77 % 1018,5 hPa 0,0 l/m² 5,7 km/h (2 Bft) S 175 ° 1 min 469 W/m² 18,5 °C 22,7 °C 9,7 km/h (2 Bft)
13.08.2023 09:42 23,1 °C 22,8 °C 64 % 76 % 1018,5 hPa 0,0 l/m² 5,5 km/h (2 Bft) S 171 ° 2 min 438 W/m² 18,3 °C 22,8 °C 9,7 km/h (2 Bft)
13.08.2023 09:44 23,1 °C 22,9 °C 64 % 75 % 1018,5 hPa 0,0 l/m² 7,5 km/h (2 Bft) S-SO 158 ° 2 min 471 W/m² 18,2 °C 22,5 °C 9,7 km/h (2 Bft)
13.08.2023 09:46 23,1 °C 22,9 °C 64 % 75 % 1018,4 hPa 0,0 l/m² 5,7 km/h (2 Bft) S-SO 158 ° 2 min 436 W/m² 18,2 °C 22,9 °C 9,7 km/h (2 Bft)
13.08.2023 09:47 23,1 °C 22,9 °C 64 % 75 % 1018,4 hPa 0,0 l/m² 5,3 km/h (1 Bft) S-SO 158 ° 1 min 480 W/m² 18,2 °C 22,9 °C 8,0 km/h (2 Bft)
13.08.2023 09:49 23,1 °C 22,9 °C 64 % 75 % 1018,4 hPa 0,0 l/m² 0,6 km/h (0 Bft) S-SO 158 ° 2 min 473 W/m² 18,2 °C 22,9 °C 3,2 km/h (1 Bft)
13.08.2023 09:50 23,1 °C 23,1 °C 64 % 75 % 1018,6 hPa 0,0 l/m² 4,1 km/h (1 Bft) S-SO 158 ° 1 min 429 W/m² 18,4 °C 23,1 °C 9,7 km/h (2 Bft)
13.08.2023 09:52 23,1 °C 23,1 °C 64 % 75 % 1018,5 hPa 0,0 l/m² 4,2 km/h (1 Bft) S-SO 158 ° 2 min 473 W/m² 18,4 °C 23,1 °C 8,0 km/h (2 Bft)
13.08.2023 09:54 23,1 °C 23,2 °C 63 % 74 % 1018,5 hPa 0,0 l/m² 7,7 km/h (2 Bft) S-SO 166 ° 2 min 485 W/m² 18,3 °C 22,8 °C 9,7 km/h (2 Bft)
13.08.2023 09:56 23,1 °C 23,2 °C 63 % 73 % 1018,5 hPa 0,0 l/m² 6,7 km/h (2 Bft) S 186 ° 2 min 473 W/m² 18,1 °C 23,1 °C 11,3 km/h (2 Bft)
13.08.2023 09:58 23,1 °C 23,3 °C 63 % 73 % 1018,5 hPa 0,0 l/m² 7,0 km/h (2 Bft) SO 128 ° 2 min 490 W/m² 18,2 °C 23,1 °C 11,3 km/h (2 Bft)
13.08.2023 10:00 23,1 °C 23,3 °C 63 % 73 % 1018,5 hPa 0,0 l/m² 5,1 km/h (1 Bft) SO 144 ° 2 min 476 W/m² 18,2 °C 23,3 °C 6,4 km/h (2 Bft)
13.08.2023 10:01 23,1 °C 23,4 °C 63 % 72 % 1018,4 hPa 0,0 l/m² 8,5 km/h (2 Bft) S 189 ° 1 min 439 W/m² 18,1 °C 22,8 °C 11,3 km/h (2 Bft)
13.08.2023 10:02 23,1 °C 23,3 °C 63 % 72 % 1018,5 hPa 0,0 l/m² 6,7 km/h (2 Bft) S-SW 196 ° 1 min 494 W/m² 18,0 °C 23,2 °C 8,0 km/h (2 Bft)
13.08.2023 10:03 23,1 °C 23,3 °C 63 % 71 % 1018,5 hPa 0,0 l/m² 6,1 km/h (2 Bft) S-SW 196 ° 1 min 494 W/m² 17,7 °C 23,3 °C 8,0 km/h (2 Bft)
13.08.2023 10:04 23,1 °C 23,4 °C 63 % 71 % 1018,5 hPa 0,0 l/m² 4,2 km/h (1 Bft) S-SW 196 ° 1 min 464 W/m² 17,8 °C 23,4 °C 6,4 km/h (2 Bft)
13.08.2023 10:06 23,1 °C 23,4 °C 63 % 72 % 1018,5 hPa 0,0 l/m² 3,9 km/h (1 Bft) S 191 ° 2 min 496 W/m² 18,1 °C 23,4 °C 6,4 km/h (2 Bft)
13.08.2023 10:08 23,1 °C 23,6 °C 63 % 73 % 1018,5 hPa 0,0 l/m² 7,2 km/h (2 Bft) S 184 ° 2 min 515 W/m² 18,5 °C 23,4 °C 9,7 km/h (2 Bft)
13.08.2023 10:10 23,2 °C 23,6 °C 63 % 71 % 1018,5 hPa 0,0 l/m² 7,4 km/h (2 Bft) S 169 ° 2 min 510 W/m² 18,0 °C 23,3 °C 9,7 km/h (2 Bft)
13.08.2023 10:11 23,2 °C 23,6 °C 63 % 71 % 1018,6 hPa 0,0 l/m² 8,4 km/h (2 Bft) S-SO 167 ° 1 min 526 W/m² 18,0 °C 23,0 °C 11,3 km/h (2 Bft)
13.08.2023 10:12 23,2 °C 23,7 °C 63 % 70 % 1018,4 hPa 0,0 l/m² 1,5 km/h (1 Bft) S-SO 167 ° 1 min 506 W/m² 17,9 °C 23,7 °C 4,8 km/h (1 Bft)
13.08.2023 10:13 23,2 °C 23,7 °C 63 % 70 % 1018,4 hPa 0,0 l/m² 2,2 km/h (1 Bft) S-SO 166 ° 1 min 478 W/m² 17,9 °C 23,7 °C 9,7 km/h (2 Bft)
13.08.2023 10:14 23,2 °C 23,7 °C 63 % 69 % 1018,5 hPa 0,0 l/m² 6,1 km/h (2 Bft) S-SO 166 ° 1 min 536 W/m² 17,7 °C 23,7 °C 9,7 km/h (2 Bft)
13.08.2023 10:16 23,2 °C 23,8 °C 63 % 68 % 1018,5 hPa 0,0 l/m² 4,7 km/h (1 Bft) S-SO 166 ° 2 min 476 W/m² 17,5 °C 23,8 °C 8,0 km/h (2 Bft)
13.08.2023 10:18 23,2 °C 23,8 °C 63 % 70 % 1018,4 hPa 0,0 l/m² 7,1 km/h (2 Bft) S-SO 165 ° 2 min 406 W/m² 18,0 °C 23,6 °C 9,7 km/h (2 Bft)
13.08.2023 10:20 23,2 °C 23,9 °C 63 % 69 % 1018,5 hPa 0,0 l/m² 1,5 km/h (1 Bft) S-SO 165 ° 2 min 346 W/m² 17,9 °C 23,9 °C 3,2 km/h (1 Bft)
13.08.2023 10:21 23,2 °C 23,9 °C 63 % 69 % 1018,5 hPa 0,0 l/m² 0,0 km/h (0 Bft) S-SO 165 ° 1 min 367 W/m² 17,9 °C 23,9 °C 0,0 km/h (0 Bft)
13.08.2023 10:22 23,2 °C 23,9 °C 63 % 69 % 1018,5 hPa 0,0 l/m² 1,1 km/h (1 Bft) S-SO 165 ° 1 min 334 W/m² 17,9 °C 23,9 °C 3,2 km/h (1 Bft)
13.08.2023 10:23 23,2 °C 23,9 °C 63 % 69 % 1018,5 hPa 0,0 l/m² 1,5 km/h (1 Bft) S-SO 165 ° 1 min 350 W/m² 17,9 °C 23,9 °C 6,4 km/h (2 Bft)
13.08.2023 10:24 23,2 °C 24,0 °C 63 % 69 % 1018,5 hPa 0,0 l/m² 5,7 km/h (2 Bft) S-SO 165 ° 1 min 369 W/m² 18,0 °C 24,0 °C 8,0 km/h (2 Bft)
13.08.2023 10:26 23,2 °C 24,0 °C 63 % 70 % 1018,5 hPa 0,0 l/m² 8,4 km/h (2 Bft) S 173 ° 2 min 313 W/m² 18,2 °C 23,4 °C 11,3 km/h (2 Bft)
13.08.2023 10:28 23,2 °C 24,0 °C 63 % 70 % 1018,5 hPa 0,0 l/m² 7,0 km/h (2 Bft) S 173 ° 2 min 334 W/m² 18,2 °C 23,8 °C 9,7 km/h (2 Bft)
13.08.2023 10:30 23,2 °C 24,0 °C 63 % 69 % 1018,4 hPa 0,0 l/m² 4,0 km/h (1 Bft) S 173 ° 2 min 336 W/m² 18,0 °C 24,0 °C 8,0 km/h (2 Bft)
13.08.2023 10:31 23,2 °C 24,0 °C 63 % 70 % 1018,5 hPa 0,0 l/m² 4,5 km/h (1 Bft) S 173 ° 1 min 355 W/m² 18,2 °C 24,0 °C 8,0 km/h (2 Bft)
13.08.2023 10:32 23,2 °C 24,0 °C 63 % 70 % 1018,5 hPa 0,0 l/m² 5,6 km/h (2 Bft) S 173 ° 1 min 394 W/m² 18,2 °C 24,0 °C 8,0 km/h (2 Bft)
13.08.2023 10:33 23,2 °C 24,0 °C 63 % 70 % 1018,5 hPa 0,0 l/m² 7,2 km/h (2 Bft) S 183 ° 1 min 459 W/m² 18,2 °C 23,8 °C 9,7 km/h (2 Bft)
13.08.2023 10:34 23,2 °C 24,0 °C 63 % 70 % 1018,5 hPa 0,0 l/m² 5,5 km/h (2 Bft) S 176 ° 1 min 531 W/m² 18,2 °C 24,0 °C 9,7 km/h (2 Bft)
13.08.2023 10:36 23,2 °C 24,1 °C 63 % 71 % 1018,4 hPa 0,0 l/m² 10,0 km/h (2 Bft) S-SO 165 ° 2 min 494 W/m² 18,5 °C 23,2 °C 14,5 km/h (3 Bft)
13.08.2023 10:38 23,1 °C 24,1 °C 63 % 70 % 1018,4 hPa 0,0 l/m² 5,6 km/h (2 Bft) S-SO 165 ° 2 min 455 W/m² 18,3 °C 24,1 °C 9,7 km/h (2 Bft)
13.08.2023 10:40 23,2 °C 24,1 °C 63 % 70 % 1018,4 hPa 0,0 l/m² 4,6 km/h (1 Bft) S-SO 159 ° 2 min 457 W/m² 18,3 °C 24,1 °C 9,7 km/h (2 Bft)
13.08.2023 10:41 23,2 °C 24,1 °C 63 % 70 % 1018,4 hPa 0,0 l/m² 6,8 km/h (2 Bft) S-SO 151 ° 1 min 483 W/m² 18,3 °C 24,0 °C 9,7 km/h (2 Bft)
13.08.2023 10:42 23,2 °C 24,1 °C 63 % 70 % 1018,4 hPa 0,0 l/m² 5,1 km/h (1 Bft) S-SO 153 ° 1 min 489 W/m² 18,3 °C 24,1 °C 6,4 km/h (2 Bft)
13.08.2023 10:43 23,1 °C 24,1 °C 63 % 70 % 1018,4 hPa 0,0 l/m² 8,5 km/h (2 Bft) S-SO 166 ° 1 min 452 W/m² 18,3 °C 23,5 °C 12,9 km/h (3 Bft)
13.08.2023 10:44 23,1 °C 24,2 °C 63 % 70 % 1018,4 hPa 0,0 l/m² 7,4 km/h (2 Bft) S-SO 157 ° 1 min 499 W/m² 18,4 °C 23,9 °C 9,7 km/h (2 Bft)
13.08.2023 10:46 23,1 °C 24,2 °C 63 % 71 % 1018,4 hPa 0,0 l/m² 10,0 km/h (2 Bft) S-SO 151 ° 2 min 373 W/m² 18,6 °C 23,3 °C 14,5 km/h (3 Bft)
13.08.2023 10:48 23,1 °C 24,2 °C 63 % 69 % 1018,3 hPa 0,0 l/m² 7,7 km/h (2 Bft) S-SO 157 ° 2 min 367 W/m² 18,1 °C 23,8 °C 12,9 km/h (3 Bft)
13.08.2023 10:50 23,1 °C 24,2 °C 63 % 69 % 1018,4 hPa 0,0 l/m² 8,6 km/h (2 Bft) S-SO 163 ° 2 min 359 W/m² 18,1 °C 23,6 °C 12,9 km/h (3 Bft)
13.08.2023 10:51 23,1 °C 24,2 °C 63 % 69 % 1018,3 hPa 0,0 l/m² 8,7 km/h (2 Bft) S-SO 148 ° 1 min 360 W/m² 18,1 °C 23,6 °C 12,9 km/h (3 Bft)
13.08.2023 10:52 23,1 °C 24,2 °C 63 % 69 % 1018,3 hPa 0,0 l/m² 7,9 km/h (2 Bft) S-SO 152 ° 1 min 396 W/m² 18,1 °C 23,8 °C 9,7 km/h (2 Bft)
13.08.2023 10:53 23,1 °C 24,2 °C 63 % 69 % 1018,4 hPa 0,0 l/m² 8,0 km/h (2 Bft) SO 142 ° 1 min 357 W/m² 18,1 °C 23,8 °C 9,7 km/h (2 Bft)
13.08.2023 10:54 23,1 °C 24,2 °C 63 % 69 % 1018,4 hPa 0,0 l/m² 6,6 km/h (2 Bft) SO 143 ° 1 min 355 W/m² 18,1 °C 24,2 °C 8,0 km/h (2 Bft)
13.08.2023 10:56 23,1 °C 24,2 °C 63 % 69 % 1018,3 hPa 0,0 l/m² 8,0 km/h (2 Bft) S 191 ° 2 min 487 W/m² 18,1 °C 23,8 °C 12,9 km/h (3 Bft)
13.08.2023 10:58 23,1 °C 24,3 °C 63 % 66 % 1018,4 hPa 0,0 l/m² 11,6 km/h (2 Bft) S 171 ° 2 min 332 W/m² 17,5 °C 23,1 °C 19,3 km/h (3 Bft)
13.08.2023 11:00 23,1 °C 24,2 °C 63 % 67 % 1018,3 hPa 0,0 l/m² 8,4 km/h (2 Bft) S 185 ° 2 min 336 W/m² 17,7 °C 23,7 °C 11,3 km/h (2 Bft)
13.08.2023 11:01 23,1 °C 24,2 °C 63 % 67 % 1018,4 hPa 0,0 l/m² 9,3 km/h (2 Bft) S 189 ° 1 min 299 W/m² 17,7 °C 23,4 °C 14,5 km/h (3 Bft)
13.08.2023 11:02 23,1 °C 24,2 °C 63 % 67 % 1018,4 hPa 0,0 l/m² 7,7 km/h (2 Bft) S 177 ° 1 min 288 W/m² 17,7 °C 23,8 °C 9,7 km/h (2 Bft)
13.08.2023 11:03 23,1 °C 24,2 °C 63 % 66 % 1018,3 hPa 0,0 l/m² 11,5 km/h (2 Bft) S-SO 160 ° 1 min 283 W/m² 17,4 °C 23,0 °C 16,1 km/h (3 Bft)
13.08.2023 11:04 23,1 °C 24,2 °C 63 % 66 % 1018,3 hPa 0,0 l/m² 8,6 km/h (2 Bft) S 169 ° 1 min 279 W/m² 17,4 °C 23,6 °C 11,3 km/h (2 Bft)
13.08.2023 11:06 23,1 °C 24,2 °C 63 % 66 % 1018,3 hPa 0,0 l/m² 10,0 km/h (2 Bft) S-SO 158 ° 2 min 265 W/m² 17,4 °C 23,3 °C 12,9 km/h (3 Bft)
13.08.2023 11:08 23,1 °C 24,2 °C 63 % 67 % 1018,3 hPa 0,0 l/m² 8,0 km/h (2 Bft) S-SO 161 ° 2 min 255 W/m² 17,7 °C 23,8 °C 11,3 km/h (2 Bft)
13.08.2023 11:10 23,1 °C 24,2 °C 63 % 66 % 1018,2 hPa 0,0 l/m² 6,0 km/h (2 Bft) S-SO 156 ° 2 min 329 W/m² 17,4 °C 24,2 °C 9,7 km/h (2 Bft)
13.08.2023 11:11 23,1 °C 24,2 °C 63 % 66 % 1018,2 hPa 0,0 l/m² 5,4 km/h (2 Bft) SO 146 ° 1 min 315 W/m² 17,4 °C 24,2 °C 9,7 km/h (2 Bft)
13.08.2023 11:12 23,1 °C 24,1 °C 63 % 65 % 1018,2 hPa 0,0 l/m² 7,1 km/h (2 Bft) SO 143 ° 1 min 313 W/m² 17,1 °C 23,9 °C 8,0 km/h (2 Bft)
13.08.2023 11:13 23,1 °C 24,1 °C 63 % 64 % 1018,3 hPa 0,0 l/m² 8,2 km/h (2 Bft) S 189 ° 1 min 313 W/m² 16,9 °C 23,6 °C 14,5 km/h (3 Bft)
13.08.2023 11:14 23,1 °C 24,1 °C 63 % 65 % 1018,2 hPa 0,0 l/m² 8,9 km/h (2 Bft) S 188 ° 1 min 330 W/m² 17,1 °C 23,4 °C 11,3 km/h (2 Bft)
13.08.2023 11:16 23,1 °C 24,1 °C 63 % 65 % 1018,1 hPa 0,0 l/m² 6,1 km/h (2 Bft) S 178 ° 2 min 348 W/m² 17,1 °C 24,1 °C 8,0 km/h (2 Bft)
13.08.2023 11:18 23,1 °C 24,1 °C 63 % 65 % 1018,1 hPa 0,0 l/m² 6,0 km/h (2 Bft) S 181 ° 2 min 438 W/m² 17,1 °C 24,1 °C 9,7 km/h (2 Bft)
13.08.2023 11:20 23,0 °C 24,2 °C 63 % 66 % 1018,2 hPa 0,0 l/m² 5,4 km/h (2 Bft) S 190 ° 2 min 464 W/m² 17,4 °C 24,2 °C 6,4 km/h (2 Bft)
13.08.2023 11:21 23,0 °C 24,2 °C 63 % 66 % 1018,1 hPa 0,0 l/m² 7,5 km/h (2 Bft) S-SW 197 ° 1 min 487 W/m² 17,4 °C 23,9 °C 9,7 km/h (2 Bft)
13.08.2023 11:22 23,0 °C 24,2 °C 63 % 65 % 1018,1 hPa 0,0 l/m² 6,8 km/h (2 Bft) S-SW 197 ° 1 min 538 W/m² 17,2 °C 24,1 °C 9,7 km/h (2 Bft)
13.08.2023 11:25 23,0 °C 24,3 °C 63 % 65 % 1018,2 hPa 0,0 l/m² 8,9 km/h (2 Bft) SW 217 ° 3 min 490 W/m² 17,3 °C 23,6 °C 12,9 km/h (3 Bft)
13.08.2023 11:27 23,0 °C 24,3 °C 63 % 65 % 1018,2 hPa 0,0 l/m² 6,7 km/h (2 Bft) S-SW 209 ° 2 min 487 W/m² 17,3 °C 24,2 °C 8,0 km/h (2 Bft)
13.08.2023 11:29 23,0 °C 24,4 °C 63 % 65 % 1018,2 hPa 0,0 l/m² 9,8 km/h (2 Bft) S 173 ° 2 min 432 W/m² 17,4 °C 23,5 °C 12,9 km/h (3 Bft)
13.08.2023 11:30 23,0 °C 24,4 °C 63 % 64 % 1018,2 hPa 0,0 l/m² 10,0 km/h (2 Bft) S-SO 167 ° 1 min 387 W/m² 17,1 °C 23,5 °C 14,5 km/h (3 Bft)
13.08.2023 11:32 23,0 °C 24,5 °C 63 % 64 % 1018,2 hPa 0,0 l/m² 8,2 km/h (2 Bft) S 171 ° 2 min 353 W/m² 17,2 °C 24,0 °C 12,9 km/h (3 Bft)
13.08.2023 11:34 23,0 °C 24,6 °C 63 % 61 % 1018,2 hPa 0,0 l/m² 10,6 km/h (2 Bft) SO 138 ° 2 min 394 W/m² 16,6 °C 23,6 °C 16,1 km/h (3 Bft)
13.08.2023 11:35 23,0 °C 24,6 °C 63 % 60 % 1018,3 hPa 0,0 l/m² 7,8 km/h (2 Bft) S-SO 151 ° 1 min 401 W/m² 16,3 °C 24,2 °C 12,9 km/h (3 Bft)
13.08.2023 11:37 23,0 °C 24,6 °C 63 % 61 % 1018,2 hPa 0,0 l/m² 6,4 km/h (2 Bft) S-SO 148 ° 2 min 362 W/m² 16,6 °C 24,6 °C 8,0 km/h (2 Bft)
13.08.2023 11:39 23,0 °C 24,7 °C 63 % 62 % 1018,1 hPa 0,0 l/m² 6,0 km/h (2 Bft) O-SO 120 ° 2 min 374 W/m² 16,9 °C 24,7 °C 8,0 km/h (2 Bft)
13.08.2023 11:40 23,0 °C 24,7 °C 63 % 60 % 1018,1 hPa 0,0 l/m² 6,5 km/h (2 Bft) O-SO 117 ° 1 min 408 W/m² 16,4 °C 24,7 °C 8,0 km/h (2 Bft)
13.08.2023 11:42 23,0 °C 24,7 °C 63 % 59 % 1018,0 hPa 0,0 l/m² 4,5 km/h (1 Bft) O-SO 115 ° 2 min 425 W/m² 16,1 °C 24,7 °C 6,4 km/h (2 Bft)
13.08.2023 11:44 23,0 °C 24,7 °C 63 % 61 % 1018,2 hPa 0,0 l/m² 8,7 km/h (2 Bft) SO 130 ° 2 min 670 W/m² 16,7 °C 24,1 °C 12,9 km/h (3 Bft)
13.08.2023 11:46 23,0 °C 24,8 °C 63 % 59 % 1018,0 hPa 0,0 l/m² 7,1 km/h (2 Bft) SO 144 ° 2 min 640 W/m² 16,2 °C 24,6 °C 11,3 km/h (2 Bft)
13.08.2023 11:48 22,9 °C 24,9 °C 63 % 60 % 1018,1 hPa 0,0 l/m² 2,4 km/h (1 Bft) SO 143 ° 2 min 687 W/m² 16,6 °C 24,9 °C 4,8 km/h (1 Bft)
13.08.2023 11:50 23,0 °C 25,0 °C 63 % 61 % 1018,0 hPa 0,0 l/m² 3,8 km/h (1 Bft) O 98 ° 2 min 700 W/m² 16,9 °C 25,0 °C 12,9 km/h (3 Bft)
13.08.2023 11:51 23,0 °C 25,1 °C 63 % 59 % 1017,9 hPa 0,0 l/m² 9,3 km/h (2 Bft) O 96 ° 1 min 728 W/m² 16,5 °C 24,4 °C 11,3 km/h (2 Bft)
13.08.2023 11:52 23,0 °C 25,2 °C 63 % 57 % 1017,9 hPa 0,0 l/m² 6,6 km/h (2 Bft) O 101 ° 1 min 668 W/m² 16,1 °C 25,2 °C 9,7 km/h (2 Bft)
13.08.2023 11:53 23,0 °C 25,2 °C 63 % 57 % 1017,9 hPa 0,0 l/m² 7,5 km/h (2 Bft) O-SO 113 ° 1 min 599 W/m² 16,1 °C 24,9 °C 11,3 km/h (2 Bft)
13.08.2023 11:55 23,0 °C 25,3 °C 63 % 57 % 1018,0 hPa 0,0 l/m² 9,0 km/h (2 Bft) SO 126 ° 2 min 334 W/m² 16,2 °C 24,7 °C 12,9 km/h (3 Bft)
13.08.2023 11:57 23,0 °C 25,3 °C 63 % 57 % 1018,1 hPa 0,0 l/m² 9,3 km/h (2 Bft) O-SO 118 ° 2 min 301 W/m² 16,2 °C 24,6 °C 12,9 km/h (3 Bft)
13.08.2023 11:59 23,0 °C 25,3 °C 63 % 57 % 1018,1 hPa 0,0 l/m² 7,0 km/h (2 Bft) SO 142 ° 2 min 311 W/m² 16,2 °C 25,2 °C 11,3 km/h (2 Bft)
13.08.2023 12:00 23,0 °C 25,3 °C 63 % 58 % 1018,1 hPa 0,0 l/m² 9,1 km/h (2 Bft) S-SW 196 ° 1 min 336 W/m² 16,4 °C 24,7 °C 12,9 km/h (3 Bft)
13.08.2023 12:02 22,9 °C 25,3 °C 63 % 56 % 1017,9 hPa 0,0 l/m² 6,8 km/h (2 Bft) S 187 ° 2 min 366 W/m² 15,9 °C 25,2 °C 9,7 km/h (2 Bft)
13.08.2023 12:04 23,0 °C 25,3 °C 63 % 59 % 1018,0 hPa 0,0 l/m² 11,2 km/h (2 Bft) SO 126 ° 2 min 383 W/m² 16,7 °C 24,3 °C 14,5 km/h (3 Bft)
13.08.2023 12:06 22,9 °C 25,3 °C 64 % 60 % 1018,0 hPa 0,0 l/m² 6,0 km/h (2 Bft) SO 130 ° 2 min 635 W/m² 17,0 °C 25,3 °C 11,3 km/h (2 Bft)
13.08.2023 12:08 23,0 °C 25,4 °C 64 % 59 % 1018,0 hPa 0,0 l/m² 8,5 km/h (2 Bft) S 177 ° 2 min 619 W/m² 16,8 °C 24,9 °C 11,3 km/h (2 Bft)
13.08.2023 12:10 22,9 °C 25,4 °C 64 % 60 % 1018,0 hPa 0,0 l/m² 6,4 km/h (2 Bft) S 169 ° 2 min 512 W/m² 17,1 °C 25,4 °C 12,9 km/h (3 Bft)
13.08.2023 12:11 22,9 °C 25,4 °C 64 % 60 % 1018,0 hPa 0,0 l/m² 9,9 km/h (2 Bft) S 185 ° 1 min 512 W/m² 17,1 °C 24,6 °C 14,5 km/h (3 Bft)
13.08.2023 12:12 22,9 °C 25,4 °C 64 % 59 % 1018,0 hPa 0,0 l/m² 7,8 km/h (2 Bft) S 176 ° 1 min 526 W/m² 16,8 °C 25,1 °C 9,7 km/h (2 Bft)
13.08.2023 12:13 23,0 °C 25,5 °C 64 % 60 % 1018,0 hPa 0,0 l/m² 8,4 km/h (2 Bft) S 179 ° 1 min 473 W/m² 17,2 °C 25,0 °C 14,5 km/h (3 Bft)
13.08.2023 12:15 22,9 °C 25,5 °C 64 % 60 % 1018,1 hPa 0,0 l/m² 7,5 km/h (2 Bft) S 171 ° 2 min 415 W/m² 17,2 °C 25,2 °C 14,5 km/h (3 Bft)
13.08.2023 12:17 22,9 °C 25,6 °C 64 % 60 % 1018,0 hPa 0,0 l/m² 9,7 km/h (2 Bft) S-SO 156 ° 2 min 454 W/m² 17,2 °C 24,9 °C 14,5 km/h (3 Bft)
13.08.2023 12:19 23,0 °C 25,7 °C 64 % 60 % 1018,0 hPa 0,0 l/m² 8,7 km/h (2 Bft) S-SO 167 ° 2 min 403 W/m² 17,3 °C 25,2 °C 11,3 km/h (2 Bft)
13.08.2023 12:22 22,9 °C 25,7 °C 64 % 60 % 1018,0 hPa 0,0 l/m² 3,6 km/h (1 Bft) SO 145 ° 3 min 928 W/m² 17,3 °C 25,7 °C 8,0 km/h (2 Bft)
13.08.2023 12:23 22,9 °C 25,8 °C 64 % 61 % 1018,0 hPa 0,0 l/m² 3,1 km/h (1 Bft) SO 144 ° 1 min 856 W/m² 17,7 °C 25,8 °C 4,8 km/h (1 Bft)
13.08.2023 12:24 22,9 °C 25,8 °C 64 % 61 % 1018,0 hPa 0,0 l/m² 5,7 km/h (2 Bft) S 188 ° 1 min 877 W/m² 17,7 °C 25,8 °C 11,3 km/h (2 Bft)
13.08.2023 12:25 23,0 °C 25,8 °C 64 % 59 % 1018,0 hPa 0,0 l/m² 8,0 km/h (2 Bft) S-SW 200 ° 1 min 868 W/m² 17,2 °C 25,4 °C 11,3 km/h (2 Bft)
13.08.2023 12:27 22,9 °C 26,0 °C 64 % 56 % 1017,9 hPa 0,0 l/m² 5,2 km/h (1 Bft) S 181 ° 2 min 849 W/m² 16,5 °C 26,0 °C 8,0 km/h (2 Bft)
13.08.2023 12:29 22,9 °C 26,2 °C 64 % 55 % 1018,0 hPa 0,0 l/m² 2,4 km/h (1 Bft) S 180 ° 2 min 809 W/m² 16,4 °C 26,2 °C 6,4 km/h (2 Bft)
13.08.2023 12:31 23,0 °C 26,3 °C 64 % 55 % 1017,9 hPa 0,0 l/m² 6,1 km/h (2 Bft) SW 234 ° 2 min 780 W/m² 16,5 °C 26,3 °C 9,7 km/h (2 Bft)
13.08.2023 12:32 22,9 °C 26,4 °C 64 % 54 % 1017,9 hPa 0,0 l/m² 0,3 km/h (0 Bft) SW 234 ° 1 min 645 W/m² 16,3 °C 26,4 °C 3,2 km/h (1 Bft)
13.08.2023 12:33 22,9 °C 26,4 °C 64 % 56 % 1017,9 hPa 0,0 l/m² 0,0 km/h (0 Bft) SW 234 ° 1 min 663 W/m² 16,9 °C 26,4 °C 0,0 km/h (0 Bft)
13.08.2023 12:34 23,0 °C 26,5 °C 64 % 55 % 1017,9 hPa 0,0 l/m² 6,0 km/h (2 Bft) S-SW 213 ° 1 min 663 W/m² 16,7 °C 26,5 °C 8,0 km/h (2 Bft)
13.08.2023 12:36 22,9 °C 26,7 °C 64 % 54 % 1018,0 hPa 0,0 l/m² 6,7 km/h (2 Bft) S-SW 192 ° 2 min 912 W/m² 16,6 °C 26,6 °C 11,3 km/h (2 Bft)
13.08.2023 12:38 22,9 °C 26,8 °C 64 % 55 % 1018,0 hPa 0,0 l/m² 8,8 km/h (2 Bft) SO 127 ° 2 min 933 W/m² 17,0 °C 26,3 °C 14,5 km/h (3 Bft)
13.08.2023 12:40 23,0 °C 27,1 °C 64 % 54 % 1017,9 hPa 0,0 l/m² 10,3 km/h (2 Bft) S 186 ° 2 min 926 W/m² 17,0 °C 26,4 °C 16,1 km/h (3 Bft)
13.08.2023 12:42 23,0 °C 27,2 °C 64 % 52 % 1018,0 hPa 0,0 l/m² 7,2 km/h (2 Bft) S 180 ° 2 min 954 W/m² 16,5 °C 27,1 °C 11,3 km/h (2 Bft)
13.08.2023 12:43 22,9 °C 27,3 °C 64 % 51 % 1018,0 hPa 0,0 l/m² 12,1 km/h (2 Bft) S 174 ° 1 min 925 W/m² 16,3 °C 26,4 °C 19,3 km/h (3 Bft)
13.08.2023 12:44 23,0 °C 27,3 °C 64 % 51 % 1017,9 hPa 0,0 l/m² 9,7 km/h (2 Bft) S 180 ° 1 min 925 W/m² 16,3 °C 26,7 °C 11,3 km/h (2 Bft)
13.08.2023 12:46 23,0 °C 27,3 °C 64 % 50 % 1017,9 hPa 0,0 l/m² 6,8 km/h (2 Bft) S 184 ° 2 min 849 W/m² 15,9 °C 27,2 °C 11,3 km/h (2 Bft)
13.08.2023 12:47 23,0 °C 27,3 °C 64 % 51 % 1017,9 hPa 0,0 l/m² 5,6 km/h (2 Bft) S 184 ° 1 min 860 W/m² 16,3 °C 27,3 °C 6,4 km/h (2 Bft)
13.08.2023 12:48 23,0 °C 27,4 °C 64 % 51 % 1017,9 hPa 0,0 l/m² 2,9 km/h (1 Bft) S 184 ° 1 min 854 W/m² 16,3 °C 27,4 °C 4,8 km/h (1 Bft)
13.08.2023 12:49 22,9 °C 27,4 °C 64 % 51 % 1017,9 hPa 0,0 l/m² 0,8 km/h (0 Bft) S 181 ° 1 min 849 W/m² 16,3 °C 27,4 °C 3,2 km/h (1 Bft)
13.08.2023 12:51 23,0 °C 27,4 °C 65 % 52 % 1017,9 hPa 0,0 l/m² 7,1 km/h (2 Bft) O 87 ° 2 min 881 W/m² 16,7 °C 27,3 °C 12,9 km/h (3 Bft)
13.08.2023 12:53 23,0 °C 27,6 °C 65 % 52 % 1017,9 hPa 0,0 l/m² 6,6 km/h (2 Bft) S-SO 149 ° 2 min 847 W/m² 16,8 °C 27,6 °C 11,3 km/h (2 Bft)
13.08.2023 12:54 23,0 °C 27,6 °C 65 % 50 % 1017,9 hPa 0,0 l/m² 10,4 km/h (2 Bft) O-SO 111 ° 1 min 856 W/m² 16,2 °C 27,0 °C 14,5 km/h (3 Bft)
13.08.2023 12:55 23,0 °C 27,6 °C 65 % 52 % 1017,9 hPa 0,0 l/m² 8,0 km/h (2 Bft) SO 135 ° 1 min 837 W/m² 16,8 °C 27,3 °C 12,9 km/h (3 Bft)
13.08.2023 12:56 23,0 °C 27,6 °C 65 % 50 % 1017,8 hPa 0,0 l/m² 3,3 km/h (1 Bft) SO 129 ° 1 min 809 W/m² 16,2 °C 27,6 °C 4,8 km/h (1 Bft)
13.08.2023 12:57 23,0 °C 27,7 °C 65 % 50 % 1017,8 hPa 0,0 l/m² 6,8 km/h (2 Bft) O 92 ° 1 min 809 W/m² 16,3 °C 27,6 °C 11,3 km/h (2 Bft)
13.08.2023 12:58 23,0 °C 27,7 °C 65 % 50 % 1017,8 hPa 0,0 l/m² 11,7 km/h (2 Bft) S-SO 157 ° 1 min 696 W/m² 16,3 °C 26,9 °C 14,5 km/h (3 Bft)
13.08.2023 12:59 23,0 °C 27,7 °C 65 % 50 % 1017,8 hPa 0,0 l/m² 13,2 km/h (3 Bft) SO 135 ° 1 min 751 W/m² 16,3 °C 26,8 °C 17,7 km/h (3 Bft)
13.08.2023 13:01 23,0 °C 27,6 °C 65 % 49 % 1017,8 hPa 0,0 l/m² 9,7 km/h (2 Bft) S-SO 167 ° 2 min 726 W/m² 15,9 °C 27,1 °C 14,5 km/h (3 Bft)
13.08.2023 13:03 23,0 °C 27,6 °C 65 % 50 % 1017,8 hPa 0,0 l/m² 6,7 km/h (2 Bft) SO 140 ° 2 min 772 W/m² 16,2 °C 27,6 °C 11,3 km/h (2 Bft)
13.08.2023 13:04 23,1 °C 27,6 °C 65 % 49 % 1017,7 hPa 0,0 l/m² 8,2 km/h (2 Bft) S-SO 150 ° 1 min 823 W/m² 15,9 °C 27,3 °C 12,9 km/h (3 Bft)
13.08.2023 13:05 23,0 °C 27,6 °C 65 % 50 % 1017,8 hPa 0,0 l/m² 8,2 km/h (2 Bft) SO 146 ° 1 min 754 W/m² 16,2 °C 27,3 °C 12,9 km/h (3 Bft)
13.08.2023 13:07 23,1 °C 27,6 °C 65 % 49 % 1017,8 hPa 0,0 l/m² 7,5 km/h (2 Bft) O-SO 111 ° 2 min 819 W/m² 15,9 °C 27,4 °C 14,5 km/h (3 Bft)
13.08.2023 13:08 23,1 °C 27,6 °C 65 % 49 % 1017,8 hPa 0,0 l/m² 11,5 km/h (2 Bft) S 175 ° 1 min 803 W/m² 15,9 °C 26,8 °C 17,7 km/h (3 Bft)
13.08.2023 13:09 23,1 °C 27,6 °C 65 % 49 % 1017,7 hPa 0,0 l/m² 12,9 km/h (3 Bft) SO 140 ° 1 min 819 W/m² 15,9 °C 26,7 °C 14,5 km/h (3 Bft)
13.08.2023 13:11 23,1 °C 27,6 °C 65 % 48 % 1017,7 hPa 0,0 l/m² 8,5 km/h (2 Bft) S 189 ° 2 min 861 W/m² 15,6 °C 27,3 °C 17,7 km/h (3 Bft)
13.08.2023 13:13 23,1 °C 27,7 °C 65 % 49 % 1017,7 hPa 0,0 l/m² 3,9 km/h (1 Bft) S-SW 193 ° 2 min 851 W/m² 16,0 °C 27,7 °C 6,4 km/h (2 Bft)
13.08.2023 13:14 23,1 °C 27,7 °C 65 % 50 % 1017,6 hPa 0,0 l/m² 8,7 km/h (2 Bft) O-SO 116 ° 1 min 863 W/m² 16,3 °C 27,3 °C 12,9 km/h (3 Bft)
13.08.2023 13:15 23,1 °C 27,7 °C 65 % 49 % 1017,7 hPa 0,0 l/m² 7,7 km/h (2 Bft) O-SO 123 ° 1 min 863 W/m² 16,0 °C 27,5 °C 12,9 km/h (3 Bft)
13.08.2023 13:16 23,1 °C 27,8 °C 65 % 49 % 1017,6 hPa 0,0 l/m² 11,3 km/h (2 Bft) O-SO 119 ° 1 min 875 W/m² 16,1 °C 27,1 °C 14,5 km/h (3 Bft)
13.08.2023 13:17 23,1 °C 27,8 °C 65 % 49 % 1017,7 hPa 0,0 l/m² 5,8 km/h (2 Bft) O 98 ° 1 min 870 W/m² 16,1 °C 27,8 °C 9,7 km/h (2 Bft)
13.08.2023 13:18 23,1 °C 27,8 °C 65 % 50 % 1017,6 hPa 0,0 l/m² 4,1 km/h (1 Bft) NO 51 ° 1 min 868 W/m² 16,4 °C 27,8 °C 8,0 km/h (2 Bft)
13.08.2023 13:19 23,1 °C 27,8 °C 65 % 51 % 1017,6 hPa 0,0 l/m² 9,7 km/h (2 Bft) O-NO 66 ° 1 min 875 W/m² 16,7 °C 27,3 °C 14,5 km/h (3 Bft)
13.08.2023 13:21 23,1 °C 27,9 °C 65 % 50 % 1017,6 hPa 0,0 l/m² 7,6 km/h (2 Bft) O 89 ° 2 min 884 W/m² 16,5 °C 27,7 °C 17,7 km/h (3 Bft)
13.08.2023 13:23 23,1 °C 27,9 °C 65 % 50 % 1017,7 hPa 0,0 l/m² 7,7 km/h (2 Bft) S-SO 151 ° 2 min 840 W/m² 16,5 °C 27,7 °C 14,5 km/h (3 Bft)
13.08.2023 13:24 23,1 °C 27,9 °C 65 % 49 % 1017,6 hPa 0,0 l/m² 11,0 km/h (2 Bft) S 178 ° 1 min 861 W/m² 16,2 °C 27,2 °C 12,9 km/h (3 Bft)
13.08.2023 13:25 23,1 °C 28,0 °C 65 % 48 % 1017,6 hPa 0,0 l/m² 7,2 km/h (2 Bft) S 184 ° 1 min 882 W/m² 15,9 °C 27,9 °C 9,7 km/h (2 Bft)
13.08.2023 13:26 23,1 °C 28,0 °C 65 % 48 % 1017,6 hPa 0,0 l/m² 8,6 km/h (2 Bft) O-SO 119 ° 1 min 840 W/m² 15,9 °C 27,7 °C 12,9 km/h (3 Bft)
13.08.2023 13:27 23,1 °C 28,0 °C 65 % 49 % 1017,6 hPa 0,0 l/m² 12,6 km/h (3 Bft) SO 136 ° 1 min 817 W/m² 16,3 °C 27,2 °C 16,1 km/h (3 Bft)
13.08.2023 13:28 23,1 °C 28,1 °C 65 % 49 % 1017,7 hPa 0,0 l/m² 13,0 km/h (3 Bft) S 173 ° 1 min 812 W/m² 16,4 °C 27,3 °C 20,9 km/h (4 Bft)
13.08.2023 13:29 23,1 °C 28,1 °C 65 % 48 % 1017,6 hPa 0,0 l/m² 12,2 km/h (2 Bft) S-SO 157 ° 1 min 800 W/m² 16,0 °C 27,3 °C 17,7 km/h (3 Bft)
13.08.2023 13:31 23,1 °C 28,1 °C 65 % 50 % 1017,6 hPa 0,0 l/m² 8,6 km/h (2 Bft) S-SO 167 ° 2 min 754 W/m² 16,7 °C 27,8 °C 12,9 km/h (3 Bft)
13.08.2023 13:33 23,1 °C 28,1 °C 65 % 49 % 1017,6 hPa 0,0 l/m² 7,1 km/h (2 Bft) O-SO 119 ° 2 min 246 W/m² 16,4 °C 28,0 °C 11,3 km/h (2 Bft)
13.08.2023 13:34 23,1 °C 28,1 °C 65 % 49 % 1017,6 hPa 0,0 l/m² 8,7 km/h (2 Bft) O-SO 113 ° 1 min 246 W/m² 16,4 °C 27,8 °C 11,3 km/h (2 Bft)
13.08.2023 13:35 23,1 °C 28,1 °C 65 % 48 % 1017,6 hPa 0,0 l/m² 5,9 km/h (2 Bft) O-SO 116 ° 1 min 860 W/m² 16,0 °C 28,1 °C 9,7 km/h (2 Bft)
13.08.2023 13:36 23,1 °C 28,1 °C 65 % 49 % 1017,6 hPa 0,0 l/m² 6,9 km/h (2 Bft) O 97 ° 1 min 814 W/m² 16,4 °C 28,0 °C 12,9 km/h (3 Bft)
13.08.2023 13:37 23,1 °C 28,1 °C 65 % 50 % 1017,6 hPa 0,0 l/m² 11,5 km/h (2 Bft) SO 126 ° 1 min 860 W/m² 16,7 °C 27,4 °C 14,5 km/h (3 Bft)
13.08.2023 13:38 23,1 °C 28,0 °C 65 % 50 % 1017,6 hPa 0,0 l/m² 9,0 km/h (2 Bft) O 92 ° 1 min 861 W/m² 16,6 °C 27,6 °C 12,9 km/h (3 Bft)
13.08.2023 13:39 23,1 °C 28,0 °C 65 % 50 % 1017,5 hPa 0,0 l/m² 13,0 km/h (3 Bft) O 90 ° 1 min 800 W/m² 16,6 °C 27,1 °C 25,7 km/h (4 Bft)
13.08.2023 13:41 23,1 °C 28,0 °C 65 % 50 % 1017,5 hPa 0,0 l/m² 17,1 km/h (3 Bft) SO 134 ° 2 min 816 W/m² 16,6 °C 26,8 °C 22,5 km/h (4 Bft)
13.08.2023 13:43 23,1 °C 28,0 °C 65 % 52 % 1017,5 hPa 0,0 l/m² 9,2 km/h (2 Bft) S 188 ° 2 min 798 W/m² 17,2 °C 27,6 °C 14,5 km/h (3 Bft)
13.08.2023 13:44 23,1 °C 28,0 °C 65 % 51 % 1017,5 hPa 0,0 l/m² 11,3 km/h (2 Bft) O-SO 115 ° 1 min 870 W/m² 16,9 °C 27,3 °C 14,5 km/h (3 Bft)
13.08.2023 13:45 23,1 °C 28,1 °C 65 % 51 % 1017,4 hPa 0,0 l/m² 13,1 km/h (3 Bft) S-SO 159 ° 1 min 861 W/m² 17,0 °C 27,2 °C 16,1 km/h (3 Bft)
13.08.2023 13:46 23,1 °C 28,1 °C 65 % 51 % 1017,5 hPa 0,0 l/m² 11,4 km/h (2 Bft) SO 126 ° 1 min 824 W/m² 17,0 °C 27,4 °C 16,1 km/h (3 Bft)
13.08.2023 13:47 23,1 °C 28,1 °C 65 % 52 % 1017,3 hPa 0,0 l/m² 13,9 km/h (3 Bft) SO 127 ° 1 min 824 W/m² 17,3 °C 27,2 °C 17,7 km/h (3 Bft)
13.08.2023 13:48 23,1 °C 28,2 °C 65 % 51 % 1017,5 hPa 0,0 l/m² 7,5 km/h (2 Bft) O-SO 115 ° 1 min 826 W/m² 17,1 °C 28,0 °C 9,7 km/h (2 Bft)
13.08.2023 13:49 23,1 °C 28,2 °C 65 % 51 % 1017,4 hPa 0,0 l/m² 3,6 km/h (1 Bft) O 96 ° 1 min 780 W/m² 17,1 °C 28,2 °C 6,4 km/h (2 Bft)
13.08.2023 13:51 23,1 °C 28,2 °C 65 % 52 % 1017,4 hPa 0,0 l/m² 8,8 km/h (2 Bft) O 83 ° 2 min 780 W/m² 17,4 °C 27,9 °C 17,7 km/h (3 Bft)
13.08.2023 13:53 23,1 °C 28,2 °C 65 % 51 % 1017,4 hPa 0,0 l/m² 12,4 km/h (2 Bft) O-SO 116 ° 2 min 867 W/m² 17,1 °C 27,4 °C 17,7 km/h (3 Bft)
13.08.2023 13:54 23,1 °C 28,2 °C 65 % 51 % 1017,4 hPa 0,0 l/m² 9,7 km/h (2 Bft) O-SO 111 ° 1 min 805 W/m² 17,1 °C 27,7 °C 14,5 km/h (3 Bft)
13.08.2023 13:55 23,1 °C 28,2 °C 65 % 51 % 1017,3 hPa 0,0 l/m² 4,7 km/h (1 Bft) SO 134 ° 1 min 768 W/m² 17,1 °C 28,2 °C 6,4 km/h (2 Bft)
13.08.2023 13:56 23,1 °C 28,2 °C 65 % 51 % 1017,4 hPa 0,0 l/m² 3,1 km/h (1 Bft) SO 144 ° 1 min 824 W/m² 17,1 °C 28,2 °C 4,8 km/h (1 Bft)
13.08.2023 13:57 23,1 °C 28,2 °C 65 % 50 % 1017,4 hPa 0,0 l/m² 3,3 km/h (1 Bft) SO 143 ° 1 min 844 W/m² 16,8 °C 28,2 °C 6,4 km/h (2 Bft)
13.08.2023 13:58 23,1 °C 28,2 °C 65 % 51 % 1017,4 hPa 0,0 l/m² 9,4 km/h (2 Bft) O-SO 108 ° 1 min 823 W/m² 17,1 °C 27,8 °C 12,9 km/h (3 Bft)
13.08.2023 13:59 23,1 °C 28,3 °C 65 % 51 % 1017,3 hPa 0,0 l/m² 8,3 km/h (2 Bft) O-SO 119 ° 1 min 793 W/m² 17,2 °C 28,0 °C 12,9 km/h (3 Bft)
13.08.2023 14:01 23,1 °C 28,3 °C 65 % 51 % 1017,3 hPa 0,0 l/m² 9,0 km/h (2 Bft) SO 126 ° 2 min 788 W/m² 17,2 °C 27,9 °C 12,9 km/h (3 Bft)
13.08.2023 14:03 23,1 °C 28,3 °C 65 % 51 % 1017,4 hPa 0,0 l/m² 15,0 km/h (3 Bft) O 101 ° 2 min 837 W/m² 17,2 °C 27,3 °C 22,5 km/h (4 Bft)
13.08.2023 14:04 23,1 °C 28,2 °C 65 % 51 % 1017,2 hPa 0,0 l/m² 14,3 km/h (3 Bft) O-SO 112 ° 1 min 318 W/m² 17,1 °C 27,2 °C 16,1 km/h (3 Bft)
13.08.2023 14:05 23,1 °C 28,2 °C 64 % 51 % 1017,3 hPa 0,0 l/m² 8,1 km/h (2 Bft) O 94 ° 1 min 318 W/m² 17,1 °C 27,9 °C 12,9 km/h (3 Bft)
13.08.2023 14:06 23,1 °C 28,2 °C 64 % 51 % 1017,2 hPa 0,0 l/m² 6,4 km/h (2 Bft) O-SO 107 ° 1 min 626 W/m² 17,1 °C 28,2 °C 11,3 km/h (2 Bft)
13.08.2023 14:07 23,1 °C 28,2 °C 64 % 52 % 1017,3 hPa 0,0 l/m² 11,7 km/h (2 Bft) O-SO 108 ° 1 min 626 W/m² 17,4 °C 27,5 °C 14,5 km/h (3 Bft)
13.08.2023 14:08 23,1 °C 28,2 °C 64 % 52 % 1017,2 hPa 0,0 l/m² 12,0 km/h (2 Bft) O-SO 118 ° 1 min 802 W/m² 17,4 °C 27,5 °C 12,9 km/h (3 Bft)
13.08.2023 14:09 23,1 °C 28,2 °C 64 % 52 % 1017,1 hPa 0,0 l/m² 15,0 km/h (3 Bft) SO 125 ° 1 min 789 W/m² 17,4 °C 27,2 °C 17,7 km/h (3 Bft)
13.08.2023 14:11 23,1 °C 28,3 °C 64 % 51 % 1017,1 hPa 0,0 l/m² 6,4 km/h (2 Bft) S 179 ° 2 min 789 W/m² 17,2 °C 28,3 °C 12,9 km/h (3 Bft)
13.08.2023 14:13 23,1 °C 28,3 °C 64 % 51 % 1017,1 hPa 0,0 l/m² 2,8 km/h (1 Bft) S 189 ° 2 min 816 W/m² 17,2 °C 28,3 °C 6,4 km/h (2 Bft)
13.08.2023 14:14 23,1 °C 28,3 °C 64 % 50 % 1017,1 hPa 0,0 l/m² 0,4 km/h (0 Bft) S 188 ° 1 min 870 W/m² 16,9 °C 28,3 °C 3,2 km/h (1 Bft)
13.08.2023 14:15 23,1 °C 28,3 °C 64 % 52 % 1017,0 hPa 0,0 l/m² 4,4 km/h (1 Bft) O 91 ° 1 min 886 W/m² 17,5 °C 28,3 °C 6,4 km/h (2 Bft)
13.08.2023 14:16 23,1 °C 28,4 °C 64 % 52 % 1017,1 hPa 0,0 l/m² 3,6 km/h (1 Bft) O-NO 69 ° 1 min 874 W/m² 17,6 °C 28,4 °C 9,7 km/h (2 Bft)
13.08.2023 14:17 23,1 °C 28,4 °C 64 % 53 % 1017,0 hPa 0,0 l/m² 7,4 km/h (2 Bft) S 181 ° 1 min 867 W/m² 17,9 °C 28,3 °C 12,9 km/h (3 Bft)
13.08.2023 14:18 23,1 °C 28,4 °C 64 % 50 % 1017,1 hPa 0,0 l/m² 12,7 km/h (3 Bft) S-SO 168 ° 1 min 837 W/m² 17,0 °C 27,6 °C 16,1 km/h (3 Bft)
13.08.2023 14:19 23,1 °C 28,4 °C 64 % 49 % 1017,0 hPa 0,0 l/m² 7,8 km/h (2 Bft) S 182 ° 1 min 821 W/m² 16,6 °C 28,2 °C 17,7 km/h (3 Bft)
13.08.2023 14:21 23,1 °C 28,5 °C 64 % 49 % 1017,1 hPa 0,0 l/m² 7,4 km/h (2 Bft) SW 223 ° 2 min 795 W/m² 16,7 °C 28,4 °C 14,5 km/h (3 Bft)
13.08.2023 14:23 23,1 °C 28,6 °C 64 % 50 % 1017,0 hPa 0,0 l/m² 1,2 km/h (1 Bft) SW 223 ° 2 min 821 W/m² 17,1 °C 28,6 °C 3,2 km/h (1 Bft)
13.08.2023 14:24 23,1 °C 28,6 °C 64 % 50 % 1016,9 hPa 0,0 l/m² 8,8 km/h (2 Bft) SW 224 ° 1 min 838 W/m² 17,1 °C 28,3 °C 12,9 km/h (3 Bft)
13.08.2023 14:25 23,1 °C 28,7 °C 64 % 50 % 1016,9 hPa 0,0 l/m² 16,7 km/h (3 Bft) O 96 ° 1 min 835 W/m² 17,2 °C 27,7 °C 24,1 km/h (4 Bft)
13.08.2023 14:26 23,1 °C 28,7 °C 64 % 48 % 1016,9 hPa 0,0 l/m² 10,4 km/h (2 Bft) O-NO 76 ° 1 min 835 W/m² 16,6 °C 28,2 °C 16,1 km/h (3 Bft)
13.08.2023 14:27 23,1 °C 28,6 °C 64 % 49 % 1016,9 hPa 0,0 l/m² 6,4 km/h (2 Bft) O-SO 111 ° 1 min 835 W/m² 16,8 °C 28,6 °C 9,7 km/h (2 Bft)
13.08.2023 14:28 23,1 °C 28,7 °C 64 % 51 % 1017,0 hPa 0,0 l/m² 9,2 km/h (2 Bft) O-SO 111 ° 1 min 617 W/m² 17,5 °C 28,3 °C 12,9 km/h (3 Bft)
13.08.2023 14:29 23,1 °C 28,7 °C 64 % 51 % 1017,0 hPa 0,0 l/m² 6,8 km/h (2 Bft) SO 127 ° 1 min 545 W/m² 17,5 °C 28,6 °C 9,7 km/h (2 Bft)
13.08.2023 14:31 23,1 °C 28,6 °C 64 % 51 % 1016,9 hPa 0,0 l/m² 6,0 km/h (2 Bft) S 175 ° 2 min 381 W/m² 17,4 °C 28,6 °C 11,3 km/h (2 Bft)
13.08.2023 14:33 23,1 °C 28,6 °C 64 % 50 % 1016,9 hPa 0,0 l/m² 9,7 km/h (2 Bft) S 171 ° 2 min 519 W/m² 17,1 °C 28,2 °C 14,5 km/h (3 Bft)
13.08.2023 14:34 23,1 °C 28,6 °C 64 % 49 % 1017,0 hPa 0,0 l/m² 7,8 km/h (2 Bft) S-SW 202 ° 1 min 526 W/m² 16,8 °C 28,4 °C 11,3 km/h (2 Bft)
13.08.2023 14:35 23,1 °C 28,5 °C 64 % 52 % 1016,9 hPa 0,0 l/m² 4,4 km/h (1 Bft) SW 217 ° 1 min 601 W/m² 17,7 °C 28,5 °C 6,4 km/h (2 Bft)
13.08.2023 14:36 23,1 °C 28,5 °C 64 % 51 % 1016,9 hPa 0,0 l/m² 5,1 km/h (1 Bft) S-SW 207 ° 1 min 629 W/m² 17,4 °C 28,5 °C 9,7 km/h (2 Bft)
13.08.2023 14:37 23,1 °C 28,4 °C 64 % 50 % 1016,9 hPa 0,0 l/m² 2,3 km/h (1 Bft) O-SO 123 ° 1 min 673 W/m² 17,0 °C 28,4 °C 6,4 km/h (2 Bft)
13.08.2023 14:38 23,1 °C 28,4 °C 64 % 51 % 1016,9 hPa 0,0 l/m² 6,8 km/h (2 Bft) O-SO 115 ° 1 min 635 W/m² 17,3 °C 28,3 °C 12,9 km/h (3 Bft)
13.08.2023 14:39 23,1 °C 28,4 °C 64 % 50 % 1016,9 hPa 0,0 l/m² 12,9 km/h (3 Bft) SO 128 ° 1 min 647 W/m² 17,0 °C 27,6 °C 16,1 km/h (3 Bft)
13.08.2023 14:41 23,1 °C 28,4 °C 64 % 50 % 1016,8 hPa 0,0 l/m² 10,2 km/h (2 Bft) O 93 ° 2 min 670 W/m² 17,0 °C 27,9 °C 16,1 km/h (3 Bft)
13.08.2023 14:42 23,1 °C 28,4 °C 64 % 50 % 1016,7 hPa 0,0 l/m² 11,6 km/h (2 Bft) SO 129 ° 1 min 656 W/m² 17,0 °C 27,7 °C 16,1 km/h (3 Bft)
13.08.2023 14:43 23,1 °C 28,4 °C 64 % 51 % 1016,7 hPa 0,0 l/m² 11,0 km/h (2 Bft) O 100 ° 1 min 656 W/m² 17,3 °C 27,8 °C 12,9 km/h (3 Bft)
13.08.2023 14:44 23,1 °C 28,4 °C 64 % 51 % 1016,8 hPa 0,0 l/m² 10,9 km/h (2 Bft) O 88 ° 1 min 772 W/m² 17,3 °C 27,8 °C 14,5 km/h (3 Bft)
13.08.2023 14:45 23,1 °C 28,4 °C 64 % 51 % 1016,8 hPa 0,0 l/m² 10,6 km/h (2 Bft) O 86 ° 1 min 777 W/m² 17,3 °C 27,9 °C 14,5 km/h (3 Bft)
13.08.2023 14:46 23,1 °C 28,3 °C 64 % 51 % 1016,7 hPa 0,0 l/m² 9,8 km/h (2 Bft) O-SO 111 ° 1 min 745 W/m² 17,2 °C 27,8 °C 11,3 km/h (2 Bft)
13.08.2023 14:47 23,1 °C 28,3 °C 64 % 51 % 1016,8 hPa 0,0 l/m² 5,6 km/h (2 Bft) O 84 ° 1 min 745 W/m² 17,2 °C 28,3 °C 6,4 km/h (2 Bft)
13.08.2023 14:48 23,1 °C 28,3 °C 64 % 51 % 1016,8 hPa 0,0 l/m² 8,3 km/h (2 Bft) O-NO 71 ° 1 min 745 W/m² 17,2 °C 28,0 °C 12,9 km/h (3 Bft)
13.08.2023 14:49 23,1 °C 28,2 °C 64 % 51 % 1016,8 hPa 0,0 l/m² 9,8 km/h (2 Bft) O-SO 112 ° 1 min 348 W/m² 17,1 °C 27,7 °C 11,3 km/h (2 Bft)
13.08.2023 14:51 23,1 °C 28,2 °C 64 % 52 % 1016,8 hPa 0,0 l/m² 11,5 km/h (2 Bft) SO 125 ° 2 min 325 W/m² 17,4 °C 27,5 °C 16,1 km/h (3 Bft)
13.08.2023 14:53 23,1 °C 28,2 °C 64 % 51 % 1016,8 hPa 0,0 l/m² 10,1 km/h (2 Bft) O 98 ° 2 min 302 W/m² 17,1 °C 27,7 °C 14,5 km/h (3 Bft)
13.08.2023 14:54 23,1 °C 28,1 °C 64 % 52 % 1016,7 hPa 0,0 l/m² 8,5 km/h (2 Bft) O 95 ° 1 min 297 W/m² 17,3 °C 27,8 °C 11,3 km/h (2 Bft)
13.08.2023 14:55 23,1 °C 28,0 °C 64 % 51 % 1016,7 hPa 0,0 l/m² 5,6 km/h (2 Bft) O-SO 103 ° 1 min 329 W/m² 16,9 °C 28,0 °C 9,7 km/h (2 Bft)
13.08.2023 14:57 23,1 °C 28,0 °C 64 % 52 % 1016,7 hPa 0,0 l/m² 0,5 km/h (0 Bft) O-SO 103 ° 2 min 388 W/m² 17,2 °C 28,0 °C 4,8 km/h (1 Bft)
13.08.2023 14:58 23,1 °C 28,0 °C 64 % 52 % 1016,7 hPa 0,0 l/m² 2,3 km/h (1 Bft) N-NO 18 ° 1 min 385 W/m² 17,2 °C 28,0 °C 4,8 km/h (1 Bft)
13.08.2023 14:59 23,1 °C 28,0 °C 64 % 52 % 1016,6 hPa 0,0 l/m² 3,6 km/h (1 Bft) NO 55 ° 1 min 387 W/m² 17,2 °C 28,0 °C 6,4 km/h (2 Bft)
13.08.2023 15:01 23,1 °C 28,0 °C 64 % 53 % 1016,7 hPa 0,0 l/m² 3,1 km/h (1 Bft) O-NO 65 ° 2 min 459 W/m² 17,5 °C 28,0 °C 6,4 km/h (2 Bft)
13.08.2023 15:03 23,1 °C 28,0 °C 64 % 53 % 1016,7 hPa 0,0 l/m² 6,3 km/h (2 Bft) O 80 ° 2 min 459 W/m² 17,5 °C 28,0 °C 11,3 km/h (2 Bft)
13.08.2023 15:04 23,1 °C 28,0 °C 64 % 53 % 1016,6 hPa 0,0 l/m² 6,9 km/h (2 Bft) O 101 ° 1 min 373 W/m² 17,5 °C 27,9 °C 9,7 km/h (2 Bft)
13.08.2023 15:05 23,1 °C 28,0 °C 64 % 54 % 1016,6 hPa 0,0 l/m² 7,4 km/h (2 Bft) O-NO 66 ° 1 min 373 W/m² 17,8 °C 27,8 °C 12,9 km/h (3 Bft)
13.08.2023 15:06 23,1 °C 28,0 °C 64 % 54 % 1016,7 hPa 0,0 l/m² 4,4 km/h (1 Bft) NO 42 ° 1 min 705 W/m² 17,8 °C 28,0 °C 9,7 km/h (2 Bft)
13.08.2023 15:07 23,1 °C 28,1 °C 64 % 54 % 1016,7 hPa 0,0 l/m² 4,2 km/h (1 Bft) N 355 ° 1 min 705 W/m² 17,9 °C 28,1 °C 8,0 km/h (2 Bft)
13.08.2023 15:08 23,1 °C 28,1 °C 64 % 52 % 1016,7 hPa 0,0 l/m² 2,1 km/h (1 Bft) N-NW 345 ° 1 min 378 W/m² 17,3 °C 28,1 °C 3,2 km/h (1 Bft)
13.08.2023 15:09 23,1 °C 28,1 °C 64 % 52 % 1016,7 hPa 0,0 l/m² 1,0 km/h (0 Bft) N 355 ° 1 min 334 W/m² 17,3 °C 28,1 °C 3,2 km/h (1 Bft)
13.08.2023 15:11 23,1 °C 28,1 °C 64 % 51 % 1016,7 hPa 0,0 l/m² 2,9 km/h (1 Bft) NO 34 ° 2 min 285 W/m² 17,0 °C 28,1 °C 4,8 km/h (1 Bft)
13.08.2023 15:13 23,1 °C 28,1 °C 64 % 51 % 1016,6 hPa 0,0 l/m² 1,0 km/h (0 Bft) NO 36 ° 2 min 299 W/m² 17,0 °C 28,1 °C 4,8 km/h (1 Bft)
13.08.2023 15:14 23,1 °C 28,1 °C 64 % 52 % 1016,6 hPa 0,0 l/m² 0,7 km/h (0 Bft) NO 36 ° 1 min 299 W/m² 17,3 °C 28,1 °C 3,2 km/h (1 Bft)
13.08.2023 15:15 23,1 °C 28,1 °C 64 % 53 % 1016,5 hPa 0,0 l/m² 2,6 km/h (1 Bft) NO 38 ° 1 min 299 W/m² 17,6 °C 28,1 °C 4,8 km/h (1 Bft)
13.08.2023 15:16 23,1 °C 28,1 °C 64 % 53 % 1016,5 hPa 0,0 l/m² 5,6 km/h (2 Bft) O-NO 65 ° 1 min 299 W/m² 17,6 °C 28,1 °C 6,4 km/h (2 Bft)
13.08.2023 15:17 23,0 °C 28,1 °C 64 % 53 % 1016,6 hPa 0,0 l/m² 5,0 km/h (1 Bft) NO 38 ° 1 min 364 W/m² 17,6 °C 28,1 °C 8,0 km/h (2 Bft)
13.08.2023 15:18 23,1 °C 28,1 °C 64 % 53 % 1016,5 hPa 0,0 l/m² 3,3 km/h (1 Bft) NO 38 ° 1 min 359 W/m² 17,6 °C 28,1 °C 6,4 km/h (2 Bft)
13.08.2023 15:19 23,1 °C 28,1 °C 64 % 53 % 1016,5 hPa 0,0 l/m² 3,9 km/h (1 Bft) O-NO 74 ° 1 min 290 W/m² 17,6 °C 28,1 °C 6,4 km/h (2 Bft)
13.08.2023 15:21 23,0 °C 28,1 °C 64 % 52 % 1016,5 hPa 0,0 l/m² 5,8 km/h (2 Bft) O 86 ° 2 min 258 W/m² 17,3 °C 28,1 °C 11,3 km/h (2 Bft)
13.08.2023 15:23 23,1 °C 28,1 °C 64 % 53 % 1016,4 hPa 0,0 l/m² 4,1 km/h (1 Bft) N-NO 33 ° 2 min 244 W/m² 17,6 °C 28,1 °C 8,0 km/h (2 Bft)
13.08.2023 15:24 23,0 °C 28,1 °C 64 % 52 % 1016,6 hPa 0,0 l/m² 5,5 km/h (2 Bft) NO 55 ° 1 min 237 W/m² 17,3 °C 28,1 °C 8,0 km/h (2 Bft)
13.08.2023 15:25 23,0 °C 28,1 °C 64 % 53 % 1016,5 hPa 0,0 l/m² 1,1 km/h (1 Bft) NO 54 ° 1 min 232 W/m² 17,6 °C 28,1 °C 3,2 km/h (1 Bft)
13.08.2023 15:26 23,0 °C 28,1 °C 64 % 52 % 1016,5 hPa 0,0 l/m² 1,2 km/h (1 Bft) O-NO 61 ° 1 min 232 W/m² 17,3 °C 28,1 °C 3,2 km/h (1 Bft)
13.08.2023 15:27 23,1 °C 28,1 °C 64 % 51 % 1016,4 hPa 0,0 l/m² 4,5 km/h (1 Bft) O-NO 77 ° 1 min 246 W/m² 17,0 °C 28,1 °C 6,4 km/h (2 Bft)
13.08.2023 15:28 23,1 °C 28,1 °C 64 % 52 % 1016,5 hPa 0,0 l/m² 2,8 km/h (1 Bft) O-NO 78 ° 1 min 246 W/m² 17,3 °C 28,1 °C 6,4 km/h (2 Bft)
13.08.2023 15:29 23,1 °C 28,1 °C 64 % 52 % 1016,5 hPa 0,0 l/m² 2,3 km/h (1 Bft) O 82 ° 1 min 330 W/m² 17,3 °C 28,1 °C 4,8 km/h (1 Bft)
13.08.2023 15:31 23,1 °C 28,0 °C 64 % 52 % 1016,5 hPa 0,0 l/m² 3,7 km/h (1 Bft) O 86 ° 2 min 341 W/m² 17,2 °C 28,0 °C 6,4 km/h (2 Bft)
13.08.2023 15:33 23,1 °C 27,9 °C 64 % 52 % 1016,5 hPa 0,0 l/m² 2,8 km/h (1 Bft) O 84 ° 2 min 323 W/m² 17,1 °C 27,9 °C 6,4 km/h (2 Bft)
13.08.2023 15:34 23,1 °C 27,9 °C 64 % 52 % 1016,5 hPa 0,0 l/m² 0,8 km/h (0 Bft) O 84 ° 1 min 308 W/m² 17,1 °C 27,9 °C 1,6 km/h (1 Bft)
13.08.2023 15:35 23,1 °C 27,9 °C 64 % 52 % 1016,5 hPa 0,0 l/m² 2,0 km/h (1 Bft) O 84 ° 1 min 294 W/m² 17,1 °C 27,9 °C 3,2 km/h (1 Bft)
13.08.2023 15:36 23,1 °C 27,9 °C 64 % 53 % 1016,4 hPa 0,0 l/m² 3,8 km/h (1 Bft) O-SO 122 ° 1 min 272 W/m² 17,4 °C 27,9 °C 4,8 km/h (1 Bft)
13.08.2023 15:37 23,1 °C 27,9 °C 64 % 52 % 1016,4 hPa 0,0 l/m² 4,3 km/h (1 Bft) SO 138 ° 1 min 283 W/m² 17,1 °C 27,9 °C 4,8 km/h (1 Bft)
13.08.2023 15:38 23,1 °C 27,9 °C 64 % 52 % 1016,4 hPa 0,0 l/m² 2,3 km/h (1 Bft) S-SO 147 ° 1 min 283 W/m² 17,1 °C 27,9 °C 4,8 km/h (1 Bft)
13.08.2023 15:39 23,1 °C 27,9 °C 64 % 54 % 1016,3 hPa 0,0 l/m² 2,4 km/h (1 Bft) S-SO 147 ° 1 min 452 W/m² 17,7 °C 27,9 °C 3,2 km/h (1 Bft)
13.08.2023 15:41 23,1 °C 27,9 °C 64 % 52 % 1016,3 hPa 0,0 l/m² 2,4 km/h (1 Bft) S-SO 152 ° 2 min 489 W/m² 17,1 °C 27,9 °C 6,4 km/h (2 Bft)
13.08.2023 15:43 23,2 °C 28,0 °C 64 % 52 % 1016,3 hPa 0,0 l/m² 2,6 km/h (1 Bft) S-SO 153 ° 2 min 468 W/m² 17,2 °C 28,0 °C 6,4 km/h (2 Bft)
13.08.2023 15:45 23,2 °C 28,0 °C 64 % 52 % 1016,3 hPa 0,0 l/m² 1,5 km/h (1 Bft) S-SO 153 ° 2 min 264 W/m² 17,2 °C 28,0 °C 4,8 km/h (1 Bft)
13.08.2023 15:46 23,2 °C 28,1 °C 64 % 52 % 1016,2 hPa 0,0 l/m² 3,8 km/h (1 Bft) S-SO 148 ° 1 min 253 W/m² 17,3 °C 28,1 °C 4,8 km/h (1 Bft)
13.08.2023 15:47 23,2 °C 28,1 °C 64 % 53 % 1016,1 hPa 0,0 l/m² 4,3 km/h (1 Bft) SO 128 ° 1 min 250 W/m² 17,6 °C 28,1 °C 6,4 km/h (2 Bft)
13.08.2023 15:48 23,2 °C 28,1 °C 64 % 51 % 1016,2 hPa 0,0 l/m² 3,1 km/h (1 Bft) SO 128 ° 1 min 248 W/m² 17,0 °C 28,1 °C 4,8 km/h (1 Bft)
13.08.2023 15:49 23,2 °C 27,9 °C 64 % 52 % 1016,2 hPa 0,0 l/m² 5,9 km/h (2 Bft) O 79 ° 1 min 260 W/m² 17,1 °C 27,9 °C 8,0 km/h (2 Bft)
13.08.2023 15:51 23,2 °C 27,9 °C 64 % 52 % 1016,2 hPa 0,0 l/m² 2,6 km/h (1 Bft) O 79 ° 2 min 260 W/m² 17,1 °C 27,9 °C 4,8 km/h (1 Bft)
13.08.2023 15:53 23,2 °C 27,9 °C 64 % 53 % 1016,2 hPa 0,0 l/m² 3,7 km/h (1 Bft) N-NO 28 ° 2 min 519 W/m² 17,4 °C 27,9 °C 6,4 km/h (2 Bft)
13.08.2023 15:54 23,2 °C 27,9 °C 64 % 53 % 1016,2 hPa 0,0 l/m² 3,2 km/h (1 Bft) N-NO 30 ° 1 min 499 W/m² 17,4 °C 27,9 °C 4,8 km/h (1 Bft)
13.08.2023 15:55 23,2 °C 27,9 °C 64 % 53 % 1016,2 hPa 0,0 l/m² 2,0 km/h (1 Bft) N-NO 32 ° 1 min 445 W/m² 17,4 °C 27,9 °C 4,8 km/h (1 Bft)
13.08.2023 15:56 23,2 °C 28,0 °C 64 % 54 % 1016,2 hPa 0,0 l/m² 5,4 km/h (2 Bft) N-NO 12 ° 1 min 448 W/m² 17,8 °C 28,0 °C 8,0 km/h (2 Bft)
13.08.2023 15:57 23,2 °C 28,0 °C 64 % 54 % 1016,1 hPa 0,0 l/m² 6,8 km/h (2 Bft) O-NO 78 ° 1 min 448 W/m² 17,8 °C 27,9 °C 11,3 km/h (2 Bft)
13.08.2023 15:58 23,2 °C 28,0 °C 64 % 54 % 1016,2 hPa 0,0 l/m² 12,0 km/h (2 Bft) O 84 ° 1 min 315 W/m² 17,8 °C 27,2 °C 16,1 km/h (3 Bft)
13.08.2023 15:59 23,2 °C 28,1 °C 64 % 55 % 1016,2 hPa 0,0 l/m² 12,6 km/h (3 Bft) O 94 ° 1 min 394 W/m² 18,2 °C 27,3 °C 14,5 km/h (3 Bft)
13.08.2023 16:01 23,2 °C 28,1 °C 64 % 54 % 1016,1 hPa 0,0 l/m² 10,9 km/h (2 Bft) S-SO 154 ° 2 min 589 W/m² 17,9 °C 27,5 °C 16,1 km/h (3 Bft)
13.08.2023 16:03 23,2 °C 28,1 °C 64 % 52 % 1016,1 hPa 0,0 l/m² 8,6 km/h (2 Bft) SO 139 ° 2 min 330 W/m² 17,3 °C 27,8 °C 11,3 km/h (2 Bft)
13.08.2023 16:04 23,2 °C 28,1 °C 64 % 52 % 1016,1 hPa 0,0 l/m² 5,7 km/h (2 Bft) SO 140 ° 1 min 322 W/m² 17,3 °C 28,1 °C 8,0 km/h (2 Bft)
13.08.2023 16:05 23,2 °C 28,2 °C 64 % 52 % 1016,0 hPa 0,0 l/m² 4,0 km/h (1 Bft) O-SO 118 ° 1 min 364 W/m² 17,4 °C 28,2 °C 6,4 km/h (2 Bft)
13.08.2023 16:06 23,2 °C 28,1 °C 64 % 52 % 1016,0 hPa 0,0 l/m² 4,4 km/h (1 Bft) O-SO 118 ° 1 min 311 W/m² 17,3 °C 28,1 °C 6,4 km/h (2 Bft)
13.08.2023 16:07 23,2 °C 28,2 °C 64 % 52 % 1016,0 hPa 0,0 l/m² 4,4 km/h (1 Bft) O-SO 119 ° 1 min 316 W/m² 17,4 °C 28,2 °C 4,8 km/h (1 Bft)
13.08.2023 16:08 23,2 °C 28,1 °C 64 % 52 % 1015,9 hPa 0,0 l/m² 3,9 km/h (1 Bft) O-SO 120 ° 1 min 330 W/m² 17,3 °C 28,1 °C 4,8 km/h (1 Bft)
13.08.2023 16:09 23,2 °C 28,1 °C 64 % 52 % 1016,0 hPa 0,0 l/m² 2,3 km/h (1 Bft) O-SO 120 ° 1 min 304 W/m² 17,3 °C 28,1 °C 3,2 km/h (1 Bft)
13.08.2023 16:11 23,2 °C 28,2 °C 64 % 53 % 1015,9 hPa 0,0 l/m² 1,8 km/h (1 Bft) O-SO 120 ° 2 min 330 W/m² 17,7 °C 28,2 °C 3,2 km/h (1 Bft)
13.08.2023 16:13 23,2 °C 28,2 °C 64 % 52 % 1016,0 hPa 0,0 l/m² 2,5 km/h (1 Bft) O-SO 119 ° 2 min 385 W/m² 17,4 °C 28,2 °C 6,4 km/h (2 Bft)
13.08.2023 16:14 23,2 °C 28,2 °C 64 % 53 % 1016,0 hPa 0,0 l/m² 4,2 km/h (1 Bft) O 92 ° 1 min 385 W/m² 17,7 °C 28,2 °C 6,4 km/h (2 Bft)
13.08.2023 16:15 23,2 °C 28,2 °C 64 % 54 % 1015,9 hPa 0,0 l/m² 4,8 km/h (1 Bft) O-NO 71 ° 1 min 385 W/m² 18,0 °C 28,2 °C 8,0 km/h (2 Bft)
13.08.2023 16:16 23,2 °C 28,2 °C 64 % 53 % 1015,9 hPa 0,0 l/m² 4,7 km/h (1 Bft) O-NO 59 ° 1 min 385 W/m² 17,7 °C 28,2 °C 6,4 km/h (2 Bft)
13.08.2023 16:17 23,2 °C 28,3 °C 64 % 53 % 1015,9 hPa 0,0 l/m² 2,7 km/h (1 Bft) O-NO 59 ° 1 min 320 W/m² 17,8 °C 28,3 °C 4,8 km/h (1 Bft)
13.08.2023 16:18 23,2 °C 28,3 °C 64 % 54 % 1015,8 hPa 0,0 l/m² 4,4 km/h (1 Bft) O-NO 59 ° 1 min 301 W/m² 18,1 °C 28,3 °C 6,4 km/h (2 Bft)
13.08.2023 16:19 23,2 °C 28,3 °C 64 % 55 % 1015,8 hPa 0,0 l/m² 6,0 km/h (2 Bft) O 92 ° 1 min 301 W/m² 18,4 °C 28,3 °C 8,0 km/h (2 Bft)
13.08.2023 16:21 23,2 °C 28,3 °C 64 % 53 % 1015,8 hPa 0,0 l/m² 5,3 km/h (1 Bft) O-NO 76 ° 2 min 371 W/m² 17,8 °C 28,3 °C 6,4 km/h (2 Bft)
13.08.2023 16:23 23,2 °C 28,4 °C 64 % 52 % 1015,8 hPa 0,0 l/m² 6,3 km/h (2 Bft) S 175 ° 2 min 403 W/m² 17,6 °C 28,4 °C 11,3 km/h (2 Bft)
13.08.2023 16:24 23,2 °C 28,4 °C 64 % 52 % 1015,8 hPa 0,0 l/m² 12,9 km/h (3 Bft) S 177 ° 1 min 429 W/m² 17,6 °C 27,6 °C 17,7 km/h (3 Bft)
13.08.2023 16:25 23,2 °C 28,4 °C 64 % 52 % 1015,9 hPa 0,0 l/m² 12,7 km/h (3 Bft) SO 140 ° 1 min 410 W/m² 17,6 °C 27,6 °C 17,7 km/h (3 Bft)
13.08.2023 16:26 23,2 °C 28,4 °C 64 % 51 % 1015,9 hPa 0,0 l/m² 14,2 km/h (3 Bft) SO 135 ° 1 min 357 W/m² 17,3 °C 27,5 °C 16,1 km/h (3 Bft)
13.08.2023 16:27 23,2 °C 28,4 °C 64 % 52 % 1015,9 hPa 0,0 l/m² 14,8 km/h (3 Bft) SO 138 ° 1 min 446 W/m² 17,6 °C 27,4 °C 19,3 km/h (3 Bft)
13.08.2023 16:28 23,2 °C 28,5 °C 64 % 51 % 1015,8 hPa 0,0 l/m² 12,9 km/h (3 Bft) SO 132 ° 1 min 408 W/m² 17,4 °C 27,7 °C 17,7 km/h (3 Bft)
13.08.2023 16:29 23,2 °C 28,5 °C 64 % 52 % 1015,8 hPa 0,0 l/m² 16,9 km/h (3 Bft) S-SO 150 ° 1 min 388 W/m² 17,7 °C 27,4 °C 19,3 km/h (3 Bft)
13.08.2023 16:31 23,2 °C 28,5 °C 64 % 51 % 1015,8 hPa 0,0 l/m² 14,2 km/h (3 Bft) S-SO 157 ° 2 min 359 W/m² 17,4 °C 27,6 °C 17,7 km/h (3 Bft)
13.08.2023 16:33 23,2 °C 28,4 °C 64 % 51 % 1015,8 hPa 0,0 l/m² 11,8 km/h (2 Bft) SO 139 ° 2 min 346 W/m² 17,3 °C 27,7 °C 16,1 km/h (3 Bft)
13.08.2023 16:34 23,2 °C 28,4 °C 64 % 51 % 1015,7 hPa 0,0 l/m² 13,4 km/h (3 Bft) S 180 ° 1 min 330 W/m² 17,3 °C 27,6 °C 17,7 km/h (3 Bft)
13.08.2023 16:35 23,2 °C 28,4 °C 64 % 52 % 1015,7 hPa 0,0 l/m² 16,8 km/h (3 Bft) S-SO 150 ° 1 min 295 W/m² 17,6 °C 27,3 °C 20,9 km/h (4 Bft)
13.08.2023 16:36 23,2 °C 28,4 °C 64 % 52 % 1015,8 hPa 0,0 l/m² 12,2 km/h (2 Bft) SO 137 ° 1 min 325 W/m² 17,6 °C 27,7 °C 16,1 km/h (3 Bft)
13.08.2023 16:37 23,2 °C 28,4 °C 64 % 52 % 1015,8 hPa 0,0 l/m² 13,6 km/h (3 Bft) SO 145 ° 1 min 322 W/m² 17,6 °C 27,5 °C 17,7 km/h (3 Bft)
13.08.2023 16:38 23,2 °C 28,4 °C 64 % 51 % 1015,8 hPa 0,0 l/m² 12,7 km/h (3 Bft) SO 127 ° 1 min 325 W/m² 17,3 °C 27,6 °C 16,1 km/h (3 Bft)
13.08.2023 16:39 23,2 °C 28,3 °C 64 % 51 % 1015,8 hPa 0,0 l/m² 14,4 km/h (3 Bft) S-SO 155 ° 1 min 325 W/m² 17,2 °C 27,4 °C 20,9 km/h (4 Bft)
13.08.2023 16:41 23,2 °C 28,3 °C 64 % 52 % 1015,7 hPa 0,0 l/m² 12,6 km/h (3 Bft) SO 134 ° 2 min 341 W/m² 17,5 °C 27,5 °C 19,3 km/h (3 Bft)
13.08.2023 16:43 23,2 °C 28,3 °C 64 % 51 % 1015,7 hPa 0,0 l/m² 15,3 km/h (3 Bft) SO 131 ° 2 min 357 W/m² 17,2 °C 27,3 °C 19,3 km/h (3 Bft)
13.08.2023 16:44 23,2 °C 28,3 °C 64 % 52 % 1015,7 hPa 0,0 l/m² 11,8 km/h (2 Bft) S-SO 147 ° 1 min 360 W/m² 17,5 °C 27,6 °C 16,1 km/h (3 Bft)
13.08.2023 16:45 23,2 °C 28,3 °C 64 % 52 % 1015,7 hPa 0,0 l/m² 9,6 km/h (2 Bft) S-SO 159 ° 1 min 366 W/m² 17,5 °C 27,9 °C 12,9 km/h (3 Bft)
13.08.2023 16:46 23,2 °C 28,3 °C 64 % 52 % 1015,7 hPa 0,0 l/m² 8,2 km/h (2 Bft) SO 139 ° 1 min 364 W/m² 17,5 °C 28,0 °C 12,9 km/h (3 Bft)
13.08.2023 16:47 23,2 °C 28,3 °C 64 % 52 % 1015,6 hPa 0,0 l/m² 8,7 km/h (2 Bft) S-SO 155 ° 1 min 373 W/m² 17,5 °C 28,0 °C 11,3 km/h (2 Bft)
13.08.2023 16:48 23,2 °C 28,3 °C 64 % 52 % 1015,7 hPa 0,0 l/m² 8,8 km/h (2 Bft) S 171 ° 1 min 378 W/m² 17,5 °C 28,0 °C 11,3 km/h (2 Bft)
13.08.2023 16:49 23,2 °C 28,3 °C 64 % 52 % 1015,7 hPa 0,0 l/m² 10,7 km/h (2 Bft) SO 137 ° 1 min 313 W/m² 17,5 °C 27,7 °C 14,5 km/h (3 Bft)
13.08.2023 16:51 23,2 °C 28,4 °C 64 % 52 % 1015,7 hPa 0,0 l/m² 10,1 km/h (2 Bft) SO 130 ° 2 min 311 W/m² 17,6 °C 27,9 °C 14,5 km/h (3 Bft)
13.08.2023 16:53 23,2 °C 28,3 °C 64 % 52 % 1015,7 hPa 0,0 l/m² 10,4 km/h (2 Bft) S-SO 155 ° 2 min 338 W/m² 17,5 °C 27,8 °C 16,1 km/h (3 Bft)
13.08.2023 16:54 23,2 °C 28,3 °C 64 % 52 % 1015,7 hPa 0,0 l/m² 9,7 km/h (2 Bft) S-SO 167 ° 1 min 336 W/m² 17,5 °C 27,8 °C 12,9 km/h (3 Bft)
13.08.2023 16:55 23,2 °C 28,4 °C 64 % 52 % 1015,7 hPa 0,0 l/m² 8,0 km/h (2 Bft) S-SW 192 ° 1 min 265 W/m² 17,6 °C 28,2 °C 9,7 km/h (2 Bft)
13.08.2023 16:56 23,2 °C 28,3 °C 64 % 52 % 1015,7 hPa 0,0 l/m² 8,7 km/h (2 Bft) S 188 ° 1 min 302 W/m² 17,5 °C 28,0 °C 9,7 km/h (2 Bft)
13.08.2023 16:57 23,2 °C 28,3 °C 64 % 52 % 1015,8 hPa 0,0 l/m² 6,5 km/h (2 Bft) S-SW 201 ° 1 min 334 W/m² 17,5 °C 28,3 °C 8,0 km/h (2 Bft)
13.08.2023 16:58 23,2 °C 28,4 °C 64 % 52 % 1015,7 hPa 0,0 l/m² 5,2 km/h (1 Bft) SO 145 ° 1 min 350 W/m² 17,6 °C 28,4 °C 8,0 km/h (2 Bft)
13.08.2023 16:59 23,2 °C 28,4 °C 64 % 52 % 1015,7 hPa 0,0 l/m² 3,9 km/h (1 Bft) SO 140 ° 1 min 350 W/m² 17,6 °C 28,4 °C 6,4 km/h (2 Bft)
13.08.2023 17:01 23,2 °C 28,4 °C 64 % 51 % 1015,7 hPa 0,0 l/m² 4,1 km/h (1 Bft) O-SO 121 ° 2 min 343 W/m² 17,3 °C 28,4 °C 8,0 km/h (2 Bft)
13.08.2023 17:03 23,2 °C 28,4 °C 64 % 52 % 1015,7 hPa 0,0 l/m² 5,1 km/h (1 Bft) SO 132 ° 2 min 330 W/m² 17,6 °C 28,4 °C 6,4 km/h (2 Bft)
13.08.2023 17:04 23,2 °C 28,4 °C 64 % 52 % 1015,7 hPa 0,0 l/m² 7,9 km/h (2 Bft) S-SO 165 ° 1 min 322 W/m² 17,6 °C 28,2 °C 11,3 km/h (2 Bft)
13.08.2023 17:05 23,2 °C 28,4 °C 64 % 53 % 1015,7 hPa 0,0 l/m² 6,4 km/h (2 Bft) S-SO 157 ° 1 min 311 W/m² 17,9 °C 28,4 °C 9,7 km/h (2 Bft)
13.08.2023 17:06 23,2 °C 28,5 °C 64 % 52 % 1015,6 hPa 0,0 l/m² 9,7 km/h (2 Bft) O-SO 103 ° 1 min 309 W/m² 17,7 °C 28,1 °C 14,5 km/h (3 Bft)
13.08.2023 17:07 23,2 °C 28,5 °C 64 % 52 % 1015,6 hPa 0,0 l/m² 13,0 km/h (3 Bft) SO 126 ° 1 min 302 W/m² 17,7 °C 27,7 °C 14,5 km/h (3 Bft)
13.08.2023 17:08 23,2 °C 28,4 °C 64 % 52 % 1015,6 hPa 0,0 l/m² 10,9 km/h (2 Bft) O-SO 109 ° 1 min 308 W/m² 17,6 °C 27,8 °C 12,9 km/h (3 Bft)
13.08.2023 17:09 23,2 °C 28,4 °C 64 % 52 % 1015,6 hPa 0,0 l/m² 10,3 km/h (2 Bft) SO 136 ° 1 min 297 W/m² 17,6 °C 27,9 °C 14,5 km/h (3 Bft)
13.08.2023 17:11 23,2 °C 28,4 °C 64 % 54 % 1015,6 hPa 0,0 l/m² 11,9 km/h (2 Bft) SO 126 ° 2 min 294 W/m² 18,2 °C 27,7 °C 16,1 km/h (3 Bft)
13.08.2023 17:13 23,2 °C 28,4 °C 64 % 53 % 1015,6 hPa 0,0 l/m² 9,8 km/h (2 Bft) O-SO 117 ° 2 min 281 W/m² 17,9 °C 27,9 °C 12,9 km/h (3 Bft)
13.08.2023 17:14 23,2 °C 28,3 °C 64 % 53 % 1015,6 hPa 0,0 l/m² 8,4 km/h (2 Bft) SO 128 ° 1 min 276 W/m² 17,8 °C 28,0 °C 11,3 km/h (2 Bft)
13.08.2023 17:15 23,2 °C 28,4 °C 64 % 54 % 1015,6 hPa 0,0 l/m² 10,8 km/h (2 Bft) SO 128 ° 1 min 279 W/m² 18,2 °C 27,8 °C 14,5 km/h (3 Bft)
13.08.2023 17:16 23,2 °C 28,3 °C 64 % 53 % 1015,6 hPa 0,0 l/m² 11,2 km/h (2 Bft) SO 135 ° 1 min 276 W/m² 17,8 °C 27,7 °C 14,5 km/h (3 Bft)
13.08.2023 17:17 23,2 °C 28,3 °C 64 % 54 % 1015,6 hPa 0,0 l/m² 8,3 km/h (2 Bft) S-SO 155 ° 1 min 279 W/m² 18,1 °C 28,0 °C 12,9 km/h (3 Bft)
13.08.2023 17:18 23,2 °C 28,3 °C 64 % 53 % 1015,6 hPa 0,0 l/m² 7,1 km/h (2 Bft) SO 138 ° 1 min 292 W/m² 17,8 °C 28,2 °C 11,3 km/h (2 Bft)
13.08.2023 17:19 23,2 °C 28,3 °C 64 % 53 % 1015,6 hPa 0,0 l/m² 5,3 km/h (1 Bft) SO 134 ° 1 min 297 W/m² 17,8 °C 28,3 °C 6,4 km/h (2 Bft)
13.08.2023 17:21 23,2 °C 28,3 °C 64 % 54 % 1015,6 hPa 0,0 l/m² 3,9 km/h (1 Bft) SO 134 ° 2 min 301 W/m² 18,1 °C 28,3 °C 8,0 km/h (2 Bft)
13.08.2023 17:23 23,2 °C 28,3 °C 64 % 53 % 1015,6 hPa 0,0 l/m² 9,1 km/h (2 Bft) S-SO 168 ° 2 min 322 W/m² 17,8 °C 27,9 °C 12,9 km/h (3 Bft)
13.08.2023 17:24 23,2 °C 28,2 °C 64 % 53 % 1015,6 hPa 0,0 l/m² 11,7 km/h (2 Bft) S-SO 161 ° 1 min 287 W/m² 17,7 °C 27,5 °C 17,7 km/h (3 Bft)
13.08.2023 17:25 23,2 °C 28,3 °C 64 % 53 % 1015,5 hPa 0,0 l/m² 11,1 km/h (2 Bft) S-SO 165 ° 1 min 267 W/m² 17,8 °C 27,7 °C 19,3 km/h (3 Bft)
13.08.2023 17:26 23,2 °C 28,3 °C 64 % 51 % 1015,5 hPa 0,0 l/m² 13,4 km/h (3 Bft) S-SO 165 ° 1 min 271 W/m² 17,2 °C 27,4 °C 16,1 km/h (3 Bft)
13.08.2023 17:27 23,2 °C 28,3 °C 64 % 51 % 1015,5 hPa 0,0 l/m² 10,7 km/h (2 Bft) S 177 ° 1 min 250 W/m² 17,2 °C 27,7 °C 14,5 km/h (3 Bft)
13.08.2023 17:28 23,2 °C 28,3 °C 64 % 49 % 1015,6 hPa 0,0 l/m² 7,1 km/h (2 Bft) S 170 ° 1 min 292 W/m² 16,5 °C 28,2 °C 9,7 km/h (2 Bft)
13.08.2023 17:29 23,2 °C 28,3 °C 64 % 49 % 1015,5 hPa 0,0 l/m² 10,5 km/h (2 Bft) S 173 ° 1 min 313 W/m² 16,5 °C 27,8 °C 11,3 km/h (2 Bft)
13.08.2023 17:31 23,2 °C 28,3 °C 64 % 47 % 1015,5 hPa 0,0 l/m² 11,5 km/h (2 Bft) S 184 ° 2 min 322 W/m² 15,9 °C 27,6 °C 19,3 km/h (3 Bft)
13.08.2023 17:33 23,2 °C 28,3 °C 64 % 46 % 1015,4 hPa 0,0 l/m² 6,2 km/h (2 Bft) S-SW 200 ° 2 min 332 W/m² 15,6 °C 28,3 °C 12,9 km/h (3 Bft)
13.08.2023 17:34 23,2 °C 28,3 °C 64 % 48 % 1015,4 hPa 0,0 l/m² 12,7 km/h (3 Bft) S-SO 153 ° 1 min 311 W/m² 16,2 °C 27,5 °C 17,7 km/h (3 Bft)
13.08.2023 17:35 23,1 °C 28,4 °C 64 % 47 % 1015,4 hPa 0,0 l/m² 11,7 km/h (2 Bft) S 169 ° 1 min 318 W/m² 16,0 °C 27,7 °C 14,5 km/h (3 Bft)
13.08.2023 17:36 23,1 °C 28,4 °C 64 % 50 % 1015,5 hPa 0,0 l/m² 13,0 km/h (3 Bft) S-SW 197 ° 1 min 315 W/m² 17,0 °C 27,6 °C 14,5 km/h (3 Bft)
13.08.2023 17:37 23,1 °C 28,5 °C 64 % 51 % 1015,6 hPa 0,0 l/m² 10,1 km/h (2 Bft) S 181 ° 1 min 316 W/m² 17,4 °C 28,0 °C 12,9 km/h (3 Bft)
13.08.2023 17:38 23,2 °C 28,6 °C 64 % 52 % 1015,5 hPa 0,0 l/m² 9,1 km/h (2 Bft) S 183 ° 1 min 316 W/m² 17,8 °C 28,2 °C 11,3 km/h (2 Bft)
13.08.2023 17:39 23,1 °C 28,6 °C 64 % 50 % 1015,5 hPa 0,0 l/m² 9,1 km/h (2 Bft) S-SW 209 ° 1 min 285 W/m² 17,1 °C 28,2 °C 14,5 km/h (3 Bft)
13.08.2023 17:41 23,2 °C 28,6 °C 64 % 47 % 1015,6 hPa 0,0 l/m² 11,3 km/h (2 Bft) S 190 ° 2 min 262 W/m² 16,2 °C 28,0 °C 16,1 km/h (3 Bft)
13.08.2023 17:43 23,2 °C 28,6 °C 64 % 46 % 1015,5 hPa 0,0 l/m² 12,3 km/h (2 Bft) S-SW 198 ° 2 min 262 W/m² 15,8 °C 27,9 °C 16,1 km/h (3 Bft)
13.08.2023 17:44 23,2 °C 28,6 °C 64 % 45 % 1015,6 hPa 0,0 l/m² 11,5 km/h (2 Bft) S 181 ° 1 min 260 W/m² 15,5 °C 28,0 °C 12,9 km/h (3 Bft)
13.08.2023 17:45 23,1 °C 28,6 °C 64 % 46 % 1015,6 hPa 0,0 l/m² 11,9 km/h (2 Bft) S 190 ° 1 min 265 W/m² 15,8 °C 27,9 °C 16,1 km/h (3 Bft)
13.08.2023 17:46 23,1 °C 28,6 °C 64 % 46 % 1015,6 hPa 0,0 l/m² 13,0 km/h (3 Bft) S-SW 207 ° 1 min 271 W/m² 15,8 °C 27,8 °C 14,5 km/h (3 Bft)
13.08.2023 17:47 23,2 °C 28,6 °C 64 % 46 % 1015,6 hPa 0,0 l/m² 10,6 km/h (2 Bft) SW 218 ° 1 min 276 W/m² 15,8 °C 28,1 °C 16,1 km/h (3 Bft)
13.08.2023 17:48 23,2 °C 28,6 °C 64 % 46 % 1015,5 hPa 0,0 l/m² 15,0 km/h (3 Bft) SW 234 ° 1 min 288 W/m² 15,8 °C 27,7 °C 19,3 km/h (3 Bft)
13.08.2023 17:49 23,1 °C 28,6 °C 64 % 46 % 1015,5 hPa 0,0 l/m² 13,0 km/h (3 Bft) S-SW 194 ° 1 min 274 W/m² 15,8 °C 27,8 °C 16,1 km/h (3 Bft)
13.08.2023 17:51 23,2 °C 28,6 °C 64 % 46 % 1015,5 hPa 0,0 l/m² 15,2 km/h (3 Bft) SW 223 ° 2 min 225 W/m² 15,8 °C 27,7 °C 20,9 km/h (4 Bft)
13.08.2023 17:53 23,2 °C 28,6 °C 64 % 47 % 1015,5 hPa 0,0 l/m² 15,8 km/h (3 Bft) S 190 ° 2 min 192 W/m² 16,2 °C 27,6 °C 20,9 km/h (4 Bft)
13.08.2023 17:54 23,2 °C 28,6 °C 64 % 46 % 1015,6 hPa 0,0 l/m² 16,5 km/h (3 Bft) S 190 ° 1 min 181 W/m² 15,8 °C 27,6 °C 20,9 km/h (4 Bft)
13.08.2023 17:55 23,1 °C 28,6 °C 64 % 47 % 1015,5 hPa 0,0 l/m² 15,0 km/h (3 Bft) S-SW 209 ° 1 min 169 W/m² 16,2 °C 27,7 °C 19,3 km/h (3 Bft)
13.08.2023 17:56 23,1 °C 28,5 °C 64 % 47 % 1015,5 hPa 0,0 l/m² 14,6 km/h (3 Bft) S-SW 207 ° 1 min 160 W/m² 16,1 °C 27,6 °C 17,7 km/h (3 Bft)
13.08.2023 17:57 23,1 °C 28,4 °C 64 % 47 % 1015,6 hPa 0,0 l/m² 14,3 km/h (3 Bft) SW 215 ° 1 min 163 W/m² 16,0 °C 27,5 °C 16,1 km/h (3 Bft)
13.08.2023 17:58 23,2 °C 28,4 °C 64 % 47 % 1015,6 hPa 0,0 l/m² 11,0 km/h (2 Bft) S-SW 213 ° 1 min 151 W/m² 16,0 °C 27,8 °C 14,5 km/h (3 Bft)
13.08.2023 17:59 23,1 °C 28,4 °C 64 % 48 % 1015,6 hPa 0,0 l/m² 10,7 km/h (2 Bft) W-SW 238 ° 1 min 146 W/m² 16,3 °C 27,8 °C 12,9 km/h (3 Bft)
13.08.2023 18:01 23,2 °C 28,3 °C 64 % 48 % 1015,6 hPa 0,0 l/m² 13,7 km/h (3 Bft) S-SW 193 ° 2 min 153 W/m² 16,2 °C 27,4 °C 19,3 km/h (3 Bft)
13.08.2023 18:03 23,2 °C 28,3 °C 64 % 48 % 1015,6 hPa 0,0 l/m² 16,4 km/h (3 Bft) S-SW 211 ° 2 min 142 W/m² 16,2 °C 27,2 °C 22,5 km/h (4 Bft)
13.08.2023 18:04 23,1 °C 28,2 °C 64 % 48 % 1015,5 hPa 0,0 l/m² 12,5 km/h (2 Bft) SW 217 ° 1 min 146 W/m² 16,1 °C 27,4 °C 14,5 km/h (3 Bft)
13.08.2023 18:05 23,1 °C 28,2 °C 64 % 48 % 1015,6 hPa 0,0 l/m² 11,5 km/h (2 Bft) W-SW 252 ° 1 min 148 W/m² 16,1 °C 27,5 °C 14,5 km/h (3 Bft)
13.08.2023 18:06 23,2 °C 28,2 °C 64 % 48 % 1015,5 hPa 0,0 l/m² 11,4 km/h (2 Bft) S-SW 204 ° 1 min 149 W/m² 16,1 °C 27,5 °C 14,5 km/h (3 Bft)
13.08.2023 18:07 23,1 °C 28,1 °C 64 % 48 % 1015,5 hPa 0,0 l/m² 13,8 km/h (3 Bft) S-SW 200 ° 1 min 149 W/m² 16,0 °C 27,2 °C 17,7 km/h (3 Bft)
13.08.2023 18:08 23,2 °C 28,1 °C 64 % 47 % 1015,5 hPa 0,0 l/m² 10,5 km/h (2 Bft) SW 218 ° 1 min 141 W/m² 15,7 °C 27,5 °C 16,1 km/h (3 Bft)
13.08.2023 18:09 23,2 °C 28,1 °C 64 % 48 % 1015,5 hPa 0,0 l/m² 14,7 km/h (3 Bft) S-SW 210 ° 1 min 130 W/m² 16,0 °C 27,1 °C 19,3 km/h (3 Bft)
13.08.2023 18:11 23,1 °C 28,0 °C 64 % 47 % 1015,6 hPa 0,0 l/m² 13,0 km/h (3 Bft) S-SW 208 ° 2 min 128 W/m² 15,6 °C 27,1 °C 16,1 km/h (3 Bft)
13.08.2023 18:13 23,1 °C 27,9 °C 64 % 47 % 1015,5 hPa 0,0 l/m² 9,9 km/h (2 Bft) SW 225 ° 2 min 128 W/m² 15,5 °C 27,4 °C 12,9 km/h (3 Bft)
13.08.2023 18:14 23,2 °C 27,9 °C 64 % 48 % 1015,5 hPa 0,0 l/m² 7,6 km/h (2 Bft) S-SW 207 ° 1 min 134 W/m² 15,9 °C 27,7 °C 8,0 km/h (2 Bft)
13.08.2023 18:15 23,1 °C 27,9 °C 64 % 48 % 1015,5 hPa 0,0 l/m² 11,0 km/h (2 Bft) S-SW 197 ° 1 min 135 W/m² 15,9 °C 27,2 °C 12,9 km/h (3 Bft)
13.08.2023 18:16 23,1 °C 27,9 °C 64 % 47 % 1015,5 hPa 0,0 l/m² 10,2 km/h (2 Bft) SW 236 ° 1 min 137 W/m² 15,5 °C 27,3 °C 11,3 km/h (2 Bft)
13.08.2023 18:17 23,2 °C 27,9 °C 64 % 47 % 1015,5 hPa 0,0 l/m² 9,9 km/h (2 Bft) S-SW 202 ° 1 min 137 W/m² 15,5 °C 27,4 °C 12,9 km/h (3 Bft)
13.08.2023 18:18 23,1 °C 27,9 °C 64 % 48 % 1015,5 hPa 0,0 l/m² 8,7 km/h (2 Bft) SW 214 ° 1 min 135 W/m² 15,9 °C 27,5 °C 9,7 km/h (2 Bft)
13.08.2023 18:19 23,1 °C 27,9 °C 64 % 48 % 1015,4 hPa 0,0 l/m² 10,5 km/h (2 Bft) S-SW 202 ° 1 min 132 W/m² 15,9 °C 27,3 °C 12,9 km/h (3 Bft)
13.08.2023 18:21 23,1 °C 27,8 °C 64 % 48 % 1015,5 hPa 0,0 l/m² 11,1 km/h (2 Bft) SW 220 ° 2 min 125 W/m² 15,8 °C 27,1 °C 16,1 km/h (3 Bft)
13.08.2023 18:23 23,1 °C 27,8 °C 64 % 48 % 1015,4 hPa 0,0 l/m² 12,3 km/h (2 Bft) SW 218 ° 2 min 121 W/m² 15,8 °C 27,0 °C 16,1 km/h (3 Bft)
13.08.2023 18:24 23,1 °C 27,8 °C 64 % 48 % 1015,5 hPa 0,0 l/m² 13,3 km/h (3 Bft) S-SW 202 ° 1 min 121 W/m² 15,8 °C 26,9 °C 16,1 km/h (3 Bft)
13.08.2023 18:25 23,1 °C 27,7 °C 64 % 48 % 1015,5 hPa 0,0 l/m² 11,3 km/h (2 Bft) SW 228 ° 1 min 127 W/m² 15,7 °C 27,0 °C 14,5 km/h (3 Bft)
13.08.2023 18:26 23,1 °C 27,7 °C 64 % 48 % 1015,5 hPa 0,0 l/m² 13,0 km/h (3 Bft) SW 217 ° 1 min 135 W/m² 15,7 °C 26,8 °C 16,1 km/h (3 Bft)
13.08.2023 18:27 23,1 °C 27,7 °C 64 % 48 % 1015,5 hPa 0,0 l/m² 10,2 km/h (2 Bft) S-SW 213 ° 1 min 139 W/m² 15,7 °C 27,1 °C 12,9 km/h (3 Bft)
13.08.2023 18:28 23,1 °C 27,7 °C 64 % 49 % 1015,5 hPa 0,0 l/m² 13,1 km/h (3 Bft) SW 221 ° 1 min 167 W/m² 16,0 °C 26,8 °C 17,7 km/h (3 Bft)
13.08.2023 18:29 23,2 °C 27,7 °C 64 % 49 % 1015,5 hPa 0,0 l/m² 12,6 km/h (3 Bft) SW 227 ° 1 min 181 W/m² 16,0 °C 26,8 °C 17,7 km/h (3 Bft)
13.08.2023 18:31 23,1 °C 27,6 °C 64 % 49 % 1015,5 hPa 0,0 l/m² 10,8 km/h (2 Bft) SW 219 ° 2 min 149 W/m² 15,9 °C 26,9 °C 16,1 km/h (3 Bft)
13.08.2023 18:33 23,1 °C 27,6 °C 64 % 49 % 1015,5 hPa 0,0 l/m² 10,9 km/h (2 Bft) S-SW 202 ° 2 min 128 W/m² 15,9 °C 26,9 °C 14,5 km/h (3 Bft)
13.08.2023 18:34 23,1 °C 27,6 °C 64 % 49 % 1015,5 hPa 0,0 l/m² 7,0 km/h (2 Bft) S-SW 205 ° 1 min 123 W/m² 15,9 °C 27,5 °C 9,7 km/h (2 Bft)
13.08.2023 18:35 23,1 °C 27,6 °C 64 % 49 % 1015,5 hPa 0,0 l/m² 8,8 km/h (2 Bft) S-SW 209 ° 1 min 123 W/m² 15,9 °C 27,2 °C 11,3 km/h (2 Bft)
13.08.2023 18:36 23,1 °C 27,6 °C 64 % 49 % 1015,5 hPa 0,0 l/m² 10,6 km/h (2 Bft) S-SW 210 ° 1 min 123 W/m² 15,9 °C 27,0 °C 12,9 km/h (3 Bft)
13.08.2023 18:37 23,2 °C 27,6 °C 64 % 50 % 1015,6 hPa 0,0 l/m² 12,6 km/h (3 Bft) S 191 ° 1 min 125 W/m² 16,2 °C 26,7 °C 14,5 km/h (3 Bft)
13.08.2023 18:38 23,1 °C 27,6 °C 64 % 49 % 1015,6 hPa 0,0 l/m² 9,6 km/h (2 Bft) S-SW 206 ° 1 min 125 W/m² 15,9 °C 27,1 °C 12,9 km/h (3 Bft)
13.08.2023 18:39 23,1 °C 27,6 °C 64 % 50 % 1015,5 hPa 0,0 l/m² 11,0 km/h (2 Bft) S-SW 213 ° 1 min 125 W/m² 16,2 °C 26,9 °C 14,5 km/h (3 Bft)
13.08.2023 18:41 23,2 °C 27,5 °C 64 % 49 % 1015,5 hPa 0,0 l/m² 12,8 km/h (3 Bft) S-SW 213 ° 2 min 125 W/m² 15,8 °C 26,6 °C 17,7 km/h (3 Bft)
13.08.2023 18:43 23,2 °C 27,4 °C 64 % 49 % 1015,5 hPa 0,0 l/m² 11,5 km/h (2 Bft) SW 215 ° 2 min 127 W/m² 15,7 °C 26,6 °C 16,1 km/h (3 Bft)
13.08.2023 18:45 23,1 °C 27,4 °C 64 % 49 % 1015,5 hPa 0,0 l/m² 12,0 km/h (2 Bft) S-SW 194 ° 2 min 128 W/m² 15,7 °C 26,6 °C 16,1 km/h (3 Bft)
13.08.2023 18:46 23,2 °C 27,4 °C 64 % 49 % 1015,5 hPa 0,0 l/m² 11,3 km/h (2 Bft) SW 221 ° 1 min 127 W/m² 15,7 °C 26,6 °C 14,5 km/h (3 Bft)
13.08.2023 18:47 23,2 °C 27,4 °C 64 % 51 % 1015,4 hPa 0,0 l/m² 5,6 km/h (2 Bft) SW 234 ° 1 min 121 W/m² 16,3 °C 27,4 °C 8,0 km/h (2 Bft)
13.08.2023 18:48 23,2 °C 27,4 °C 64 % 50 % 1015,4 hPa 0,0 l/m² 7,1 km/h (2 Bft) S-SW 212 ° 1 min 132 W/m² 16,0 °C 27,3 °C 9,7 km/h (2 Bft)
13.08.2023 18:49 23,1 °C 27,4 °C 64 % 51 % 1015,5 hPa 0,0 l/m² 8,8 km/h (2 Bft) SW 230 ° 1 min 123 W/m² 16,3 °C 27,0 °C 11,3 km/h (2 Bft)
13.08.2023 18:51 23,1 °C 27,3 °C 64 % 51 % 1015,5 hPa 0,0 l/m² 10,1 km/h (2 Bft) SW 215 ° 2 min 113 W/m² 16,3 °C 26,7 °C 14,5 km/h (3 Bft)
13.08.2023 18:53 23,2 °C 27,3 °C 64 % 51 % 1015,4 hPa 0,0 l/m² 9,6 km/h (2 Bft) SW 221 ° 2 min 113 W/m² 16,3 °C 26,8 °C 14,5 km/h (3 Bft)
13.08.2023 18:54 23,1 °C 27,3 °C 64 % 51 % 1015,4 hPa 0,0 l/m² 9,4 km/h (2 Bft) SW 219 ° 1 min 111 W/m² 16,3 °C 26,8 °C 11,3 km/h (2 Bft)
13.08.2023 18:55 23,2 °C 27,3 °C 64 % 51 % 1015,4 hPa 0,0 l/m² 11,5 km/h (2 Bft) SW 221 ° 1 min 105 W/m² 16,3 °C 26,5 °C 14,5 km/h (3 Bft)
13.08.2023 18:56 23,1 °C 27,3 °C 64 % 50 % 1015,4 hPa 0,0 l/m² 10,7 km/h (2 Bft) SW 234 ° 1 min 102 W/m² 15,9 °C 26,6 °C 12,9 km/h (3 Bft)
13.08.2023 18:57 23,1 °C 27,2 °C 64 % 51 % 1015,4 hPa 0,0 l/m² 8,4 km/h (2 Bft) SW 218 ° 1 min 100 W/m² 16,2 °C 26,8 °C 11,3 km/h (2 Bft)
13.08.2023 18:58 23,1 °C 27,2 °C 64 % 51 % 1015,4 hPa 0,0 l/m² 9,7 km/h (2 Bft) W-SW 248 ° 1 min 97 W/m² 16,2 °C 26,6 °C 12,9 km/h (3 Bft)
13.08.2023 18:59 23,2 °C 27,2 °C 64 % 51 % 1015,5 hPa 0,0 l/m² 11,1 km/h (2 Bft) SW 219 ° 1 min 95 W/m² 16,2 °C 26,4 °C 14,5 km/h (3 Bft)
13.08.2023 19:01 23,2 °C 27,1 °C 64 % 51 % 1015,5 hPa 0,0 l/m² 8,2 km/h (2 Bft) SW 224 ° 2 min 90 W/m² 16,1 °C 26,8 °C 11,3 km/h (2 Bft)
13.08.2023 19:03 23,1 °C 27,1 °C 64 % 52 % 1015,4 hPa 0,0 l/m² 7,9 km/h (2 Bft) S-SW 211 ° 2 min 86 W/m² 16,4 °C 26,8 °C 11,3 km/h (2 Bft)
13.08.2023 19:04 23,2 °C 27,1 °C 64 % 52 % 1015,4 hPa 0,0 l/m² 8,6 km/h (2 Bft) SW 223 ° 1 min 84 W/m² 16,4 °C 26,7 °C 9,7 km/h (2 Bft)
13.08.2023 19:05 23,2 °C 27,1 °C 64 % 52 % 1015,5 hPa 0,0 l/m² 7,2 km/h (2 Bft) SW 221 ° 1 min 83 W/m² 16,4 °C 27,0 °C 9,7 km/h (2 Bft)
13.08.2023 19:06 23,2 °C 27,0 °C 64 % 52 % 1015,4 hPa 0,0 l/m² 7,4 km/h (2 Bft) SW 229 ° 1 min 81 W/m² 16,3 °C 26,8 °C 9,7 km/h (2 Bft)
13.08.2023 19:07 23,1 °C 27,0 °C 64 % 52 % 1015,4 hPa 0,0 l/m² 9,6 km/h (2 Bft) SW 222 ° 1 min 79 W/m² 16,3 °C 26,4 °C 11,3 km/h (2 Bft)
13.08.2023 19:08 23,1 °C 26,9 °C 64 % 52 % 1015,5 hPa 0,0 l/m² 10,5 km/h (2 Bft) SW 227 ° 1 min 79 W/m² 16,2 °C 26,2 °C 12,9 km/h (3 Bft)
13.08.2023 19:09 23,2 °C 26,9 °C 64 % 53 % 1015,4 hPa 0,0 l/m² 7,1 km/h (2 Bft) SW 233 ° 1 min 79 W/m² 16,5 °C 26,8 °C 9,7 km/h (2 Bft)
13.08.2023 19:11 23,2 °C 26,9 °C 64 % 53 % 1015,5 hPa 0,0 l/m² 8,2 km/h (2 Bft) SW 221 ° 2 min 77 W/m² 16,5 °C 26,6 °C 12,9 km/h (3 Bft)
13.08.2023 19:12 23,1 °C 26,9 °C 64 % 53 % 1015,4 hPa 0,0 l/m² 7,6 km/h (2 Bft) SW 224 ° 1 min 74 W/m² 16,5 °C 26,7 °C 9,7 km/h (2 Bft)
13.08.2023 19:13 23,1 °C 26,8 °C 64 % 53 % 1015,4 hPa 0,0 l/m² 7,2 km/h (2 Bft) SW 223 ° 1 min 72 W/m² 16,4 °C 26,6 °C 9,7 km/h (2 Bft)
13.08.2023 19:14 23,2 °C 26,8 °C 64 % 53 % 1015,4 hPa 0,0 l/m² 6,7 km/h (2 Bft) SW 215 ° 1 min 70 W/m² 16,4 °C 26,7 °C 8,0 km/h (2 Bft)
13.08.2023 19:15 23,1 °C 26,8 °C 64 % 53 % 1015,4 hPa 0,0 l/m² 9,1 km/h (2 Bft) SW 224 ° 1 min 69 W/m² 16,4 °C 26,3 °C 11,3 km/h (2 Bft)
13.08.2023 19:16 23,2 °C 26,8 °C 64 % 53 % 1015,5 hPa 0,0 l/m² 5,9 km/h (2 Bft) W-SW 257 ° 1 min 69 W/m² 16,4 °C 26,8 °C 8,0 km/h (2 Bft)
13.08.2023 19:17 23,2 °C 26,8 °C 64 % 54 % 1015,5 hPa 0,0 l/m² 6,4 km/h (2 Bft) SW 232 ° 1 min 67 W/m² 16,7 °C 26,8 °C 8,0 km/h (2 Bft)
13.08.2023 19:18 23,2 °C 26,8 °C 64 % 53 % 1015,4 hPa 0,0 l/m² 9,6 km/h (2 Bft) SW 221 ° 1 min 65 W/m² 16,4 °C 26,2 °C 11,3 km/h (2 Bft)
13.08.2023 19:19 23,2 °C 26,7 °C 64 % 53 % 1015,4 hPa 0,0 l/m² 8,4 km/h (2 Bft) SW 222 ° 1 min 62 W/m² 16,3 °C 26,3 °C 9,7 km/h (2 Bft)
13.08.2023 19:21 23,2 °C 26,7 °C 64 % 53 % 1015,4 hPa 0,0 l/m² 6,4 km/h (2 Bft) S-SW 213 ° 2 min 60 W/m² 16,3 °C 26,7 °C 9,7 km/h (2 Bft)
13.08.2023 19:23 23,2 °C 26,7 °C 64 % 53 % 1015,3 hPa 0,0 l/m² 5,2 km/h (1 Bft) S-SW 213 ° 2 min 58 W/m² 16,3 °C 26,7 °C 8,0 km/h (2 Bft)
13.08.2023 19:24 23,2 °C 26,7 °C 64 % 53 % 1015,4 hPa 0,0 l/m² 6,0 km/h (2 Bft) SW 215 ° 1 min 58 W/m² 16,3 °C 26,7 °C 8,0 km/h (2 Bft)
13.08.2023 19:25 23,2 °C 26,6 °C 64 % 53 % 1015,3 hPa 0,0 l/m² 5,0 km/h (1 Bft) SW 215 ° 1 min 56 W/m² 16,2 °C 26,6 °C 6,4 km/h (2 Bft)
13.08.2023 19:26 23,2 °C 26,6 °C 64 % 54 % 1015,3 hPa 0,0 l/m² 4,9 km/h (1 Bft) SW 215 ° 1 min 54 W/m² 16,5 °C 26,6 °C 6,4 km/h (2 Bft)
13.08.2023 19:27 23,2 °C 26,6 °C 64 % 54 % 1015,3 hPa 0,0 l/m² 4,5 km/h (1 Bft) SW 215 ° 1 min 54 W/m² 16,5 °C 26,6 °C 6,4 km/h (2 Bft)
13.08.2023 19:28 23,2 °C 26,6 °C 64 % 54 % 1015,3 hPa 0,0 l/m² 5,1 km/h (1 Bft) SW 215 ° 1 min 54 W/m² 16,5 °C 26,6 °C 6,4 km/h (2 Bft)
13.08.2023 19:29 23,2 °C 26,6 °C 64 % 54 % 1015,3 hPa 0,0 l/m² 6,0 km/h (2 Bft) SW 217 ° 1 min 53 W/m² 16,5 °C 26,6 °C 8,0 km/h (2 Bft)
13.08.2023 19:31 23,2 °C 26,5 °C 64 % 54 % 1015,3 hPa 0,0 l/m² 5,7 km/h (2 Bft) SW 221 ° 0 min 51 W/m² 16,4 °C 26,5 °C 8,0 km/h (2 Bft)
13.08.2023 19:33 23,2 °C 26,4 °C 64 % 54 % 1015,4 hPa 0,0 l/m² 6,6 km/h (2 Bft) S-SW 209 ° 0 min 49 W/m² 16,3 °C 26,4 °C 9,7 km/h (2 Bft)
13.08.2023 19:34 23,2 °C 26,4 °C 64 % 54 % 1015,4 hPa 0,0 l/m² 6,5 km/h (2 Bft) SW 221 ° 0 min 47 W/m² 16,3 °C 26,4 °C 8,0 km/h (2 Bft)
13.08.2023 19:35 23,2 °C 26,4 °C 64 % 54 % 1015,4 hPa 0,0 l/m² 5,3 km/h (1 Bft) SW 221 ° 0 min 46 W/m² 16,3 °C 26,4 °C 6,4 km/h (2 Bft)
13.08.2023 19:36 23,2 °C 26,4 °C 64 % 55 % 1015,4 hPa 0,0 l/m² 6,0 km/h (2 Bft) S-SW 211 ° 0 min 42 W/m² 16,6 °C 26,4 °C 8,0 km/h (2 Bft)
13.08.2023 19:37 23,2 °C 26,4 °C 64 % 54 % 1015,4 hPa 0,0 l/m² 6,0 km/h (2 Bft) S-SW 213 ° 0 min 42 W/m² 16,3 °C 26,4 °C 6,4 km/h (2 Bft)
13.08.2023 19:38 23,2 °C 26,3 °C 64 % 55 % 1015,4 hPa 0,0 l/m² 5,9 km/h (2 Bft) S-SW 212 ° 0 min 42 W/m² 16,5 °C 26,3 °C 6,4 km/h (2 Bft)
13.08.2023 19:39 23,2 °C 26,3 °C 64 % 54 % 1015,4 hPa 0,0 l/m² 5,8 km/h (2 Bft) S-SW 211 ° 0 min 42 W/m² 16,2 °C 26,3 °C 6,4 km/h (2 Bft)
13.08.2023 19:41 23,2 °C 26,3 °C 63 % 55 % 1015,4 hPa 0,0 l/m² 6,4 km/h (2 Bft) SW 223 ° 0 min 44 W/m² 16,5 °C 26,3 °C 8,0 km/h (2 Bft)
13.08.2023 19:43 23,2 °C 26,2 °C 63 % 55 % 1015,5 hPa 0,0 l/m² 6,1 km/h (2 Bft) SW 223 ° 0 min 44 W/m² 16,4 °C 26,2 °C 9,7 km/h (2 Bft)
13.08.2023 19:44 23,2 °C 26,2 °C 63 % 55 % 1015,5 hPa 0,0 l/m² 5,3 km/h (1 Bft) SW 222 ° 0 min 44 W/m² 16,4 °C 26,2 °C 6,4 km/h (2 Bft)
13.08.2023 19:45 23,2 °C 26,2 °C 63 % 55 % 1015,5 hPa 0,0 l/m² 6,1 km/h (2 Bft) SW 221 ° 0 min 44 W/m² 16,4 °C 26,2 °C 8,0 km/h (2 Bft)
13.08.2023 19:46 23,2 °C 26,1 °C 63 % 55 % 1015,5 hPa 0,0 l/m² 5,9 km/h (2 Bft) SW 219 ° 0 min 44 W/m² 16,3 °C 26,1 °C 8,0 km/h (2 Bft)
13.08.2023 19:47 23,2 °C 26,1 °C 63 % 56 % 1015,5 hPa 0,0 l/m² 4,3 km/h (1 Bft) SW 219 ° 0 min 44 W/m² 16,6 °C 26,1 °C 4,8 km/h (1 Bft)
13.08.2023 19:48 23,2 °C 26,1 °C 63 % 56 % 1015,5 hPa 0,0 l/m² 5,1 km/h (1 Bft) SW 221 ° 0 min 40 W/m² 16,6 °C 26,1 °C 6,4 km/h (2 Bft)
13.08.2023 19:49 23,2 °C 26,1 °C 63 % 56 % 1015,5 hPa 0,0 l/m² 4,5 km/h (1 Bft) SW 221 ° 0 min 40 W/m² 16,6 °C 26,1 °C 6,4 km/h (2 Bft)
13.08.2023 19:51 23,2 °C 26,1 °C 63 % 56 % 1015,5 hPa 0,0 l/m² 4,7 km/h (1 Bft) SW 222 ° 0 min 37 W/m² 16,6 °C 26,1 °C 6,4 km/h (2 Bft)
13.08.2023 19:53 23,2 °C 26,0 °C 62 % 56 % 1015,6 hPa 0,0 l/m² 4,9 km/h (1 Bft) SW 222 ° 0 min 33 W/m² 16,5 °C 26,0 °C 6,4 km/h (2 Bft)
13.08.2023 19:54 23,2 °C 25,9 °C 62 % 56 % 1015,6 hPa 0,0 l/m² 4,1 km/h (1 Bft) SW 222 ° 0 min 33 W/m² 16,4 °C 25,9 °C 4,8 km/h (1 Bft)
13.08.2023 19:55 23,2 °C 25,9 °C 62 % 56 % 1015,6 hPa 0,0 l/m² 4,3 km/h (1 Bft) SW 222 ° 0 min 33 W/m² 16,4 °C 25,9 °C 6,4 km/h (2 Bft)
13.08.2023 19:56 23,2 °C 25,9 °C 62 % 56 % 1015,5 hPa 0,0 l/m² 3,6 km/h (1 Bft) SW 222 ° 0 min 33 W/m² 16,4 °C 25,9 °C 4,8 km/h (1 Bft)
13.08.2023 19:57 23,2 °C 25,9 °C 62 % 56 % 1015,5 hPa 0,0 l/m² 3,9 km/h (1 Bft) SW 222 ° 0 min 32 W/m² 16,4 °C 25,9 °C 4,8 km/h (1 Bft)
13.08.2023 19:58 23,2 °C 25,9 °C 62 % 56 % 1015,6 hPa 0,0 l/m² 4,3 km/h (1 Bft) SW 222 ° 0 min 32 W/m² 16,4 °C 25,9 °C 4,8 km/h (1 Bft)
13.08.2023 19:59 23,2 °C 25,9 °C 62 % 57 % 1015,6 hPa 0,0 l/m² 3,0 km/h (1 Bft) SW 222 ° 0 min 30 W/m² 16,7 °C 25,9 °C 4,8 km/h (1 Bft)
13.08.2023 20:01 23,2 °C 25,8 °C 62 % 57 % 1015,6 hPa 0,0 l/m² 4,2 km/h (1 Bft) SW 222 ° 0 min 28 W/m² 16,6 °C 25,8 °C 6,4 km/h (2 Bft)
13.08.2023 20:03 23,2 °C 25,8 °C 62 % 57 % 1015,6 hPa 0,0 l/m² 3,4 km/h (1 Bft) SW 222 ° 0 min 26 W/m² 16,6 °C 25,8 °C 4,8 km/h (1 Bft)
13.08.2023 20:04 23,2 °C 25,8 °C 62 % 57 % 1015,5 hPa 0,0 l/m² 2,3 km/h (1 Bft) SW 222 ° 0 min 26 W/m² 16,6 °C 25,8 °C 4,8 km/h (1 Bft)
13.08.2023 20:05 23,2 °C 25,8 °C 62 % 57 % 1015,5 hPa 0,0 l/m² 3,2 km/h (1 Bft) SW 222 ° 0 min 26 W/m² 16,6 °C 25,8 °C 3,2 km/h (1 Bft)
13.08.2023 20:06 23,2 °C 25,7 °C 62 % 57 % 1015,6 hPa 0,0 l/m² 3,3 km/h (1 Bft) SW 222 ° 0 min 28 W/m² 16,5 °C 25,7 °C 4,8 km/h (1 Bft)
13.08.2023 20:08 23,2 °C 25,7 °C 62 % 58 % 1015,6 hPa 0,0 l/m² 3,4 km/h (1 Bft) SW 222 ° 0 min 30 W/m² 16,8 °C 25,7 °C 4,8 km/h (1 Bft)
13.08.2023 20:09 23,2 °C 25,7 °C 62 % 58 % 1015,6 hPa 0,0 l/m² 2,8 km/h (1 Bft) SW 222 ° 0 min 30 W/m² 16,8 °C 25,7 °C 4,8 km/h (1 Bft)
13.08.2023 20:11 23,2 °C 25,7 °C 62 % 58 % 1015,6 hPa 0,0 l/m² 4,2 km/h (1 Bft) W-SW 237 ° 0 min 32 W/m² 16,8 °C 25,7 °C 8,0 km/h (2 Bft)
13.08.2023 20:13 23,2 °C 25,6 °C 62 % 58 % 1015,6 hPa 0,0 l/m² 7,1 km/h (2 Bft) SW 223 ° 0 min 33 W/m² 16,7 °C 25,4 °C 9,7 km/h (2 Bft)
13.08.2023 20:14 23,2 °C 25,6 °C 62 % 58 % 1015,6 hPa 0,0 l/m² 6,5 km/h (2 Bft) SW 218 ° 0 min 33 W/m² 16,7 °C 25,6 °C 8,0 km/h (2 Bft)
13.08.2023 20:15 23,2 °C 25,6 °C 62 % 58 % 1015,6 hPa 0,0 l/m² 6,8 km/h (2 Bft) SW 217 ° 0 min 33 W/m² 16,7 °C 25,5 °C 8,0 km/h (2 Bft)
13.08.2023 20:16 23,2 °C 25,6 °C 62 % 58 % 1015,6 hPa 0,0 l/m² 6,2 km/h (2 Bft) S-SW 213 ° 0 min 35 W/m² 16,7 °C 25,6 °C 8,0 km/h (2 Bft)
13.08.2023 20:17 23,2 °C 25,5 °C 62 % 58 % 1015,6 hPa 0,0 l/m² 6,4 km/h (2 Bft) S-SW 213 ° 0 min 35 W/m² 16,6 °C 25,5 °C 8,0 km/h (2 Bft)
13.08.2023 20:18 23,2 °C 25,5 °C 62 % 58 % 1015,6 hPa 0,0 l/m² 6,0 km/h (2 Bft) S-SW 213 ° 0 min 35 W/m² 16,6 °C 25,5 °C 6,4 km/h (2 Bft)
13.08.2023 20:19 23,2 °C 25,5 °C 62 % 58 % 1015,6 hPa 0,0 l/m² 5,1 km/h (1 Bft) S-SW 213 ° 0 min 37 W/m² 16,6 °C 25,5 °C 6,4 km/h (2 Bft)
13.08.2023 20:21 23,2 °C 25,4 °C 62 % 58 % 1015,6 hPa 0,0 l/m² 5,6 km/h (2 Bft) S-SW 213 ° 0 min 37 W/m² 16,5 °C 25,4 °C 6,4 km/h (2 Bft)
13.08.2023 20:23 23,2 °C 25,4 °C 62 % 59 % 1015,6 hPa 0,0 l/m² 5,2 km/h (1 Bft) S-SW 213 ° 0 min 27 W/m² 16,8 °C 25,4 °C 6,4 km/h (2 Bft)
13.08.2023 20:24 23,3 °C 25,3 °C 62 % 59 % 1015,6 hPa 0,0 l/m² 5,1 km/h (1 Bft) S-SW 213 ° 0 min 24 W/m² 16,7 °C 25,3 °C 6,4 km/h (2 Bft)
13.08.2023 20:25 23,2 °C 25,3 °C 62 % 59 % 1015,7 hPa 0,0 l/m² 4,1 km/h (1 Bft) S-SW 213 ° 0 min 21 W/m² 16,7 °C 25,3 °C 4,8 km/h (1 Bft)
13.08.2023 20:26 23,2 °C 25,3 °C 62 % 59 % 1015,6 hPa 0,0 l/m² 3,7 km/h (1 Bft) S-SW 213 ° 0 min 19 W/m² 16,7 °C 25,3 °C 4,8 km/h (1 Bft)
13.08.2023 20:27 23,2 °C 25,3 °C 62 % 59 % 1015,7 hPa 0,0 l/m² 2,7 km/h (1 Bft) S-SW 213 ° 0 min 16 W/m² 16,7 °C 25,3 °C 3,2 km/h (1 Bft)
13.08.2023 20:28 23,2 °C 25,3 °C 62 % 59 % 1015,7 hPa 0,0 l/m² 2,7 km/h (1 Bft) S-SW 213 ° 0 min 14 W/m² 16,7 °C 25,3 °C 3,2 km/h (1 Bft)
13.08.2023 20:29 23,2 °C 25,3 °C 62 % 59 % 1015,6 hPa 0,0 l/m² 3,7 km/h (1 Bft) S-SW 213 ° 0 min 11 W/m² 16,7 °C 25,3 °C 4,8 km/h (1 Bft)
13.08.2023 20:31 23,2 °C 25,3 °C 62 % 59 % 1015,7 hPa 0,0 l/m² 4,1 km/h (1 Bft) S-SW 213 ° 0 min 6 W/m² 16,7 °C 25,3 °C 4,8 km/h (1 Bft)
13.08.2023 20:33 23,2 °C 25,2 °C 62 % 60 % 1015,7 hPa 0,0 l/m² 3,8 km/h (1 Bft) S-SW 213 ° 0 min 1 W/m² 16,9 °C 25,2 °C 6,4 km/h (2 Bft)
13.08.2023 20:34 23,2 °C 25,3 °C 62 % 60 % 1015,6 hPa 0,0 l/m² 4,2 km/h (1 Bft) S-SW 213 ° 0 min 0 W/m² 17,0 °C 25,3 °C 4,8 km/h (1 Bft)
13.08.2023 20:35 23,2 °C 25,2 °C 62 % 60 % 1015,7 hPa 0,0 l/m² 3,7 km/h (1 Bft) S-SW 213 ° 0 min 0 W/m² 16,9 °C 25,2 °C 4,8 km/h (1 Bft)
13.08.2023 20:36 23,2 °C 25,2 °C 62 % 60 % 1015,7 hPa 0,0 l/m² 3,1 km/h (1 Bft) S-SW 213 ° 0 min 0 W/m² 16,9 °C 25,2 °C 3,2 km/h (1 Bft)
13.08.2023 20:37 23,2 °C 25,1 °C 62 % 60 % 1015,7 hPa 0,0 l/m² 3,2 km/h (1 Bft) S-SW 213 ° 0 min 0 W/m² 16,8 °C 25,1 °C 3,2 km/h (1 Bft)
13.08.2023 20:38 23,2 °C 25,1 °C 62 % 60 % 1015,7 hPa 0,0 l/m² 2,8 km/h (1 Bft) S-SW 213 ° 0 min 19 W/m² 16,8 °C 25,1 °C 3,2 km/h (1 Bft)
13.08.2023 20:39 23,2 °C 25,1 °C 62 % 60 % 1015,7 hPa 0,0 l/m² 3,3 km/h (1 Bft) S-SW 213 ° 0 min 18 W/m² 16,8 °C 25,1 °C 4,8 km/h (1 Bft)
13.08.2023 20:41 23,2 °C 25,0 °C 62 % 60 % 1015,8 hPa 0,0 l/m² 3,6 km/h (1 Bft) S-SW 213 ° 0 min 12 W/m² 16,7 °C 25,0 °C 4,8 km/h (1 Bft)
13.08.2023 20:43 23,2 °C 24,9 °C 62 % 60 % 1015,8 hPa 0,0 l/m² 3,6 km/h (1 Bft) S-SW 213 ° 0 min 9 W/m² 16,6 °C 24,9 °C 4,8 km/h (1 Bft)
13.08.2023 20:44 23,2 °C 24,9 °C 62 % 61 % 1015,9 hPa 0,0 l/m² 3,9 km/h (1 Bft) S-SW 213 ° 0 min 7 W/m² 16,8 °C 24,9 °C 4,8 km/h (1 Bft)
13.08.2023 20:45 23,2 °C 24,9 °C 63 % 61 % 1015,9 hPa 0,0 l/m² 3,7 km/h (1 Bft) S-SW 213 ° 0 min 5 W/m² 16,8 °C 24,9 °C 4,8 km/h (1 Bft)
13.08.2023 20:46 23,2 °C 24,8 °C 63 % 61 % 1016,0 hPa 0,0 l/m² 3,7 km/h (1 Bft) S-SW 213 ° 0 min 5 W/m² 16,8 °C 24,8 °C 4,8 km/h (1 Bft)
13.08.2023 20:47 23,2 °C 24,8 °C 63 % 61 % 1015,9 hPa 0,0 l/m² 3,1 km/h (1 Bft) S-SW 213 ° 0 min 0 W/m² 16,8 °C 24,8 °C 3,2 km/h (1 Bft)
13.08.2023 20:48 23,2 °C 24,8 °C 63 % 61 % 1015,9 hPa 0,0 l/m² 3,1 km/h (1 Bft) S-SW 213 ° 0 min 0 W/m² 16,8 °C 24,8 °C 3,2 km/h (1 Bft)
13.08.2023 20:49 23,2 °C 24,7 °C 63 % 61 % 1016,0 hPa 0,0 l/m² 2,6 km/h (1 Bft) S-SW 213 ° 0 min 0 W/m² 16,7 °C 24,7 °C 3,2 km/h (1 Bft)
13.08.2023 20:51 23,2 °C 24,7 °C 63 % 62 % 1016,1 hPa 0,0 l/m² 3,5 km/h (1 Bft) S-SW 213 ° 0 min 0 W/m² 16,9 °C 24,7 °C 4,8 km/h (1 Bft)
13.08.2023 20:53 23,3 °C 24,6 °C 63 % 62 % 1016,2 hPa 0,0 l/m² 4,6 km/h (1 Bft) S-SW 213 ° 0 min 0 W/m² 16,8 °C 24,6 °C 4,8 km/h (1 Bft)
13.08.2023 20:54 23,3 °C 24,6 °C 63 % 62 % 1016,1 hPa 0,0 l/m² 3,6 km/h (1 Bft) S-SW 213 ° 0 min 0 W/m² 16,8 °C 24,6 °C 4,8 km/h (1 Bft)
13.08.2023 20:55 23,3 °C 24,6 °C 63 % 62 % 1016,2 hPa 0,0 l/m² 3,5 km/h (1 Bft) S-SW 213 ° 0 min 0 W/m² 16,8 °C 24,6 °C 4,8 km/h (1 Bft)
13.08.2023 20:56 23,3 °C 24,5 °C 63 % 62 % 1016,2 hPa 0,0 l/m² 2,4 km/h (1 Bft) S-SW 213 ° 0 min 0 W/m² 16,7 °C 24,5 °C 3,2 km/h (1 Bft)
13.08.2023 20:57 23,3 °C 24,5 °C 63 % 62 % 1016,2 hPa 0,0 l/m² 2,4 km/h (1 Bft) S-SW 213 ° 0 min 0 W/m² 16,7 °C 24,5 °C 3,2 km/h (1 Bft)
13.08.2023 20:58 23,3 °C 24,4 °C 63 % 62 % 1016,2 hPa 0,0 l/m² 1,7 km/h (1 Bft) S-SW 213 ° 0 min 0 W/m² 16,6 °C 24,4 °C 3,2 km/h (1 Bft)
13.08.2023 20:59 23,3 °C 24,4 °C 63 % 62 % 1016,2 hPa 0,0 l/m² 0,2 km/h (0 Bft) S-SW 213 ° 0 min 0 W/m² 16,6 °C 24,4 °C 1,6 km/h (1 Bft)
13.08.2023 21:01 23,3 °C 24,4 °C 63 % 62 % 1016,2 hPa 0,0 l/m² 0,0 km/h (0 Bft) S-SW 213 ° 0 min 0 W/m² 16,6 °C 24,4 °C 0,0 km/h (0 Bft)
13.08.2023 21:03 23,3 °C 24,3 °C 63 % 62 % 1016,2 hPa 0,0 l/m² 0,0 km/h (0 Bft) S-SW 213 ° 0 min 0 W/m² 16,5 °C 24,3 °C 0,0 km/h (0 Bft)
13.08.2023 21:04 23,3 °C 24,3 °C 63 % 62 % 1016,3 hPa 0,0 l/m² 0,0 km/h (0 Bft) S-SW 213 ° 0 min 0 W/m² 16,5 °C 24,3 °C 0,0 km/h (0 Bft)
13.08.2023 21:05 23,3 °C 24,3 °C 63 % 62 % 1016,3 hPa 0,0 l/m² 0,0 km/h (0 Bft) S-SW 213 ° 0 min 0 W/m² 16,5 °C 24,3 °C 0,0 km/h (0 Bft)
13.08.2023 21:06 23,3 °C 24,2 °C 63 % 63 % 1016,3 hPa 0,0 l/m² 0,0 km/h (0 Bft) S-SW 213 ° 0 min 0 W/m² 16,7 °C 24,2 °C 0,0 km/h (0 Bft)
13.08.2023 21:07 23,3 °C 24,2 °C 63 % 63 % 1016,3 hPa 0,0 l/m² 0,0 km/h (0 Bft) S-SW 213 ° 0 min 0 W/m² 16,7 °C 24,2 °C 0,0 km/h (0 Bft)
13.08.2023 21:08 23,4 °C 24,2 °C 63 % 64 % 1016,3 hPa 0,0 l/m² 0,0 km/h (0 Bft) S-SW 213 ° 0 min 0 W/m² 16,9 °C 24,2 °C 0,0 km/h (0 Bft)
13.08.2023 21:09 23,3 °C 24,1 °C 63 % 64 % 1016,3 hPa 0,0 l/m² 0,0 km/h (0 Bft) S-SW 213 ° 0 min 0 W/m² 16,9 °C 24,1 °C 0,0 km/h (0 Bft)
13.08.2023 21:11 23,3 °C 24,0 °C 63 % 64 % 1016,3 hPa 0,0 l/m² 0,0 km/h (0 Bft) S-SW 213 ° 0 min 0 W/m² 16,8 °C 24,0 °C 0,0 km/h (0 Bft)
13.08.2023 21:13 23,3 °C 23,9 °C 63 % 64 % 1016,3 hPa 0,0 l/m² 0,0 km/h (0 Bft) S-SW 213 ° 0 min 0 W/m² 16,7 °C 23,9 °C 0,0 km/h (0 Bft)
13.08.2023 21:14 23,4 °C 23,9 °C 63 % 64 % 1016,3 hPa 0,0 l/m² 0,0 km/h (0 Bft) S-SW 213 ° 0 min 0 W/m² 16,7 °C 23,9 °C 0,0 km/h (0 Bft)
13.08.2023 21:15 23,4 °C 23,8 °C 63 % 64 % 1016,3 hPa 0,0 l/m² 0,0 km/h (0 Bft) S-SW 213 ° 0 min 0 W/m² 16,6 °C 23,8 °C 0,0 km/h (0 Bft)
13.08.2023 21:16 23,4 °C 23,8 °C 63 % 64 % 1016,3 hPa 0,0 l/m² 0,0 km/h (0 Bft) S-SW 213 ° 0 min 0 W/m² 16,6 °C 23,8 °C 0,0 km/h (0 Bft)
13.08.2023 21:17 23,4 °C 23,8 °C 63 % 64 % 1016,4 hPa 0,0 l/m² 0,0 km/h (0 Bft) S-SW 213 ° 0 min 0 W/m² 16,6 °C 23,8 °C 0,0 km/h (0 Bft)
13.08.2023 21:18 23,3 °C 23,7 °C 63 % 64 % 1016,4 hPa 0,0 l/m² 0,0 km/h (0 Bft) S-SW 213 ° 0 min 0 W/m² 16,5 °C 23,7 °C 0,0 km/h (0 Bft)
13.08.2023 21:19 23,4 °C 23,7 °C 63 % 64 % 1016,4 hPa 0,0 l/m² 0,0 km/h (0 Bft) S-SW 213 ° 0 min 0 W/m² 16,5 °C 23,7 °C 0,0 km/h (0 Bft)
13.08.2023 21:21 23,4 °C 23,6 °C 63 % 64 % 1016,4 hPa 0,0 l/m² 0,0 km/h (0 Bft) S-SW 213 ° 0 min 0 W/m² 16,4 °C 23,6 °C 0,0 km/h (0 Bft)
13.08.2023 21:23 23,4 °C 23,4 °C 63 % 65 % 1016,3 hPa 0,0 l/m² 0,0 km/h (0 Bft) S-SW 213 ° 0 min 0 W/m² 16,4 °C 23,4 °C 0,0 km/h (0 Bft)
13.08.2023 21:24 23,3 °C 23,3 °C 63 % 65 % 1016,3 hPa 0,0 l/m² 0,0 km/h (0 Bft) S-SW 213 ° 0 min 0 W/m² 16,3 °C 23,3 °C 0,0 km/h (0 Bft)
13.08.2023 21:25 23,4 °C 23,3 °C 63 % 65 % 1016,4 hPa 0,0 l/m² 0,0 km/h (0 Bft) S-SW 213 ° 0 min 0 W/m² 16,3 °C 23,3 °C 0,0 km/h (0 Bft)
13.08.2023 21:26 23,3 °C 23,2 °C 63 % 65 % 1016,4 hPa 0,0 l/m² 0,0 km/h (0 Bft) S-SW 213 ° 0 min 0 W/m² 16,2 °C 23,2 °C 0,0 km/h (0 Bft)
13.08.2023 21:27 23,4 °C 23,2 °C 62 % 65 % 1016,4 hPa 0,0 l/m² 0,0 km/h (0 Bft) S-SW 213 ° 0 min 0 W/m² 16,2 °C 23,2 °C 0,0 km/h (0 Bft)
13.08.2023 21:28 23,4 °C 23,2 °C 63 % 66 % 1016,4 hPa 0,0 l/m² 0,0 km/h (0 Bft) S-SW 213 ° 0 min 0 W/m² 16,5 °C 23,2 °C 0,0 km/h (0 Bft)
13.08.2023 21:29 23,4 °C 23,1 °C 63 % 66 % 1016,5 hPa 0,0 l/m² 0,0 km/h (0 Bft) S-SW 213 ° 0 min 0 W/m² 16,4 °C 23,1 °C 0,0 km/h (0 Bft)
13.08.2023 21:31 23,4 °C 22,9 °C 63 % 66 % 1016,5 hPa 0,0 l/m² 0,0 km/h (0 Bft) S-SW 213 ° 0 min 0 W/m² 16,2 °C 22,9 °C 0,0 km/h (0 Bft)
13.08.2023 21:33 23,4 °C 22,8 °C 63 % 67 % 1016,5 hPa 0,0 l/m² 0,0 km/h (0 Bft) S-SW 213 ° 0 min 0 W/m² 16,3 °C 22,8 °C 0,0 km/h (0 Bft)
13.08.2023 21:34 23,4 °C 22,8 °C 63 % 67 % 1016,5 hPa 0,0 l/m² 0,0 km/h (0 Bft) S-SW 213 ° 0 min 0 W/m² 16,3 °C 22,8 °C 0,0 km/h (0 Bft)
13.08.2023 21:35 23,4 °C 22,7 °C 63 % 67 % 1016,5 hPa 0,0 l/m² 0,0 km/h (0 Bft) S-SW 213 ° 0 min 0 W/m² 16,2 °C 22,7 °C 0,0 km/h (0 Bft)
13.08.2023 21:36 23,4 °C 22,7 °C 63 % 67 % 1016,5 hPa 0,0 l/m² 0,0 km/h (0 Bft) S-SW 213 ° 0 min 0 W/m² 16,2 °C 22,7 °C 0,0 km/h (0 Bft)
13.08.2023 21:37 23,4 °C 22,6 °C 63 % 68 % 1016,5 hPa 0,0 l/m² 0,0 km/h (0 Bft) S-SW 213 ° 0 min 0 W/m² 16,4 °C 22,6 °C 0,0 km/h (0 Bft)
13.08.2023 21:38 23,4 °C 22,6 °C 63 % 68 % 1016,5 hPa 0,0 l/m² 0,0 km/h (0 Bft) S-SW 213 ° 0 min 0 W/m² 16,4 °C 22,6 °C 0,0 km/h (0 Bft)
13.08.2023 21:39 23,4 °C 22,5 °C 63 % 68 % 1016,5 hPa 0,0 l/m² 0,0 km/h (0 Bft) S-SW 213 ° 0 min 0 W/m² 16,3 °C 22,5 °C 0,0 km/h (0 Bft)
13.08.2023 21:41 23,4 °C 22,4 °C 63 % 69 % 1016,5 hPa 0,0 l/m² 0,0 km/h (0 Bft) S-SW 213 ° 0 min 0 W/m² 16,4 °C 22,4 °C 0,0 km/h (0 Bft)
13.08.2023 21:43 23,4 °C 22,3 °C 63 % 69 % 1016,5 hPa 0,0 l/m² 0,0 km/h (0 Bft) S-SW 213 ° 0 min 0 W/m² 16,3 °C 22,3 °C 0,0 km/h (0 Bft)
13.08.2023 21:45 23,4 °C 22,2 °C 63 % 69 % 1016,4 hPa 0,0 l/m² 0,0 km/h (0 Bft) S-SW 213 ° 0 min 0 W/m² 16,2 °C 22,2 °C 0,0 km/h (0 Bft)
13.08.2023 21:46 23,4 °C 22,2 °C 63 % 69 % 1016,4 hPa 0,0 l/m² 0,0 km/h (0 Bft) S-SW 213 ° 0 min 0 W/m² 16,2 °C 22,2 °C 0,0 km/h (0 Bft)
13.08.2023 21:47 23,4 °C 22,1 °C 63 % 69 % 1016,5 hPa 0,0 l/m² 0,0 km/h (0 Bft) S-SW 213 ° 0 min 0 W/m² 16,1 °C 22,1 °C 0,0 km/h (0 Bft)
13.08.2023 21:48 23,4 °C 22,1 °C 63 % 69 % 1016,4 hPa 0,0 l/m² 0,0 km/h (0 Bft) S-SW 213 ° 0 min 0 W/m² 16,1 °C 22,1 °C 0,0 km/h (0 Bft)
13.08.2023 21:49 23,4 °C 22,0 °C 63 % 70 % 1016,4 hPa 0,0 l/m² 0,0 km/h (0 Bft) S-SW 213 ° 0 min 0 W/m² 16,3 °C 22,0 °C 0,0 km/h (0 Bft)
13.08.2023 21:51 23,4 °C 21,9 °C 63 % 70 % 1016,4 hPa 0,0 l/m² 0,0 km/h (0 Bft) S-SW 213 ° 0 min 0 W/m² 16,2 °C 21,9 °C 0,0 km/h (0 Bft)
13.08.2023 21:53 23,4 °C 21,9 °C 63 % 71 % 1016,4 hPa 0,0 l/m² 0,0 km/h (0 Bft) S-SW 213 ° 0 min 0 W/m² 16,4 °C 21,9 °C 0,0 km/h (0 Bft)
13.08.2023 21:54 23,4 °C 21,8 °C 63 % 71 % 1016,5 hPa 0,0 l/m² 0,0 km/h (0 Bft) S-SW 213 ° 0 min 0 W/m² 16,3 °C 21,8 °C 0,0 km/h (0 Bft)
13.08.2023 21:55 23,4 °C 21,8 °C 63 % 71 % 1016,4 hPa 0,0 l/m² 0,0 km/h (0 Bft) S-SW 213 ° 0 min 0 W/m² 16,3 °C 21,8 °C 0,0 km/h (0 Bft)
13.08.2023 21:56 23,4 °C 21,7 °C 63 % 71 % 1016,4 hPa 0,0 l/m² 0,0 km/h (0 Bft) S-SW 213 ° 0 min 0 W/m² 16,2 °C 21,7 °C 0,0 km/h (0 Bft)
13.08.2023 21:57 23,4 °C 21,7 °C 63 % 71 % 1016,4 hPa 0,0 l/m² 0,0 km/h (0 Bft) S-SW 213 ° 0 min 0 W/m² 16,2 °C 21,7 °C 0,0 km/h (0 Bft)
13.08.2023 21:58 23,4 °C 21,7 °C 63 % 71 % 1016,4 hPa 0,0 l/m² 0,0 km/h (0 Bft) S-SW 213 ° 0 min 0 W/m² 16,2 °C 21,7 °C 0,0 km/h (0 Bft)
13.08.2023 21:59 23,4 °C 21,6 °C 63 % 72 % 1016,4 hPa 0,0 l/m² 0,0 km/h (0 Bft) S-SW 213 ° 0 min 0 W/m² 16,3 °C 21,6 °C 0,0 km/h (0 Bft)
13.08.2023 22:01 23,4 °C 21,4 °C 63 % 72 % 1016,4 hPa 0,0 l/m² 0,0 km/h (0 Bft) S-SW 213 ° 0 min 0 W/m² 16,1 °C 21,4 °C 0,0 km/h (0 Bft)
13.08.2023 22:02 23,4 °C 21,4 °C 63 % 72 % 1016,4 hPa 0,0 l/m² 0,0 km/h (0 Bft) S-SW 213 ° 0 min 0 W/m² 16,1 °C 21,4 °C 0,0 km/h (0 Bft)
13.08.2023 22:03 23,4 °C 21,4 °C 63 % 72 % 1016,4 hPa 0,0 l/m² 0,0 km/h (0 Bft) S-SW 213 ° 0 min 0 W/m² 16,1 °C 21,4 °C 0,0 km/h (0 Bft)
13.08.2023 22:04 23,4 °C 21,3 °C 63 % 72 % 1016,4 hPa 0,0 l/m² 0,0 km/h (0 Bft) S-SW 213 ° 0 min 0 W/m² 16,0 °C 21,3 °C 0,0 km/h (0 Bft)
13.08.2023 22:05 23,4 °C 21,3 °C 63 % 72 % 1016,4 hPa 0,0 l/m² 0,0 km/h (0 Bft) S-SW 213 ° 0 min 0 W/m² 16,0 °C 21,3 °C 0,0 km/h (0 Bft)
13.08.2023 22:07 23,4 °C 21,2 °C 63 % 72 % 1016,5 hPa 0,0 l/m² 0,0 km/h (0 Bft) S-SW 213 ° 0 min 0 W/m² 15,9 °C 21,2 °C 0,0 km/h (0 Bft)
13.08.2023 22:08 23,4 °C 21,2 °C 63 % 72 % 1016,5 hPa 0,0 l/m² 0,0 km/h (0 Bft) S-SW 213 ° 0 min 0 W/m² 15,9 °C 21,2 °C 0,0 km/h (0 Bft)
13.08.2023 22:09 23,4 °C 21,2 °C 63 % 72 % 1016,5 hPa 0,0 l/m² 0,0 km/h (0 Bft) S-SW 213 ° 0 min 0 W/m² 15,9 °C 21,2 °C 0,0 km/h (0 Bft)
13.08.2023 22:11 23,4 °C 21,1 °C 63 % 72 % 1016,5 hPa 0,0 l/m² 0,0 km/h (0 Bft) S-SW 213 ° 0 min 0 W/m² 15,8 °C 21,1 °C 0,0 km/h (0 Bft)
13.08.2023 22:13 23,4 °C 21,1 °C 63 % 73 % 1016,4 hPa 0,0 l/m² 0,0 km/h (0 Bft) S-SW 213 ° 0 min 0 W/m² 16,1 °C 21,1 °C 0,0 km/h (0 Bft)
13.08.2023 22:14 23,4 °C 20,9 °C 63 % 73 % 1016,4 hPa 0,0 l/m² 0,0 km/h (0 Bft) S-SW 213 ° 0 min 0 W/m² 15,9 °C 20,9 °C 0,0 km/h (0 Bft)
13.08.2023 22:15 23,4 °C 20,9 °C 63 % 73 % 1016,4 hPa 0,0 l/m² 0,0 km/h (0 Bft) S-SW 213 ° 0 min 0 W/m² 15,9 °C 20,9 °C 0,0 km/h (0 Bft)
13.08.2023 22:16 23,4 °C 20,9 °C 63 % 73 % 1016,4 hPa 0,0 l/m² 0,0 km/h (0 Bft) S-SW 213 ° 0 min 0 W/m² 15,9 °C 20,9 °C 0,0 km/h (0 Bft)
13.08.2023 22:17 23,4 °C 20,8 °C 63 % 73 % 1016,4 hPa 0,0 l/m² 0,0 km/h (0 Bft) S-SW 213 ° 0 min 0 W/m² 15,8 °C 20,8 °C 0,0 km/h (0 Bft)
13.08.2023 22:18 23,4 °C 20,8 °C 63 % 73 % 1016,3 hPa 0,0 l/m² 0,0 km/h (0 Bft) S-SW 213 ° 0 min 0 W/m² 15,8 °C 20,8 °C 0,0 km/h (0 Bft)
13.08.2023 22:19 23,4 °C 20,7 °C 63 % 74 % 1016,4 hPa 0,0 l/m² 0,0 km/h (0 Bft) S-SW 213 ° 0 min 0 W/m² 15,9 °C 20,7 °C 0,0 km/h (0 Bft)
13.08.2023 22:21 23,4 °C 20,7 °C 63 % 74 % 1016,4 hPa 0,0 l/m² 0,0 km/h (0 Bft) S-SW 213 ° 0 min 0 W/m² 15,9 °C 20,7 °C 0,0 km/h (0 Bft)
13.08.2023 22:23 23,4 °C 20,6 °C 63 % 74 % 1016,4 hPa 0,0 l/m² 0,0 km/h (0 Bft) S-SW 213 ° 0 min 0 W/m² 15,8 °C 20,6 °C 0,0 km/h (0 Bft)
13.08.2023 22:24 23,4 °C 20,5 °C 63 % 74 % 1016,4 hPa 0,0 l/m² 0,0 km/h (0 Bft) S-SW 213 ° 0 min 0 W/m² 15,7 °C 20,5 °C 0,0 km/h (0 Bft)
13.08.2023 22:25 23,4 °C 20,5 °C 63 % 74 % 1016,4 hPa 0,0 l/m² 0,0 km/h (0 Bft) S-SW 213 ° 0 min 0 W/m² 15,7 °C 20,5 °C 0,0 km/h (0 Bft)
13.08.2023 22:26 23,4 °C 20,4 °C 63 % 74 % 1016,5 hPa 0,0 l/m² 0,0 km/h (0 Bft) S-SW 213 ° 0 min 0 W/m² 15,6 °C 20,4 °C 0,0 km/h (0 Bft)
13.08.2023 22:27 23,4 °C 20,4 °C 63 % 74 % 1016,5 hPa 0,0 l/m² 0,0 km/h (0 Bft) S-SW 213 ° 0 min 0 W/m² 15,6 °C 20,4 °C 0,0 km/h (0 Bft)
13.08.2023 22:28 23,4 °C 20,4 °C 63 % 74 % 1016,5 hPa 0,0 l/m² 0,0 km/h (0 Bft) S-SW 213 ° 0 min 0 W/m² 15,6 °C 20,4 °C 0,0 km/h (0 Bft)
13.08.2023 22:29 23,4 °C 20,3 °C 63 % 74 % 1016,4 hPa 0,0 l/m² 0,0 km/h (0 Bft) S-SW 213 ° 0 min 0 W/m² 15,5 °C 20,3 °C 0,0 km/h (0 Bft)
13.08.2023 22:30 23,4 °C 20,3 °C 63 % 74 % 1016,4 hPa 0,0 l/m² 0,0 km/h (0 Bft) S-SW 213 ° 0 min 0 W/m² 15,5 °C 20,3 °C 0,0 km/h (0 Bft)
13.08.2023 22:32 23,4 °C 20,2 °C 63 % 74 % 1016,4 hPa 0,0 l/m² 0,0 km/h (0 Bft) S-SW 213 ° 0 min 0 W/m² 15,4 °C 20,2 °C 0,0 km/h (0 Bft)
13.08.2023 22:33 23,4 °C 20,2 °C 63 % 74 % 1016,5 hPa 0,0 l/m² 0,0 km/h (0 Bft) S-SW 213 ° 0 min 0 W/m² 15,4 °C 20,2 °C 0,0 km/h (0 Bft)
13.08.2023 22:34 23,4 °C 20,2 °C 63 % 75 % 1016,4 hPa 0,0 l/m² 0,0 km/h (0 Bft) S-SW 213 ° 0 min 0 W/m² 15,6 °C 20,2 °C 0,0 km/h (0 Bft)
13.08.2023 22:35 23,4 °C 20,1 °C 63 % 75 % 1016,5 hPa 0,0 l/m² 0,0 km/h (0 Bft) S-SW 213 ° 0 min 0 W/m² 15,5 °C 20,1 °C 0,0 km/h (0 Bft)
13.08.2023 22:36 23,4 °C 20,1 °C 63 % 75 % 1016,5 hPa 0,0 l/m² 0,0 km/h (0 Bft) S-SW 213 ° 0 min 0 W/m² 15,5 °C 20,1 °C 0,0 km/h (0 Bft)
13.08.2023 22:37 23,5 °C 20,1 °C 63 % 75 % 1016,5 hPa 0,0 l/m² 0,0 km/h (0 Bft) S-SW 213 ° 0 min 0 W/m² 15,5 °C 20,1 °C 0,0 km/h (0 Bft)
13.08.2023 22:38 23,5 °C 20,0 °C 63 % 75 % 1016,5 hPa 0,0 l/m² 0,0 km/h (0 Bft) S-SW 213 ° 0 min 0 W/m² 15,4 °C 20,0 °C 0,0 km/h (0 Bft)
13.08.2023 22:39 23,4 °C 20,0 °C 63 % 76 % 1016,5 hPa 0,0 l/m² 0,0 km/h (0 Bft) S-SW 213 ° 0 min 0 W/m² 15,6 °C 20,0 °C 0,0 km/h (0 Bft)
13.08.2023 22:40 23,4 °C 19,9 °C 63 % 76 % 1016,5 hPa 0,0 l/m² 0,0 km/h (0 Bft) S-SW 213 ° 0 min 0 W/m² 15,5 °C 19,9 °C 0,0 km/h (0 Bft)
13.08.2023 22:42 23,4 °C 19,9 °C 63 % 76 % 1016,5 hPa 0,0 l/m² 0,0 km/h (0 Bft) S-SW 213 ° 0 min 0 W/m² 15,5 °C 19,9 °C 0,0 km/h (0 Bft)
13.08.2023 22:43 23,4 °C 19,9 °C 63 % 76 % 1016,5 hPa 0,0 l/m² 0,0 km/h (0 Bft) S-SW 213 ° 0 min 0 W/m² 15,5 °C 19,9 °C 0,0 km/h (0 Bft)
13.08.2023 22:44 23,4 °C 19,8 °C 64 % 77 % 1016,5 hPa 0,0 l/m² 0,0 km/h (0 Bft) S-SW 213 ° 0 min 0 W/m² 15,6 °C 19,8 °C 0,0 km/h (0 Bft)
13.08.2023 22:45 23,4 °C 19,8 °C 64 % 77 % 1016,6 hPa 0,0 l/m² 0,0 km/h (0 Bft) S-SW 213 ° 0 min 0 W/m² 15,6 °C 19,8 °C 0,0 km/h (0 Bft)
13.08.2023 22:46 23,4 °C 19,8 °C 64 % 78 % 1016,6 hPa 0,0 l/m² 0,0 km/h (0 Bft) S-SW 213 ° 0 min 0 W/m² 15,8 °C 19,8 °C 0,0 km/h (0 Bft)
13.08.2023 22:47 23,4 °C 19,8 °C 64 % 78 % 1016,6 hPa 0,0 l/m² 0,0 km/h (0 Bft) S-SW 213 ° 0 min 0 W/m² 15,8 °C 19,8 °C 0,0 km/h (0 Bft)
13.08.2023 22:48 23,4 °C 19,8 °C 64 % 78 % 1016,6 hPa 0,0 l/m² 0,0 km/h (0 Bft) S-SW 213 ° 0 min 0 W/m² 15,8 °C 19,8 °C 0,0 km/h (0 Bft)
13.08.2023 22:49 23,4 °C 19,7 °C 64 % 78 % 1016,6 hPa 0,0 l/m² 0,0 km/h (0 Bft) S-SW 213 ° 0 min 0 W/m² 15,8 °C 19,7 °C 0,0 km/h (0 Bft)
13.08.2023 22:51 23,4 °C 19,7 °C 64 % 78 % 1016,6 hPa 0,0 l/m² 0,0 km/h (0 Bft) S-SW 213 ° 0 min 0 W/m² 15,8 °C 19,7 °C 0,0 km/h (0 Bft)
13.08.2023 22:53 23,4 °C 19,6 °C 64 % 78 % 1016,5 hPa 0,0 l/m² 0,0 km/h (0 Bft) S-SW 213 ° 0 min 0 W/m² 15,7 °C 19,6 °C 0,0 km/h (0 Bft)
13.08.2023 22:54 23,4 °C 19,5 °C 64 % 78 % 1016,5 hPa 0,0 l/m² 0,0 km/h (0 Bft) S-SW 213 ° 0 min 0 W/m² 15,6 °C 19,5 °C 0,0 km/h (0 Bft)
13.08.2023 22:55 23,4 °C 19,4 °C 64 % 79 % 1016,5 hPa 0,0 l/m² 0,0 km/h (0 Bft) S-SW 213 ° 0 min 0 W/m² 15,7 °C 19,4 °C 0,0 km/h (0 Bft)
13.08.2023 22:56 23,4 °C 19,4 °C 64 % 79 % 1016,5 hPa 0,0 l/m² 0,0 km/h (0 Bft) S-SW 213 ° 0 min 0 W/m² 15,7 °C 19,4 °C 0,0 km/h (0 Bft)
13.08.2023 22:57 23,4 °C 19,4 °C 64 % 79 % 1016,5 hPa 0,0 l/m² 0,0 km/h (0 Bft) S-SW 213 ° 0 min 0 W/m² 15,7 °C 19,4 °C 0,0 km/h (0 Bft)
13.08.2023 22:58 23,4 °C 19,3 °C 64 % 79 % 1016,5 hPa 0,0 l/m² 0,0 km/h (0 Bft) S-SW 213 ° 0 min 0 W/m² 15,6 °C 19,3 °C 0,0 km/h (0 Bft)
13.08.2023 22:59 23,4 °C 19,3 °C 64 % 79 % 1016,6 hPa 0,0 l/m² 0,0 km/h (0 Bft) S-SW 213 ° 0 min 0 W/m² 15,6 °C 19,3 °C 0,0 km/h (0 Bft)
13.08.2023 23:00 23,4 °C 19,3 °C 64 % 79 % 1016,5 hPa 0,0 l/m² 0,0 km/h (0 Bft) S-SW 213 ° 0 min 0 W/m² 15,6 °C 19,3 °C 0,0 km/h (0 Bft)
13.08.2023 23:02 23,4 °C 19,2 °C 64 % 79 % 1016,5 hPa 0,0 l/m² 0,0 km/h (0 Bft) S-SW 213 ° 0 min 0 W/m² 15,5 °C 19,2 °C 0,0 km/h (0 Bft)
13.08.2023 23:03 23,4 °C 19,2 °C 64 % 79 % 1016,6 hPa 0,0 l/m² 0,0 km/h (0 Bft) S-SW 213 ° 0 min 0 W/m² 15,5 °C 19,2 °C 0,0 km/h (0 Bft)
13.08.2023 23:04 23,4 °C 19,1 °C 64 % 79 % 1016,5 hPa 0,0 l/m² 0,0 km/h (0 Bft) S-SW 213 ° 0 min 0 W/m² 15,4 °C 19,1 °C 0,0 km/h (0 Bft)
13.08.2023 23:05 23,4 °C 19,1 °C 64 % 79 % 1016,6 hPa 0,0 l/m² 0,0 km/h (0 Bft) S-SW 213 ° 0 min 0 W/m² 15,4 °C 19,1 °C 0,0 km/h (0 Bft)
13.08.2023 23:06 23,4 °C 19,0 °C 64 % 79 % 1016,6 hPa 0,0 l/m² 0,0 km/h (0 Bft) S-SW 213 ° 0 min 0 W/m² 15,3 °C 19,0 °C 0,0 km/h (0 Bft)
13.08.2023 23:07 23,4 °C 19,0 °C 64 % 79 % 1016,6 hPa 0,0 l/m² 0,0 km/h (0 Bft) S-SW 213 ° 0 min 0 W/m² 15,3 °C 19,0 °C 0,0 km/h (0 Bft)
13.08.2023 23:08 23,4 °C 18,9 °C 64 % 79 % 1016,6 hPa 0,0 l/m² 0,0 km/h (0 Bft) S-SW 213 ° 0 min 0 W/m² 15,2 °C 18,9 °C 0,0 km/h (0 Bft)
13.08.2023 23:09 23,4 °C 18,9 °C 64 % 79 % 1016,7 hPa 0,0 l/m² 0,0 km/h (0 Bft) S-SW 213 ° 0 min 0 W/m² 15,2 °C 18,9 °C 0,0 km/h (0 Bft)
13.08.2023 23:10 23,4 °C 18,9 °C 64 % 79 % 1016,7 hPa 0,0 l/m² 0,0 km/h (0 Bft) S-SW 213 ° 0 min 0 W/m² 15,2 °C 18,9 °C 0,0 km/h (0 Bft)
13.08.2023 23:12 23,4 °C 18,8 °C 64 % 79 % 1016,7 hPa 0,0 l/m² 0,0 km/h (0 Bft) S-SW 213 ° 0 min 0 W/m² 15,1 °C 18,8 °C 0,0 km/h (0 Bft)
13.08.2023 23:13 23,4 °C 18,8 °C 64 % 79 % 1016,6 hPa 0,0 l/m² 0,0 km/h (0 Bft) S-SW 213 ° 0 min 0 W/m² 15,1 °C 18,8 °C 0,0 km/h (0 Bft)
13.08.2023 23:14 23,4 °C 18,8 °C 64 % 79 % 1016,7 hPa 0,0 l/m² 0,0 km/h (0 Bft) S-SW 213 ° 0 min 0 W/m² 15,1 °C 18,8 °C 0,0 km/h (0 Bft)
13.08.2023 23:15 23,4 °C 18,7 °C 64 % 79 % 1016,6 hPa 0,0 l/m² 0,0 km/h (0 Bft) S-SW 213 ° 0 min 0 W/m² 15,0 °C 18,7 °C 0,0 km/h (0 Bft)
13.08.2023 23:16 23,4 °C 18,7 °C 64 % 79 % 1016,7 hPa 0,0 l/m² 0,0 km/h (0 Bft) N 0 ° 0 min 0 W/m² 15,0 °C 18,7 °C 0,0 km/h (0 Bft)
13.08.2023 23:17 23,4 °C 18,6 °C 64 % 79 % 1016,6 hPa 0,0 l/m² 0,0 km/h (0 Bft) N 0 ° 0 min 0 W/m² 14,9 °C 18,6 °C 0,0 km/h (0 Bft)
13.08.2023 23:23 23,4 °C 18,5 °C 64 % 79 % 1016,7 hPa 0,0 l/m² 0,0 km/h (0 Bft) S-SW 213 ° 0 min 0 W/m² 14,8 °C 18,5 °C 0,0 km/h (0 Bft)
13.08.2023 23:25 23,3 °C 18,4 °C 64 % 79 % 1016,6 hPa 0,0 l/m² 0,0 km/h (0 Bft) S-SW 213 ° 0 min 0 W/m² 14,7 °C 18,4 °C 0,0 km/h (0 Bft)
13.08.2023 23:26 23,3 °C 18,4 °C 64 % 79 % 1016,6 hPa 0,0 l/m² 0,0 km/h (0 Bft) S-SW 213 ° 0 min 0 W/m² 14,7 °C 18,4 °C 0,0 km/h (0 Bft)
13.08.2023 23:28 23,3 °C 18,3 °C 64 % 79 % 1016,7 hPa 0,0 l/m² 0,0 km/h (0 Bft) S-SW 213 ° 0 min 0 W/m² 14,6 °C 18,3 °C 0,0 km/h (0 Bft)
13.08.2023 23:30 23,3 °C 18,3 °C 64 % 80 % 1016,7 hPa 0,0 l/m² 0,0 km/h (0 Bft) S-SW 213 ° 0 min 0 W/m² 14,8 °C 18,3 °C 0,0 km/h (0 Bft)
13.08.2023 23:31 23,3 °C 18,3 °C 64 % 80 % 1016,7 hPa 0,0 l/m² 0,0 km/h (0 Bft) S-SW 213 ° 0 min 0 W/m² 14,8 °C 18,3 °C 0,0 km/h (0 Bft)
13.08.2023 23:32 23,3 °C 18,3 °C 64 % 80 % 1016,8 hPa 0,0 l/m² 0,0 km/h (0 Bft) S-SW 213 ° 0 min 0 W/m² 14,8 °C 18,3 °C 0,0 km/h (0 Bft)
13.08.2023 23:33 23,3 °C 18,2 °C 64 % 80 % 1016,8 hPa 0,0 l/m² 0,0 km/h (0 Bft) S-SW 213 ° 0 min 0 W/m² 14,7 °C 18,2 °C 0,0 km/h (0 Bft)
13.08.2023 23:34 23,3 °C 18,2 °C 64 % 80 % 1016,7 hPa 0,0 l/m² 0,0 km/h (0 Bft) S-SW 213 ° 0 min 0 W/m² 14,7 °C 18,2 °C 0,0 km/h (0 Bft)
13.08.2023 23:35 23,3 °C 18,2 °C 64 % 80 % 1016,7 hPa 0,0 l/m² 0,0 km/h (0 Bft) S-SW 213 ° 0 min 0 W/m² 14,7 °C 18,2 °C 0,0 km/h (0 Bft)
13.08.2023 23:37 23,3 °C 18,1 °C 64 % 80 % 1016,8 hPa 0,0 l/m² 0,0 km/h (0 Bft) S-SW 213 ° 0 min 0 W/m² 14,6 °C 18,1 °C 0,0 km/h (0 Bft)
13.08.2023 23:39 23,3 °C 18,1 °C 64 % 80 % 1016,8 hPa 0,0 l/m² 0,0 km/h (0 Bft) S-SW 213 ° 0 min 0 W/m² 14,6 °C 18,1 °C 0,0 km/h (0 Bft)
13.08.2023 23:40 23,3 °C 18,0 °C 64 % 80 % 1016,8 hPa 0,0 l/m² 0,0 km/h (0 Bft) S-SW 213 ° 0 min 0 W/m² 14,5 °C 18,0 °C 0,0 km/h (0 Bft)
13.08.2023 23:41 23,3 °C 18,0 °C 64 % 80 % 1016,7 hPa 0,0 l/m² 0,0 km/h (0 Bft) S-SW 213 ° 0 min 0 W/m² 14,5 °C 18,0 °C 0,0 km/h (0 Bft)
13.08.2023 23:42 23,3 °C 18,0 °C 64 % 80 % 1016,7 hPa 0,0 l/m² 0,0 km/h (0 Bft) S-SW 213 ° 0 min 0 W/m² 14,5 °C 18,0 °C 0,0 km/h (0 Bft)
13.08.2023 23:44 23,3 °C 17,9 °C 64 % 80 % 1016,8 hPa 0,0 l/m² 0,0 km/h (0 Bft) S-SW 213 ° 0 min 0 W/m² 14,4 °C 17,9 °C 0,0 km/h (0 Bft)
13.08.2023 23:46 23,3 °C 17,9 °C 64 % 80 % 1016,8 hPa 0,0 l/m² 0,0 km/h (0 Bft) S-SW 213 ° 0 min 0 W/m² 14,4 °C 17,9 °C 0,0 km/h (0 Bft)
13.08.2023 23:48 23,3 °C 17,8 °C 64 % 80 % 1016,8 hPa 0,0 l/m² 0,0 km/h (0 Bft) S-SW 213 ° 0 min 0 W/m² 14,3 °C 17,8 °C 0,0 km/h (0 Bft)
13.08.2023 23:50 23,3 °C 17,8 °C 64 % 80 % 1016,9 hPa 0,0 l/m² 0,0 km/h (0 Bft) S-SW 213 ° 0 min 0 W/m² 14,3 °C 17,8 °C 0,0 km/h (0 Bft)
13.08.2023 23:51 23,3 °C 17,8 °C 64 % 81 % 1016,9 hPa 0,0 l/m² 0,0 km/h (0 Bft) S-SW 213 ° 0 min 0 W/m² 14,5 °C 17,8 °C 0,0 km/h (0 Bft)
13.08.2023 23:52 23,3 °C 17,8 °C 64 % 81 % 1016,9 hPa 0,0 l/m² 0,0 km/h (0 Bft) S-SW 213 ° 0 min 0 W/m² 14,5 °C 17,8 °C 0,0 km/h (0 Bft)
13.08.2023 23:53 23,3 °C 17,7 °C 64 % 81 % 1016,8 hPa 0,0 l/m² 0,0 km/h (0 Bft) S-SW 213 ° 0 min 0 W/m² 14,4 °C 17,7 °C 0,0 km/h (0 Bft)
13.08.2023 23:55 23,3 °C 17,7 °C 64 % 81 % 1016,8 hPa 0,0 l/m² 0,0 km/h (0 Bft) S-SW 213 ° 0 min 0 W/m² 14,4 °C 17,7 °C 0,0 km/h (0 Bft)
13.08.2023 23:57 23,3 °C 17,6 °C 64 % 81 % 1016,8 hPa 0,0 l/m² 0,0 km/h (0 Bft) S-SW 213 ° 0 min 0 W/m² 14,3 °C 17,6 °C 0,0 km/h (0 Bft)
13.08.2023 23:59 23,3 °C 17,5 °C 64 % 81 % 1016,9 hPa 0,0 l/m² 0,0 km/h (0 Bft) S-SW 213 ° 0 min 0 W/m² 14,2 °C 17,5 °C 0,0 km/h (0 Bft)
_ Min-Zeit 08:41 07:03 21:27 17:44 19:31 - 23:59 - - - - 23:59 07:03 23:59
Minimum _ 22,7 °C 16,1 °C 62 % 45 % 1015,3 hPa - 0,0 km/h (0 Bft) - - - - 14,2 °C 16,1 °C 0,0 km/h (0 Bft)
_ Max-Zeit 22:38 14:29 14:04 08:25 10:11 23:59 13:41 - - 12:22 12:42 10:46 14:29 13:39
Maximum _ 23,5 °C 28,7 °C 65 % 95 % 1018,6 hPa 0,0 l/m² 17,1 km/h
SO (3 Bft)
- - 3 min 954 W/m² 18,6 °C 28,6 °C 25,7 km/h
O (4 Bft)
Durchschnitt _ 23,0 °C 22,7 °C 63 % 72 % 1017,2 hPa #0,0 l/m² 3,7 km/h (1 Bft) S-SW - #12:08 h 207 W/m² 16,7 °C 22,5 °C 5,6 km/h (2 Bft)
© 2009 Mathias Hoßbach